<?xml version="1.0" encoding="UTF-8" standalone="no" ?>
<gpx xmlns="http://www.topografix.com/GPX/1/1" xmlns:xsi="http://www.w3.org/2001/XMLSchema-instance" xsi:schemaLocation="http://www.topografix.com/GPX/1/1 http://www.topografix.com/GPX/1/1/gpx.xsd" version="1.1" creator="VisuGPX - https://www.visugpx.com">
  <metadata>
    <name>La_Fontainebleau_2013_24032013</name>
    <desc><![CDATA[Randonnée annuelle \"La Fontainebleau 2013\"
Circuit de 50km raccourci à 43km faute de fléchage.
pas de pluie, pas de vent, pas de boue , pas de soleil,
Belle journée
équipé de 4 , fini à 3 , on a laché jojo...
]]></desc>
  </metadata>
  <trk>
    <name><![CDATA[Tracé actuel: 24 MARS 2013 09:02]]></name>
    <trkseg>
      <trkpt lat="48.40452" lon="2.68328">
        <ele>80.41</ele>
        <time>2013-03-24T08:28:28Z</time>
      </trkpt>
      <trkpt lat="48.40452" lon="2.68328">
        <ele>80.41</ele>
        <time>2013-03-24T08:28:48Z</time>
      </trkpt>
      <trkpt lat="48.40455" lon="2.68328">
        <ele>79.45</ele>
        <time>2013-03-24T08:28:58Z</time>
      </trkpt>
      <trkpt lat="48.40458" lon="2.68313">
        <ele>80.41</ele>
        <time>2013-03-24T08:29:04Z</time>
      </trkpt>
      <trkpt lat="48.40469" lon="2.68245">
        <ele>80.89</ele>
        <time>2013-03-24T08:29:22Z</time>
      </trkpt>
      <trkpt lat="48.40476" lon="2.68183">
        <ele>80.89</ele>
        <time>2013-03-24T08:29:36Z</time>
      </trkpt>
      <trkpt lat="48.4048" lon="2.68147">
        <ele>80.89</ele>
        <time>2013-03-24T08:29:43Z</time>
      </trkpt>
      <trkpt lat="48.4049" lon="2.68084">
        <ele>80.89</ele>
        <time>2013-03-24T08:29:56Z</time>
      </trkpt>
      <trkpt lat="48.40499" lon="2.68014">
        <ele>81.37</ele>
        <time>2013-03-24T08:30:09Z</time>
      </trkpt>
      <trkpt lat="48.40508" lon="2.67948">
        <ele>81.37</ele>
        <time>2013-03-24T08:30:21Z</time>
      </trkpt>
      <trkpt lat="48.40522" lon="2.67857">
        <ele>81.37</ele>
        <time>2013-03-24T08:30:37Z</time>
      </trkpt>
      <trkpt lat="48.40529" lon="2.678">
        <ele>81.85</ele>
        <time>2013-03-24T08:30:48Z</time>
      </trkpt>
      <trkpt lat="48.40535" lon="2.67734">
        <ele>81.85</ele>
        <time>2013-03-24T08:31:00Z</time>
      </trkpt>
      <trkpt lat="48.4055" lon="2.67648">
        <ele>81.85</ele>
        <time>2013-03-24T08:31:14Z</time>
      </trkpt>
      <trkpt lat="48.40558" lon="2.6756">
        <ele>80.89</ele>
        <time>2013-03-24T08:31:29Z</time>
      </trkpt>
      <trkpt lat="48.40564" lon="2.67473">
        <ele>81.85</ele>
        <time>2013-03-24T08:31:44Z</time>
      </trkpt>
      <trkpt lat="48.40569" lon="2.67395">
        <ele>81.85</ele>
        <time>2013-03-24T08:31:58Z</time>
      </trkpt>
      <trkpt lat="48.40576" lon="2.67324">
        <ele>82.33</ele>
        <time>2013-03-24T08:32:11Z</time>
      </trkpt>
      <trkpt lat="48.40583" lon="2.67244">
        <ele>83.77</ele>
        <time>2013-03-24T08:32:25Z</time>
      </trkpt>
      <trkpt lat="48.40588" lon="2.67201">
        <ele>84.73</ele>
        <time>2013-03-24T08:32:34Z</time>
      </trkpt>
      <trkpt lat="48.40588" lon="2.67196">
        <ele>85.21</ele>
        <time>2013-03-24T08:32:35Z</time>
      </trkpt>
      <trkpt lat="48.40588" lon="2.67192">
        <ele>85.21</ele>
        <time>2013-03-24T08:32:36Z</time>
      </trkpt>
      <trkpt lat="48.40594" lon="2.6713">
        <ele>87.14</ele>
        <time>2013-03-24T08:32:49Z</time>
      </trkpt>
      <trkpt lat="48.40599" lon="2.67074">
        <ele>90.02</ele>
        <time>2013-03-24T08:33:00Z</time>
      </trkpt>
      <trkpt lat="48.40606" lon="2.67015">
        <ele>92.42</ele>
        <time>2013-03-24T08:33:14Z</time>
      </trkpt>
      <trkpt lat="48.40616" lon="2.66943">
        <ele>93.87</ele>
        <time>2013-03-24T08:33:27Z</time>
      </trkpt>
      <trkpt lat="48.40621" lon="2.6689">
        <ele>96.75</ele>
        <time>2013-03-24T08:33:37Z</time>
      </trkpt>
      <trkpt lat="48.40623" lon="2.66841">
        <ele>95.79</ele>
        <time>2013-03-24T08:33:47Z</time>
      </trkpt>
      <trkpt lat="48.4062" lon="2.66839">
        <ele>95.79</ele>
        <time>2013-03-24T08:33:48Z</time>
      </trkpt>
      <trkpt lat="48.40616" lon="2.66837">
        <ele>95.31</ele>
        <time>2013-03-24T08:33:49Z</time>
      </trkpt>
      <trkpt lat="48.40588" lon="2.66827">
        <ele>91.46</ele>
        <time>2013-03-24T08:33:55Z</time>
      </trkpt>
      <trkpt lat="48.40573" lon="2.66823">
        <ele>90.02</ele>
        <time>2013-03-24T08:33:58Z</time>
      </trkpt>
      <trkpt lat="48.40561" lon="2.66819">
        <ele>88.58</ele>
        <time>2013-03-24T08:34:00Z</time>
      </trkpt>
      <trkpt lat="48.4055" lon="2.66816">
        <ele>87.62</ele>
        <time>2013-03-24T08:34:02Z</time>
      </trkpt>
      <trkpt lat="48.40532" lon="2.66811">
        <ele>85.21</ele>
        <time>2013-03-24T08:34:05Z</time>
      </trkpt>
      <trkpt lat="48.4051" lon="2.66804">
        <ele>83.77</ele>
        <time>2013-03-24T08:34:09Z</time>
      </trkpt>
      <trkpt lat="48.40463" lon="2.66794">
        <ele>82.33</ele>
        <time>2013-03-24T08:34:17Z</time>
      </trkpt>
      <trkpt lat="48.40385" lon="2.6678">
        <ele>80.89</ele>
        <time>2013-03-24T08:34:30Z</time>
      </trkpt>
      <trkpt lat="48.40315" lon="2.66771">
        <ele>79.45</ele>
        <time>2013-03-24T08:34:44Z</time>
      </trkpt>
      <trkpt lat="48.40246" lon="2.6676">
        <ele>78.48</ele>
        <time>2013-03-24T08:34:56Z</time>
      </trkpt>
      <trkpt lat="48.40225" lon="2.66758">
        <ele>78.48</ele>
        <time>2013-03-24T08:35:00Z</time>
      </trkpt>
      <trkpt lat="48.4022" lon="2.66757">
        <ele>78.48</ele>
        <time>2013-03-24T08:35:01Z</time>
      </trkpt>
      <trkpt lat="48.40158" lon="2.66747">
        <ele>78.97</ele>
        <time>2013-03-24T08:35:14Z</time>
      </trkpt>
      <trkpt lat="48.40107" lon="2.6674">
        <ele>78.48</ele>
        <time>2013-03-24T08:35:25Z</time>
      </trkpt>
      <trkpt lat="48.40061" lon="2.66735">
        <ele>78</ele>
        <time>2013-03-24T08:35:35Z</time>
      </trkpt>
      <trkpt lat="48.40056" lon="2.66732">
        <ele>78</ele>
        <time>2013-03-24T08:35:36Z</time>
      </trkpt>
      <trkpt lat="48.40047" lon="2.66719">
        <ele>78</ele>
        <time>2013-03-24T08:35:39Z</time>
      </trkpt>
      <trkpt lat="48.40045" lon="2.66713">
        <ele>77.52</ele>
        <time>2013-03-24T08:35:40Z</time>
      </trkpt>
      <trkpt lat="48.40041" lon="2.66702">
        <ele>78.48</ele>
        <time>2013-03-24T08:35:42Z</time>
      </trkpt>
      <trkpt lat="48.4004" lon="2.66696">
        <ele>78.48</ele>
        <time>2013-03-24T08:35:43Z</time>
      </trkpt>
      <trkpt lat="48.40038" lon="2.66632">
        <ele>78.48</ele>
        <time>2013-03-24T08:35:54Z</time>
      </trkpt>
      <trkpt lat="48.40039" lon="2.66618">
        <ele>78.48</ele>
        <time>2013-03-24T08:35:56Z</time>
      </trkpt>
      <trkpt lat="48.40043" lon="2.66558">
        <ele>78.97</ele>
        <time>2013-03-24T08:36:06Z</time>
      </trkpt>
      <trkpt lat="48.40046" lon="2.66476">
        <ele>78.97</ele>
        <time>2013-03-24T08:36:18Z</time>
      </trkpt>
      <trkpt lat="48.40047" lon="2.66422">
        <ele>79.45</ele>
        <time>2013-03-24T08:36:26Z</time>
      </trkpt>
      <trkpt lat="48.40047" lon="2.66395">
        <ele>79.45</ele>
        <time>2013-03-24T08:36:30Z</time>
      </trkpt>
      <trkpt lat="48.40053" lon="2.66299">
        <ele>79.93</ele>
        <time>2013-03-24T08:36:44Z</time>
      </trkpt>
      <trkpt lat="48.40052" lon="2.66291">
        <ele>79.93</ele>
        <time>2013-03-24T08:36:45Z</time>
      </trkpt>
      <trkpt lat="48.40053" lon="2.66285">
        <ele>79.45</ele>
        <time>2013-03-24T08:36:46Z</time>
      </trkpt>
      <trkpt lat="48.40054" lon="2.6627">
        <ele>79.45</ele>
        <time>2013-03-24T08:36:48Z</time>
      </trkpt>
      <trkpt lat="48.40055" lon="2.66262">
        <ele>79.93</ele>
        <time>2013-03-24T08:36:49Z</time>
      </trkpt>
      <trkpt lat="48.40061" lon="2.66214">
        <ele>79.93</ele>
        <time>2013-03-24T08:36:56Z</time>
      </trkpt>
      <trkpt lat="48.40059" lon="2.66206">
        <ele>80.41</ele>
        <time>2013-03-24T08:36:57Z</time>
      </trkpt>
      <trkpt lat="48.40056" lon="2.66201">
        <ele>79.93</ele>
        <time>2013-03-24T08:36:58Z</time>
      </trkpt>
      <trkpt lat="48.40053" lon="2.66196">
        <ele>80.41</ele>
        <time>2013-03-24T08:36:59Z</time>
      </trkpt>
      <trkpt lat="48.4005" lon="2.66192">
        <ele>80.41</ele>
        <time>2013-03-24T08:37:00Z</time>
      </trkpt>
      <trkpt lat="48.40047" lon="2.66189">
        <ele>80.41</ele>
        <time>2013-03-24T08:37:01Z</time>
      </trkpt>
      <trkpt lat="48.40012" lon="2.66167">
        <ele>83.77</ele>
        <time>2013-03-24T08:37:13Z</time>
      </trkpt>
      <trkpt lat="48.40009" lon="2.66166">
        <ele>84.25</ele>
        <time>2013-03-24T08:37:14Z</time>
      </trkpt>
      <trkpt lat="48.39995" lon="2.66159">
        <ele>87.14</ele>
        <time>2013-03-24T08:37:19Z</time>
      </trkpt>
      <trkpt lat="48.39964" lon="2.66147">
        <ele>90.5</ele>
        <time>2013-03-24T08:37:32Z</time>
      </trkpt>
      <trkpt lat="48.39941" lon="2.66151">
        <ele>93.39</ele>
        <time>2013-03-24T08:37:43Z</time>
      </trkpt>
      <trkpt lat="48.39934" lon="2.66154">
        <ele>94.35</ele>
        <time>2013-03-24T08:37:46Z</time>
      </trkpt>
      <trkpt lat="48.3993" lon="2.66157">
        <ele>94.83</ele>
        <time>2013-03-24T08:37:48Z</time>
      </trkpt>
      <trkpt lat="48.39913" lon="2.66164">
        <ele>98.19</ele>
        <time>2013-03-24T08:38:00Z</time>
      </trkpt>
      <trkpt lat="48.39904" lon="2.66168">
        <ele>100.6</ele>
        <time>2013-03-24T08:38:07Z</time>
      </trkpt>
      <trkpt lat="48.39893" lon="2.66167">
        <ele>101.56</ele>
        <time>2013-03-24T08:38:13Z</time>
      </trkpt>
      <trkpt lat="48.39881" lon="2.66163">
        <ele>103.48</ele>
        <time>2013-03-24T08:38:21Z</time>
      </trkpt>
      <trkpt lat="48.39866" lon="2.66156">
        <ele>106.84</ele>
        <time>2013-03-24T08:38:33Z</time>
      </trkpt>
      <trkpt lat="48.39837" lon="2.66155">
        <ele>104.92</ele>
        <time>2013-03-24T08:38:46Z</time>
      </trkpt>
      <trkpt lat="48.39821" lon="2.66156">
        <ele>99.63</ele>
        <time>2013-03-24T08:38:49Z</time>
      </trkpt>
      <trkpt lat="48.39801" lon="2.66156">
        <ele>95.31</ele>
        <time>2013-03-24T08:38:52Z</time>
      </trkpt>
      <trkpt lat="48.39773" lon="2.66149">
        <ele>90.5</ele>
        <time>2013-03-24T08:38:55Z</time>
      </trkpt>
      <trkpt lat="48.39762" lon="2.66143">
        <ele>87.62</ele>
        <time>2013-03-24T08:38:56Z</time>
      </trkpt>
      <trkpt lat="48.39752" lon="2.66136">
        <ele>87.14</ele>
        <time>2013-03-24T08:38:57Z</time>
      </trkpt>
      <trkpt lat="48.39702" lon="2.66089">
        <ele>83.77</ele>
        <time>2013-03-24T08:39:02Z</time>
      </trkpt>
      <trkpt lat="48.39694" lon="2.66078">
        <ele>83.77</ele>
        <time>2013-03-24T08:39:03Z</time>
      </trkpt>
      <trkpt lat="48.39689" lon="2.66066">
        <ele>83.77</ele>
        <time>2013-03-24T08:39:04Z</time>
      </trkpt>
      <trkpt lat="48.39652" lon="2.65969">
        <ele>80.41</ele>
        <time>2013-03-24T08:39:12Z</time>
      </trkpt>
      <trkpt lat="48.39642" lon="2.65938">
        <ele>80.89</ele>
        <time>2013-03-24T08:39:15Z</time>
      </trkpt>
      <trkpt lat="48.39641" lon="2.65928">
        <ele>80.41</ele>
        <time>2013-03-24T08:39:16Z</time>
      </trkpt>
      <trkpt lat="48.39641" lon="2.65918">
        <ele>79.93</ele>
        <time>2013-03-24T08:39:17Z</time>
      </trkpt>
      <trkpt lat="48.39641" lon="2.65908">
        <ele>79.93</ele>
        <time>2013-03-24T08:39:18Z</time>
      </trkpt>
      <trkpt lat="48.39641" lon="2.659">
        <ele>79.93</ele>
        <time>2013-03-24T08:39:19Z</time>
      </trkpt>
      <trkpt lat="48.39643" lon="2.65891">
        <ele>79.45</ele>
        <time>2013-03-24T08:39:20Z</time>
      </trkpt>
      <trkpt lat="48.39645" lon="2.65883">
        <ele>79.45</ele>
        <time>2013-03-24T08:39:21Z</time>
      </trkpt>
      <trkpt lat="48.39647" lon="2.65876">
        <ele>78.97</ele>
        <time>2013-03-24T08:39:22Z</time>
      </trkpt>
      <trkpt lat="48.39668" lon="2.65785">
        <ele>79.45</ele>
        <time>2013-03-24T08:39:36Z</time>
      </trkpt>
      <trkpt lat="48.39681" lon="2.65723">
        <ele>78.48</ele>
        <time>2013-03-24T08:39:47Z</time>
      </trkpt>
      <trkpt lat="48.39694" lon="2.65642">
        <ele>77.52</ele>
        <time>2013-03-24T08:39:59Z</time>
      </trkpt>
      <trkpt lat="48.39705" lon="2.65576">
        <ele>77.52</ele>
        <time>2013-03-24T08:40:11Z</time>
      </trkpt>
      <trkpt lat="48.39719" lon="2.6551">
        <ele>79.45</ele>
        <time>2013-03-24T08:40:25Z</time>
      </trkpt>
      <trkpt lat="48.39729" lon="2.65429">
        <ele>78.97</ele>
        <time>2013-03-24T08:40:39Z</time>
      </trkpt>
      <trkpt lat="48.39738" lon="2.65348">
        <ele>80.41</ele>
        <time>2013-03-24T08:40:53Z</time>
      </trkpt>
      <trkpt lat="48.39748" lon="2.65267">
        <ele>80.89</ele>
        <time>2013-03-24T08:41:07Z</time>
      </trkpt>
      <trkpt lat="48.39753" lon="2.65189">
        <ele>80.41</ele>
        <time>2013-03-24T08:41:18Z</time>
      </trkpt>
      <trkpt lat="48.39763" lon="2.65096">
        <ele>82.33</ele>
        <time>2013-03-24T08:41:34Z</time>
      </trkpt>
      <trkpt lat="48.39768" lon="2.65017">
        <ele>83.29</ele>
        <time>2013-03-24T08:41:47Z</time>
      </trkpt>
      <trkpt lat="48.39779" lon="2.64934">
        <ele>84.25</ele>
        <time>2013-03-24T08:42:00Z</time>
      </trkpt>
      <trkpt lat="48.39785" lon="2.6487">
        <ele>84.73</ele>
        <time>2013-03-24T08:42:12Z</time>
      </trkpt>
      <trkpt lat="48.39793" lon="2.64798">
        <ele>87.14</ele>
        <time>2013-03-24T08:42:25Z</time>
      </trkpt>
      <trkpt lat="48.39791" lon="2.64736">
        <ele>87.14</ele>
        <time>2013-03-24T08:42:37Z</time>
      </trkpt>
      <trkpt lat="48.39777" lon="2.64685">
        <ele>84.73</ele>
        <time>2013-03-24T08:42:44Z</time>
      </trkpt>
      <trkpt lat="48.39776" lon="2.64677">
        <ele>83.77</ele>
        <time>2013-03-24T08:42:45Z</time>
      </trkpt>
      <trkpt lat="48.39775" lon="2.64669">
        <ele>83.77</ele>
        <time>2013-03-24T08:42:46Z</time>
      </trkpt>
      <trkpt lat="48.39774" lon="2.64663">
        <ele>83.77</ele>
        <time>2013-03-24T08:42:47Z</time>
      </trkpt>
      <trkpt lat="48.39774" lon="2.64659">
        <ele>83.77</ele>
        <time>2013-03-24T08:42:48Z</time>
      </trkpt>
      <trkpt lat="48.39773" lon="2.64586">
        <ele>84.25</ele>
        <time>2013-03-24T08:42:59Z</time>
      </trkpt>
      <trkpt lat="48.39773" lon="2.64489">
        <ele>83.29</ele>
        <time>2013-03-24T08:43:13Z</time>
      </trkpt>
      <trkpt lat="48.39772" lon="2.64403">
        <ele>84.25</ele>
        <time>2013-03-24T08:43:27Z</time>
      </trkpt>
      <trkpt lat="48.39772" lon="2.64335">
        <ele>83.29</ele>
        <time>2013-03-24T08:43:35Z</time>
      </trkpt>
      <trkpt lat="48.39772" lon="2.64325">
        <ele>83.29</ele>
        <time>2013-03-24T08:43:36Z</time>
      </trkpt>
      <trkpt lat="48.39784" lon="2.64244">
        <ele>83.77</ele>
        <time>2013-03-24T08:43:47Z</time>
      </trkpt>
      <trkpt lat="48.39789" lon="2.64218">
        <ele>84.25</ele>
        <time>2013-03-24T08:43:51Z</time>
      </trkpt>
      <trkpt lat="48.39796" lon="2.64145">
        <ele>86.18</ele>
        <time>2013-03-24T08:44:02Z</time>
      </trkpt>
      <trkpt lat="48.39805" lon="2.64061">
        <ele>87.14</ele>
        <time>2013-03-24T08:44:16Z</time>
      </trkpt>
      <trkpt lat="48.39816" lon="2.63972">
        <ele>88.58</ele>
        <time>2013-03-24T08:44:31Z</time>
      </trkpt>
      <trkpt lat="48.39821" lon="2.639">
        <ele>89.06</ele>
        <time>2013-03-24T08:44:43Z</time>
      </trkpt>
      <trkpt lat="48.39826" lon="2.63836">
        <ele>90.5</ele>
        <time>2013-03-24T08:44:56Z</time>
      </trkpt>
      <trkpt lat="48.39819" lon="2.63762">
        <ele>92.42</ele>
        <time>2013-03-24T08:45:08Z</time>
      </trkpt>
      <trkpt lat="48.3979" lon="2.63695">
        <ele>95.31</ele>
        <time>2013-03-24T08:45:24Z</time>
      </trkpt>
      <trkpt lat="48.3977" lon="2.63658">
        <ele>98.19</ele>
        <time>2013-03-24T08:45:37Z</time>
      </trkpt>
      <trkpt lat="48.39749" lon="2.63634">
        <ele>101.56</ele>
        <time>2013-03-24T08:45:51Z</time>
      </trkpt>
      <trkpt lat="48.39724" lon="2.63646">
        <ele>103.96</ele>
        <time>2013-03-24T08:46:04Z</time>
      </trkpt>
      <trkpt lat="48.39707" lon="2.63643">
        <ele>106.36</ele>
        <time>2013-03-24T08:46:16Z</time>
      </trkpt>
      <trkpt lat="48.39697" lon="2.6363">
        <ele>108.29</ele>
        <time>2013-03-24T08:46:24Z</time>
      </trkpt>
      <trkpt lat="48.39695" lon="2.63607">
        <ele>111.17</ele>
        <time>2013-03-24T08:46:37Z</time>
      </trkpt>
      <trkpt lat="48.39694" lon="2.63604">
        <ele>111.17</ele>
        <time>2013-03-24T08:46:38Z</time>
      </trkpt>
      <trkpt lat="48.3969" lon="2.63581">
        <ele>113.09</ele>
        <time>2013-03-24T08:46:47Z</time>
      </trkpt>
      <trkpt lat="48.39677" lon="2.63546">
        <ele>115.98</ele>
        <time>2013-03-24T08:47:02Z</time>
      </trkpt>
      <trkpt lat="48.39675" lon="2.63544">
        <ele>115.98</ele>
        <time>2013-03-24T08:47:03Z</time>
      </trkpt>
      <trkpt lat="48.39673" lon="2.63543">
        <ele>115.98</ele>
        <time>2013-03-24T08:47:04Z</time>
      </trkpt>
      <trkpt lat="48.39651" lon="2.63531">
        <ele>117.9</ele>
        <time>2013-03-24T08:47:17Z</time>
      </trkpt>
      <trkpt lat="48.39627" lon="2.63526">
        <ele>119.34</ele>
        <time>2013-03-24T08:47:29Z</time>
      </trkpt>
      <trkpt lat="48.39594" lon="2.63525">
        <ele>121.26</ele>
        <time>2013-03-24T08:47:43Z</time>
      </trkpt>
      <trkpt lat="48.39562" lon="2.63526">
        <ele>122.22</ele>
        <time>2013-03-24T08:47:55Z</time>
      </trkpt>
      <trkpt lat="48.39527" lon="2.6351">
        <ele>122.71</ele>
        <time>2013-03-24T08:48:06Z</time>
      </trkpt>
      <trkpt lat="48.39511" lon="2.63477">
        <ele>123.19</ele>
        <time>2013-03-24T08:48:16Z</time>
      </trkpt>
      <trkpt lat="48.39503" lon="2.63433">
        <ele>123.67</ele>
        <time>2013-03-24T08:48:28Z</time>
      </trkpt>
      <trkpt lat="48.39494" lon="2.63381">
        <ele>124.15</ele>
        <time>2013-03-24T08:48:40Z</time>
      </trkpt>
      <trkpt lat="48.3948" lon="2.63325">
        <ele>124.15</ele>
        <time>2013-03-24T08:48:51Z</time>
      </trkpt>
      <trkpt lat="48.39467" lon="2.63269">
        <ele>124.15</ele>
        <time>2013-03-24T08:49:02Z</time>
      </trkpt>
      <trkpt lat="48.39458" lon="2.63245">
        <ele>124.15</ele>
        <time>2013-03-24T08:49:08Z</time>
      </trkpt>
      <trkpt lat="48.39457" lon="2.63242">
        <ele>124.63</ele>
        <time>2013-03-24T08:49:09Z</time>
      </trkpt>
      <trkpt lat="48.39457" lon="2.63239">
        <ele>124.15</ele>
        <time>2013-03-24T08:49:10Z</time>
      </trkpt>
      <trkpt lat="48.39442" lon="2.63175">
        <ele>124.63</ele>
        <time>2013-03-24T08:49:22Z</time>
      </trkpt>
      <trkpt lat="48.39432" lon="2.63144">
        <ele>124.63</ele>
        <time>2013-03-24T08:49:28Z</time>
      </trkpt>
      <trkpt lat="48.39428" lon="2.63141">
        <ele>124.63</ele>
        <time>2013-03-24T08:49:29Z</time>
      </trkpt>
      <trkpt lat="48.39424" lon="2.63139">
        <ele>124.63</ele>
        <time>2013-03-24T08:49:30Z</time>
      </trkpt>
      <trkpt lat="48.3942" lon="2.63138">
        <ele>124.63</ele>
        <time>2013-03-24T08:49:31Z</time>
      </trkpt>
      <trkpt lat="48.39417" lon="2.63136">
        <ele>124.63</ele>
        <time>2013-03-24T08:49:32Z</time>
      </trkpt>
      <trkpt lat="48.3937" lon="2.63135">
        <ele>122.71</ele>
        <time>2013-03-24T08:49:44Z</time>
      </trkpt>
      <trkpt lat="48.39333" lon="2.63173">
        <ele>121.26</ele>
        <time>2013-03-24T08:49:55Z</time>
      </trkpt>
      <trkpt lat="48.39332" lon="2.63201">
        <ele>119.34</ele>
        <time>2013-03-24T08:49:59Z</time>
      </trkpt>
      <trkpt lat="48.39329" lon="2.63226">
        <ele>117.42</ele>
        <time>2013-03-24T08:50:02Z</time>
      </trkpt>
      <trkpt lat="48.39326" lon="2.63267">
        <ele>115.5</ele>
        <time>2013-03-24T08:50:06Z</time>
      </trkpt>
      <trkpt lat="48.3932" lon="2.63334">
        <ele>112.13</ele>
        <time>2013-03-24T08:50:12Z</time>
      </trkpt>
      <trkpt lat="48.39315" lon="2.63392">
        <ele>108.29</ele>
        <time>2013-03-24T08:50:17Z</time>
      </trkpt>
      <trkpt lat="48.39302" lon="2.63525">
        <ele>106.36</ele>
        <time>2013-03-24T08:50:30Z</time>
      </trkpt>
      <trkpt lat="48.39297" lon="2.63546">
        <ele>104.44</ele>
        <time>2013-03-24T08:50:32Z</time>
      </trkpt>
      <trkpt lat="48.39293" lon="2.636">
        <ele>101.08</ele>
        <time>2013-03-24T08:50:37Z</time>
      </trkpt>
      <trkpt lat="48.39294" lon="2.63621">
        <ele>99.63</ele>
        <time>2013-03-24T08:50:39Z</time>
      </trkpt>
      <trkpt lat="48.39296" lon="2.63687">
        <ele>97.23</ele>
        <time>2013-03-24T08:50:45Z</time>
      </trkpt>
      <trkpt lat="48.39295" lon="2.63707">
        <ele>96.27</ele>
        <time>2013-03-24T08:50:47Z</time>
      </trkpt>
      <trkpt lat="48.39293" lon="2.63724">
        <ele>94.83</ele>
        <time>2013-03-24T08:50:49Z</time>
      </trkpt>
      <trkpt lat="48.39292" lon="2.63731">
        <ele>94.35</ele>
        <time>2013-03-24T08:50:50Z</time>
      </trkpt>
      <trkpt lat="48.3929" lon="2.63737">
        <ele>93.39</ele>
        <time>2013-03-24T08:50:51Z</time>
      </trkpt>
      <trkpt lat="48.39286" lon="2.63743">
        <ele>92.9</ele>
        <time>2013-03-24T08:50:52Z</time>
      </trkpt>
      <trkpt lat="48.39283" lon="2.6375">
        <ele>92.42</ele>
        <time>2013-03-24T08:50:53Z</time>
      </trkpt>
      <trkpt lat="48.39278" lon="2.63758">
        <ele>91.94</ele>
        <time>2013-03-24T08:50:54Z</time>
      </trkpt>
      <trkpt lat="48.39271" lon="2.63775">
        <ele>90.98</ele>
        <time>2013-03-24T08:50:56Z</time>
      </trkpt>
      <trkpt lat="48.39243" lon="2.63873">
        <ele>88.58</ele>
        <time>2013-03-24T08:51:08Z</time>
      </trkpt>
      <trkpt lat="48.39247" lon="2.63946">
        <ele>86.18</ele>
        <time>2013-03-24T08:51:17Z</time>
      </trkpt>
      <trkpt lat="48.39248" lon="2.64057">
        <ele>83.77</ele>
        <time>2013-03-24T08:51:30Z</time>
      </trkpt>
      <trkpt lat="48.39246" lon="2.64163">
        <ele>81.37</ele>
        <time>2013-03-24T08:51:44Z</time>
      </trkpt>
      <trkpt lat="48.39249" lon="2.64179">
        <ele>80.89</ele>
        <time>2013-03-24T08:51:46Z</time>
      </trkpt>
      <trkpt lat="48.3925" lon="2.64188">
        <ele>81.37</ele>
        <time>2013-03-24T08:51:47Z</time>
      </trkpt>
      <trkpt lat="48.39251" lon="2.64196">
        <ele>80.89</ele>
        <time>2013-03-24T08:51:48Z</time>
      </trkpt>
      <trkpt lat="48.39249" lon="2.64323">
        <ele>78.48</ele>
        <time>2013-03-24T08:52:04Z</time>
      </trkpt>
      <trkpt lat="48.39243" lon="2.64432">
        <ele>75.6</ele>
        <time>2013-03-24T08:52:18Z</time>
      </trkpt>
      <trkpt lat="48.3924" lon="2.64475">
        <ele>75.12</ele>
        <time>2013-03-24T08:52:23Z</time>
      </trkpt>
      <trkpt lat="48.39205" lon="2.64619">
        <ele>73.68</ele>
        <time>2013-03-24T08:52:38Z</time>
      </trkpt>
      <trkpt lat="48.39195" lon="2.64662">
        <ele>73.2</ele>
        <time>2013-03-24T08:52:43Z</time>
      </trkpt>
      <trkpt lat="48.39194" lon="2.6467">
        <ele>72.72</ele>
        <time>2013-03-24T08:52:44Z</time>
      </trkpt>
      <trkpt lat="48.39192" lon="2.64679">
        <ele>73.2</ele>
        <time>2013-03-24T08:52:45Z</time>
      </trkpt>
      <trkpt lat="48.39178" lon="2.64747">
        <ele>72.24</ele>
        <time>2013-03-24T08:52:51Z</time>
      </trkpt>
      <trkpt lat="48.39176" lon="2.64756">
        <ele>71.76</ele>
        <time>2013-03-24T08:52:52Z</time>
      </trkpt>
      <trkpt lat="48.39173" lon="2.64783">
        <ele>71.76</ele>
        <time>2013-03-24T08:52:55Z</time>
      </trkpt>
      <trkpt lat="48.39172" lon="2.6481">
        <ele>71.76</ele>
        <time>2013-03-24T08:52:58Z</time>
      </trkpt>
      <trkpt lat="48.39172" lon="2.64829">
        <ele>71.27</ele>
        <time>2013-03-24T08:53:00Z</time>
      </trkpt>
      <trkpt lat="48.39172" lon="2.64838">
        <ele>70.79</ele>
        <time>2013-03-24T08:53:01Z</time>
      </trkpt>
      <trkpt lat="48.39169" lon="2.64871">
        <ele>71.27</ele>
        <time>2013-03-24T08:53:05Z</time>
      </trkpt>
      <trkpt lat="48.39164" lon="2.64994">
        <ele>70.31</ele>
        <time>2013-03-24T08:53:21Z</time>
      </trkpt>
      <trkpt lat="48.39162" lon="2.65008">
        <ele>70.31</ele>
        <time>2013-03-24T08:53:23Z</time>
      </trkpt>
      <trkpt lat="48.39161" lon="2.65015">
        <ele>70.31</ele>
        <time>2013-03-24T08:53:24Z</time>
      </trkpt>
      <trkpt lat="48.39156" lon="2.65051">
        <ele>70.31</ele>
        <time>2013-03-24T08:53:29Z</time>
      </trkpt>
      <trkpt lat="48.39131" lon="2.65069">
        <ele>71.76</ele>
        <time>2013-03-24T08:53:39Z</time>
      </trkpt>
      <trkpt lat="48.39094" lon="2.65063">
        <ele>75.12</ele>
        <time>2013-03-24T08:53:53Z</time>
      </trkpt>
      <trkpt lat="48.39068" lon="2.65055">
        <ele>78</ele>
        <time>2013-03-24T08:54:04Z</time>
      </trkpt>
      <trkpt lat="48.39044" lon="2.65037">
        <ele>81.37</ele>
        <time>2013-03-24T08:54:17Z</time>
      </trkpt>
      <trkpt lat="48.39027" lon="2.64994">
        <ele>83.77</ele>
        <time>2013-03-24T08:54:32Z</time>
      </trkpt>
      <trkpt lat="48.39011" lon="2.64964">
        <ele>84.73</ele>
        <time>2013-03-24T08:54:43Z</time>
      </trkpt>
      <trkpt lat="48.39009" lon="2.64962">
        <ele>85.21</ele>
        <time>2013-03-24T08:54:44Z</time>
      </trkpt>
      <trkpt lat="48.38981" lon="2.64944">
        <ele>87.62</ele>
        <time>2013-03-24T08:54:57Z</time>
      </trkpt>
      <trkpt lat="48.38936" lon="2.6492">
        <ele>87.14</ele>
        <time>2013-03-24T08:55:12Z</time>
      </trkpt>
      <trkpt lat="48.38914" lon="2.64913">
        <ele>83.77</ele>
        <time>2013-03-24T08:55:17Z</time>
      </trkpt>
      <trkpt lat="48.38902" lon="2.64912">
        <ele>82.81</ele>
        <time>2013-03-24T08:55:19Z</time>
      </trkpt>
      <trkpt lat="48.38882" lon="2.64916">
        <ele>81.85</ele>
        <time>2013-03-24T08:55:22Z</time>
      </trkpt>
      <trkpt lat="48.38877" lon="2.64921">
        <ele>82.81</ele>
        <time>2013-03-24T08:55:23Z</time>
      </trkpt>
      <trkpt lat="48.38874" lon="2.64928">
        <ele>81.85</ele>
        <time>2013-03-24T08:55:24Z</time>
      </trkpt>
      <trkpt lat="48.38871" lon="2.64935">
        <ele>81.85</ele>
        <time>2013-03-24T08:55:25Z</time>
      </trkpt>
      <trkpt lat="48.38868" lon="2.64943">
        <ele>81.85</ele>
        <time>2013-03-24T08:55:26Z</time>
      </trkpt>
      <trkpt lat="48.38862" lon="2.64971">
        <ele>81.37</ele>
        <time>2013-03-24T08:55:30Z</time>
      </trkpt>
      <trkpt lat="48.38856" lon="2.65014">
        <ele>80.89</ele>
        <time>2013-03-24T08:55:36Z</time>
      </trkpt>
      <trkpt lat="48.38844" lon="2.65105">
        <ele>79.93</ele>
        <time>2013-03-24T08:55:49Z</time>
      </trkpt>
      <trkpt lat="48.38842" lon="2.65126">
        <ele>79.93</ele>
        <time>2013-03-24T08:55:52Z</time>
      </trkpt>
      <trkpt lat="48.38842" lon="2.6514">
        <ele>79.45</ele>
        <time>2013-03-24T08:55:54Z</time>
      </trkpt>
      <trkpt lat="48.38825" lon="2.6525">
        <ele>78.97</ele>
        <time>2013-03-24T08:56:08Z</time>
      </trkpt>
      <trkpt lat="48.3882" lon="2.65274">
        <ele>79.45</ele>
        <time>2013-03-24T08:56:11Z</time>
      </trkpt>
      <trkpt lat="48.38819" lon="2.65282">
        <ele>79.45</ele>
        <time>2013-03-24T08:56:12Z</time>
      </trkpt>
      <trkpt lat="48.388" lon="2.65375">
        <ele>79.45</ele>
        <time>2013-03-24T08:56:25Z</time>
      </trkpt>
      <trkpt lat="48.38783" lon="2.65483">
        <ele>78.97</ele>
        <time>2013-03-24T08:56:40Z</time>
      </trkpt>
      <trkpt lat="48.38773" lon="2.65532">
        <ele>78.97</ele>
        <time>2013-03-24T08:56:47Z</time>
      </trkpt>
      <trkpt lat="48.38768" lon="2.65551">
        <ele>78.48</ele>
        <time>2013-03-24T08:56:49Z</time>
      </trkpt>
      <trkpt lat="48.38753" lon="2.65646">
        <ele>78</ele>
        <time>2013-03-24T08:57:01Z</time>
      </trkpt>
      <trkpt lat="48.38733" lon="2.65758">
        <ele>77.52</ele>
        <time>2013-03-24T08:57:17Z</time>
      </trkpt>
      <trkpt lat="48.38726" lon="2.65775">
        <ele>77.04</ele>
        <time>2013-03-24T08:57:22Z</time>
      </trkpt>
      <trkpt lat="48.3872" lon="2.6577">
        <ele>77.52</ele>
        <time>2013-03-24T08:57:30Z</time>
      </trkpt>
      <trkpt lat="48.38728" lon="2.65773">
        <ele>77.52</ele>
        <time>2013-03-24T08:57:40Z</time>
      </trkpt>
      <trkpt lat="48.38729" lon="2.65775">
        <ele>77.04</ele>
        <time>2013-03-24T08:57:41Z</time>
      </trkpt>
      <trkpt lat="48.38729" lon="2.65777">
        <ele>77.52</ele>
        <time>2013-03-24T08:57:42Z</time>
      </trkpt>
      <trkpt lat="48.38728" lon="2.65779">
        <ele>77.52</ele>
        <time>2013-03-24T08:57:43Z</time>
      </trkpt>
      <trkpt lat="48.38728" lon="2.65781">
        <ele>77.04</ele>
        <time>2013-03-24T08:57:44Z</time>
      </trkpt>
      <trkpt lat="48.38727" lon="2.65783">
        <ele>77.04</ele>
        <time>2013-03-24T08:57:45Z</time>
      </trkpt>
      <trkpt lat="48.38721" lon="2.65778">
        <ele>77.52</ele>
        <time>2013-03-24T08:57:56Z</time>
      </trkpt>
      <trkpt lat="48.38719" lon="2.65773">
        <ele>77.52</ele>
        <time>2013-03-24T08:58:00Z</time>
      </trkpt>
      <trkpt lat="48.38718" lon="2.65772">
        <ele>77.52</ele>
        <time>2013-03-24T08:58:01Z</time>
      </trkpt>
      <trkpt lat="48.38717" lon="2.65771">
        <ele>78.48</ele>
        <time>2013-03-24T08:58:02Z</time>
      </trkpt>
      <trkpt lat="48.38715" lon="2.6577">
        <ele>78</ele>
        <time>2013-03-24T08:58:03Z</time>
      </trkpt>
      <trkpt lat="48.38714" lon="2.65768">
        <ele>78.48</ele>
        <time>2013-03-24T08:58:04Z</time>
      </trkpt>
      <trkpt lat="48.38713" lon="2.65765">
        <ele>78.48</ele>
        <time>2013-03-24T08:58:05Z</time>
      </trkpt>
      <trkpt lat="48.38712" lon="2.65763">
        <ele>78.48</ele>
        <time>2013-03-24T08:58:06Z</time>
      </trkpt>
      <trkpt lat="48.38711" lon="2.65761">
        <ele>78.97</ele>
        <time>2013-03-24T08:58:07Z</time>
      </trkpt>
      <trkpt lat="48.3871" lon="2.65758">
        <ele>78.97</ele>
        <time>2013-03-24T08:58:08Z</time>
      </trkpt>
      <trkpt lat="48.38709" lon="2.65755">
        <ele>78.97</ele>
        <time>2013-03-24T08:58:09Z</time>
      </trkpt>
      <trkpt lat="48.38709" lon="2.65753">
        <ele>79.45</ele>
        <time>2013-03-24T08:58:10Z</time>
      </trkpt>
      <trkpt lat="48.38708" lon="2.6575">
        <ele>79.45</ele>
        <time>2013-03-24T08:58:11Z</time>
      </trkpt>
      <trkpt lat="48.38693" lon="2.65707">
        <ele>81.37</ele>
        <time>2013-03-24T08:58:27Z</time>
      </trkpt>
      <trkpt lat="48.38681" lon="2.65667">
        <ele>83.29</ele>
        <time>2013-03-24T08:58:42Z</time>
      </trkpt>
      <trkpt lat="48.38666" lon="2.65629">
        <ele>86.18</ele>
        <time>2013-03-24T08:58:56Z</time>
      </trkpt>
      <trkpt lat="48.38658" lon="2.65601">
        <ele>89.54</ele>
        <time>2013-03-24T08:59:07Z</time>
      </trkpt>
      <trkpt lat="48.38652" lon="2.65577">
        <ele>92.42</ele>
        <time>2013-03-24T08:59:18Z</time>
      </trkpt>
      <trkpt lat="48.38643" lon="2.65556">
        <ele>95.79</ele>
        <time>2013-03-24T08:59:28Z</time>
      </trkpt>
      <trkpt lat="48.38637" lon="2.65535">
        <ele>98.67</ele>
        <time>2013-03-24T08:59:41Z</time>
      </trkpt>
      <trkpt lat="48.38627" lon="2.65496">
        <ele>101.56</ele>
        <time>2013-03-24T08:59:58Z</time>
      </trkpt>
      <trkpt lat="48.38611" lon="2.65465">
        <ele>103.96</ele>
        <time>2013-03-24T09:00:11Z</time>
      </trkpt>
      <trkpt lat="48.38611" lon="2.65458">
        <ele>104.44</ele>
        <time>2013-03-24T09:00:14Z</time>
      </trkpt>
      <trkpt lat="48.3861" lon="2.65456">
        <ele>104.44</ele>
        <time>2013-03-24T09:00:15Z</time>
      </trkpt>
      <trkpt lat="48.38609" lon="2.65454">
        <ele>104.44</ele>
        <time>2013-03-24T09:00:16Z</time>
      </trkpt>
      <trkpt lat="48.38608" lon="2.65452">
        <ele>104.92</ele>
        <time>2013-03-24T09:00:17Z</time>
      </trkpt>
      <trkpt lat="48.38607" lon="2.65449">
        <ele>104.92</ele>
        <time>2013-03-24T09:00:18Z</time>
      </trkpt>
      <trkpt lat="48.38607" lon="2.65446">
        <ele>105.4</ele>
        <time>2013-03-24T09:00:19Z</time>
      </trkpt>
      <trkpt lat="48.38606" lon="2.65444">
        <ele>105.4</ele>
        <time>2013-03-24T09:00:20Z</time>
      </trkpt>
      <trkpt lat="48.38599" lon="2.6542">
        <ele>106.36</ele>
        <time>2013-03-24T09:00:28Z</time>
      </trkpt>
      <trkpt lat="48.38596" lon="2.65407">
        <ele>106.36</ele>
        <time>2013-03-24T09:00:32Z</time>
      </trkpt>
      <trkpt lat="48.38594" lon="2.65405">
        <ele>106.36</ele>
        <time>2013-03-24T09:00:33Z</time>
      </trkpt>
      <trkpt lat="48.38593" lon="2.65402">
        <ele>106.36</ele>
        <time>2013-03-24T09:00:34Z</time>
      </trkpt>
      <trkpt lat="48.38592" lon="2.65399">
        <ele>106.36</ele>
        <time>2013-03-24T09:00:35Z</time>
      </trkpt>
      <trkpt lat="48.38591" lon="2.65395">
        <ele>106.84</ele>
        <time>2013-03-24T09:00:36Z</time>
      </trkpt>
      <trkpt lat="48.38577" lon="2.65351">
        <ele>107.81</ele>
        <time>2013-03-24T09:00:49Z</time>
      </trkpt>
      <trkpt lat="48.3856" lon="2.65308">
        <ele>108.29</ele>
        <time>2013-03-24T09:01:02Z</time>
      </trkpt>
      <trkpt lat="48.38547" lon="2.65254">
        <ele>109.25</ele>
        <time>2013-03-24T09:01:16Z</time>
      </trkpt>
      <trkpt lat="48.38523" lon="2.65191">
        <ele>110.21</ele>
        <time>2013-03-24T09:01:31Z</time>
      </trkpt>
      <trkpt lat="48.38518" lon="2.65179">
        <ele>110.21</ele>
        <time>2013-03-24T09:01:46Z</time>
      </trkpt>
      <trkpt lat="48.38518" lon="2.65177">
        <ele>110.21</ele>
        <time>2013-03-24T09:01:48Z</time>
      </trkpt>
      <trkpt lat="48.38518" lon="2.65175">
        <ele>109.73</ele>
        <time>2013-03-24T09:01:49Z</time>
      </trkpt>
      <trkpt lat="48.38518" lon="2.65173">
        <ele>109.73</ele>
        <time>2013-03-24T09:01:50Z</time>
      </trkpt>
      <trkpt lat="48.38518" lon="2.65171">
        <ele>109.73</ele>
        <time>2013-03-24T09:01:51Z</time>
      </trkpt>
      <trkpt lat="48.38518" lon="2.65168">
        <ele>109.73</ele>
        <time>2013-03-24T09:01:52Z</time>
      </trkpt>
      <trkpt lat="48.38518" lon="2.65165">
        <ele>109.73</ele>
        <time>2013-03-24T09:01:53Z</time>
      </trkpt>
      <trkpt lat="48.38518" lon="2.65163">
        <ele>109.73</ele>
        <time>2013-03-24T09:01:54Z</time>
      </trkpt>
      <trkpt lat="48.38516" lon="2.65102">
        <ele>109.73</ele>
        <time>2013-03-24T09:02:07Z</time>
      </trkpt>
      <trkpt lat="48.38516" lon="2.65097">
        <ele>109.73</ele>
        <time>2013-03-24T09:02:08Z</time>
      </trkpt>
      <trkpt lat="48.38516" lon="2.65092">
        <ele>109.73</ele>
        <time>2013-03-24T09:02:09Z</time>
      </trkpt>
      <trkpt lat="48.38512" lon="2.65021">
        <ele>108.29</ele>
        <time>2013-03-24T09:02:21Z</time>
      </trkpt>
      <trkpt lat="48.38511" lon="2.65">
        <ele>107.32</ele>
        <time>2013-03-24T09:02:24Z</time>
      </trkpt>
      <trkpt lat="48.38511" lon="2.64992">
        <ele>105.88</ele>
        <time>2013-03-24T09:02:25Z</time>
      </trkpt>
      <trkpt lat="48.38511" lon="2.64985">
        <ele>105.4</ele>
        <time>2013-03-24T09:02:26Z</time>
      </trkpt>
      <trkpt lat="48.38512" lon="2.64977">
        <ele>104.92</ele>
        <time>2013-03-24T09:02:27Z</time>
      </trkpt>
      <trkpt lat="48.38513" lon="2.6497">
        <ele>104.44</ele>
        <time>2013-03-24T09:02:28Z</time>
      </trkpt>
      <trkpt lat="48.38515" lon="2.64962">
        <ele>103.48</ele>
        <time>2013-03-24T09:02:29Z</time>
      </trkpt>
      <trkpt lat="48.38524" lon="2.64938">
        <ele>101.08</ele>
        <time>2013-03-24T09:02:32Z</time>
      </trkpt>
      <trkpt lat="48.38532" lon="2.64907">
        <ele>97.71</ele>
        <time>2013-03-24T09:02:35Z</time>
      </trkpt>
      <trkpt lat="48.3854" lon="2.64887">
        <ele>94.83</ele>
        <time>2013-03-24T09:02:37Z</time>
      </trkpt>
      <trkpt lat="48.38543" lon="2.64879">
        <ele>92.9</ele>
        <time>2013-03-24T09:02:38Z</time>
      </trkpt>
      <trkpt lat="48.38547" lon="2.64874">
        <ele>91.94</ele>
        <time>2013-03-24T09:02:39Z</time>
      </trkpt>
      <trkpt lat="48.38551" lon="2.6487">
        <ele>91.46</ele>
        <time>2013-03-24T09:02:40Z</time>
      </trkpt>
      <trkpt lat="48.38554" lon="2.64869">
        <ele>90.98</ele>
        <time>2013-03-24T09:02:41Z</time>
      </trkpt>
      <trkpt lat="48.38556" lon="2.6487">
        <ele>90.5</ele>
        <time>2013-03-24T09:02:42Z</time>
      </trkpt>
      <trkpt lat="48.38558" lon="2.64871">
        <ele>90.5</ele>
        <time>2013-03-24T09:02:43Z</time>
      </trkpt>
      <trkpt lat="48.38559" lon="2.64873">
        <ele>90.5</ele>
        <time>2013-03-24T09:02:44Z</time>
      </trkpt>
      <trkpt lat="48.38561" lon="2.64874">
        <ele>90.5</ele>
        <time>2013-03-24T09:02:45Z</time>
      </trkpt>
      <trkpt lat="48.38562" lon="2.64876">
        <ele>90.5</ele>
        <time>2013-03-24T09:02:46Z</time>
      </trkpt>
      <trkpt lat="48.38564" lon="2.64877">
        <ele>90.5</ele>
        <time>2013-03-24T09:02:47Z</time>
      </trkpt>
      <trkpt lat="48.38565" lon="2.64878">
        <ele>90.5</ele>
        <time>2013-03-24T09:02:48Z</time>
      </trkpt>
      <trkpt lat="48.38594" lon="2.64911">
        <ele>89.54</ele>
        <time>2013-03-24T09:03:02Z</time>
      </trkpt>
      <trkpt lat="48.38628" lon="2.64953">
        <ele>88.1</ele>
        <time>2013-03-24T09:03:19Z</time>
      </trkpt>
      <trkpt lat="48.38678" lon="2.65015">
        <ele>85.21</ele>
        <time>2013-03-24T09:03:34Z</time>
      </trkpt>
      <trkpt lat="48.38689" lon="2.65033">
        <ele>85.21</ele>
        <time>2013-03-24T09:03:40Z</time>
      </trkpt>
      <trkpt lat="48.38698" lon="2.6503">
        <ele>85.21</ele>
        <time>2013-03-24T09:03:53Z</time>
      </trkpt>
      <trkpt lat="48.38701" lon="2.65029">
        <ele>85.21</ele>
        <time>2013-03-24T09:04:09Z</time>
      </trkpt>
      <trkpt lat="48.38701" lon="2.65029">
        <ele>84.73</ele>
        <time>2013-03-24T09:04:34Z</time>
      </trkpt>
      <trkpt lat="48.387" lon="2.65028">
        <ele>85.21</ele>
        <time>2013-03-24T09:05:01Z</time>
      </trkpt>
      <trkpt lat="48.387" lon="2.65028">
        <ele>85.69</ele>
        <time>2013-03-24T09:05:20Z</time>
      </trkpt>
      <trkpt lat="48.38697" lon="2.65024">
        <ele>85.69</ele>
        <time>2013-03-24T09:05:30Z</time>
      </trkpt>
      <trkpt lat="48.38691" lon="2.64972">
        <ele>85.21</ele>
        <time>2013-03-24T09:05:42Z</time>
      </trkpt>
      <trkpt lat="48.38684" lon="2.64899">
        <ele>84.73</ele>
        <time>2013-03-24T09:05:55Z</time>
      </trkpt>
      <trkpt lat="48.38676" lon="2.64825">
        <ele>84.25</ele>
        <time>2013-03-24T09:06:07Z</time>
      </trkpt>
      <trkpt lat="48.38667" lon="2.64727">
        <ele>82.81</ele>
        <time>2013-03-24T09:06:20Z</time>
      </trkpt>
      <trkpt lat="48.38664" lon="2.64693">
        <ele>82.81</ele>
        <time>2013-03-24T09:06:25Z</time>
      </trkpt>
      <trkpt lat="48.38663" lon="2.64687">
        <ele>83.29</ele>
        <time>2013-03-24T09:06:26Z</time>
      </trkpt>
      <trkpt lat="48.38651" lon="2.64611">
        <ele>84.73</ele>
        <time>2013-03-24T09:06:40Z</time>
      </trkpt>
      <trkpt lat="48.38653" lon="2.6458">
        <ele>85.69</ele>
        <time>2013-03-24T09:06:47Z</time>
      </trkpt>
      <trkpt lat="48.38656" lon="2.6458">
        <ele>85.69</ele>
        <time>2013-03-24T09:06:48Z</time>
      </trkpt>
      <trkpt lat="48.38658" lon="2.6458">
        <ele>86.18</ele>
        <time>2013-03-24T09:06:49Z</time>
      </trkpt>
      <trkpt lat="48.3866" lon="2.64581">
        <ele>86.18</ele>
        <time>2013-03-24T09:06:50Z</time>
      </trkpt>
      <trkpt lat="48.38663" lon="2.64581">
        <ele>86.66</ele>
        <time>2013-03-24T09:06:51Z</time>
      </trkpt>
      <trkpt lat="48.38665" lon="2.64582">
        <ele>86.18</ele>
        <time>2013-03-24T09:06:52Z</time>
      </trkpt>
      <trkpt lat="48.38667" lon="2.64582">
        <ele>86.66</ele>
        <time>2013-03-24T09:06:53Z</time>
      </trkpt>
      <trkpt lat="48.38669" lon="2.64582">
        <ele>86.66</ele>
        <time>2013-03-24T09:06:54Z</time>
      </trkpt>
      <trkpt lat="48.38672" lon="2.64583">
        <ele>86.66</ele>
        <time>2013-03-24T09:06:55Z</time>
      </trkpt>
      <trkpt lat="48.38674" lon="2.64585">
        <ele>86.66</ele>
        <time>2013-03-24T09:06:56Z</time>
      </trkpt>
      <trkpt lat="48.38726" lon="2.64614">
        <ele>87.14</ele>
        <time>2013-03-24T09:07:11Z</time>
      </trkpt>
      <trkpt lat="48.38775" lon="2.64637">
        <ele>86.18</ele>
        <time>2013-03-24T09:07:21Z</time>
      </trkpt>
      <trkpt lat="48.3878" lon="2.64639">
        <ele>86.18</ele>
        <time>2013-03-24T09:07:22Z</time>
      </trkpt>
      <trkpt lat="48.3882" lon="2.64655">
        <ele>86.18</ele>
        <time>2013-03-24T09:07:31Z</time>
      </trkpt>
      <trkpt lat="48.38853" lon="2.64668">
        <ele>85.69</ele>
        <time>2013-03-24T09:07:38Z</time>
      </trkpt>
      <trkpt lat="48.38856" lon="2.64668">
        <ele>85.69</ele>
        <time>2013-03-24T09:07:39Z</time>
      </trkpt>
      <trkpt lat="48.38859" lon="2.64666">
        <ele>86.18</ele>
        <time>2013-03-24T09:07:40Z</time>
      </trkpt>
      <trkpt lat="48.38861" lon="2.64664">
        <ele>86.18</ele>
        <time>2013-03-24T09:07:41Z</time>
      </trkpt>
      <trkpt lat="48.38863" lon="2.64661">
        <ele>86.18</ele>
        <time>2013-03-24T09:07:42Z</time>
      </trkpt>
      <trkpt lat="48.38863" lon="2.64657">
        <ele>86.18</ele>
        <time>2013-03-24T09:07:43Z</time>
      </trkpt>
      <trkpt lat="48.38862" lon="2.64653">
        <ele>86.18</ele>
        <time>2013-03-24T09:07:44Z</time>
      </trkpt>
      <trkpt lat="48.3886" lon="2.6465">
        <ele>86.18</ele>
        <time>2013-03-24T09:07:45Z</time>
      </trkpt>
      <trkpt lat="48.38859" lon="2.64647">
        <ele>86.18</ele>
        <time>2013-03-24T09:07:46Z</time>
      </trkpt>
      <trkpt lat="48.38857" lon="2.64644">
        <ele>86.18</ele>
        <time>2013-03-24T09:07:47Z</time>
      </trkpt>
      <trkpt lat="48.38856" lon="2.6464">
        <ele>86.66</ele>
        <time>2013-03-24T09:07:48Z</time>
      </trkpt>
      <trkpt lat="48.38856" lon="2.64635">
        <ele>86.66</ele>
        <time>2013-03-24T09:07:49Z</time>
      </trkpt>
      <trkpt lat="48.38856" lon="2.64631">
        <ele>87.14</ele>
        <time>2013-03-24T09:07:50Z</time>
      </trkpt>
      <trkpt lat="48.38855" lon="2.64626">
        <ele>87.14</ele>
        <time>2013-03-24T09:07:51Z</time>
      </trkpt>
      <trkpt lat="48.38854" lon="2.64622">
        <ele>87.14</ele>
        <time>2013-03-24T09:07:52Z</time>
      </trkpt>
      <trkpt lat="48.38853" lon="2.64617">
        <ele>87.14</ele>
        <time>2013-03-24T09:07:53Z</time>
      </trkpt>
      <trkpt lat="48.38851" lon="2.64613">
        <ele>87.62</ele>
        <time>2013-03-24T09:07:54Z</time>
      </trkpt>
      <trkpt lat="48.38843" lon="2.6455">
        <ele>89.54</ele>
        <time>2013-03-24T09:08:09Z</time>
      </trkpt>
      <trkpt lat="48.38841" lon="2.64532">
        <ele>90.02</ele>
        <time>2013-03-24T09:08:14Z</time>
      </trkpt>
      <trkpt lat="48.3883" lon="2.64469">
        <ele>92.42</ele>
        <time>2013-03-24T09:08:30Z</time>
      </trkpt>
      <trkpt lat="48.38826" lon="2.64407">
        <ele>95.79</ele>
        <time>2013-03-24T09:08:47Z</time>
      </trkpt>
      <trkpt lat="48.3882" lon="2.64361">
        <ele>98.67</ele>
        <time>2013-03-24T09:09:01Z</time>
      </trkpt>
      <trkpt lat="48.38817" lon="2.6433">
        <ele>101.56</ele>
        <time>2013-03-24T09:09:12Z</time>
      </trkpt>
      <trkpt lat="48.3881" lon="2.64291">
        <ele>104.92</ele>
        <time>2013-03-24T09:09:24Z</time>
      </trkpt>
      <trkpt lat="48.38806" lon="2.64258">
        <ele>107.81</ele>
        <time>2013-03-24T09:09:37Z</time>
      </trkpt>
      <trkpt lat="48.38807" lon="2.64246">
        <ele>109.25</ele>
        <time>2013-03-24T09:09:43Z</time>
      </trkpt>
      <trkpt lat="48.38807" lon="2.64243">
        <ele>108.77</ele>
        <time>2013-03-24T09:09:44Z</time>
      </trkpt>
      <trkpt lat="48.38812" lon="2.64205">
        <ele>110.21</ele>
        <time>2013-03-24T09:09:57Z</time>
      </trkpt>
      <trkpt lat="48.3883" lon="2.64161">
        <ele>111.65</ele>
        <time>2013-03-24T09:10:13Z</time>
      </trkpt>
      <trkpt lat="48.38851" lon="2.64123">
        <ele>112.13</ele>
        <time>2013-03-24T09:10:27Z</time>
      </trkpt>
      <trkpt lat="48.38861" lon="2.64093">
        <ele>112.13</ele>
        <time>2013-03-24T09:10:34Z</time>
      </trkpt>
      <trkpt lat="48.3886" lon="2.64044">
        <ele>112.61</ele>
        <time>2013-03-24T09:10:48Z</time>
      </trkpt>
      <trkpt lat="48.38854" lon="2.63997">
        <ele>113.09</ele>
        <time>2013-03-24T09:11:00Z</time>
      </trkpt>
      <trkpt lat="48.38847" lon="2.63937">
        <ele>113.57</ele>
        <time>2013-03-24T09:11:14Z</time>
      </trkpt>
      <trkpt lat="48.38842" lon="2.6388">
        <ele>114.05</ele>
        <time>2013-03-24T09:11:27Z</time>
      </trkpt>
      <trkpt lat="48.38836" lon="2.63814">
        <ele>114.05</ele>
        <time>2013-03-24T09:11:42Z</time>
      </trkpt>
      <trkpt lat="48.38827" lon="2.63753">
        <ele>114.05</ele>
        <time>2013-03-24T09:11:56Z</time>
      </trkpt>
      <trkpt lat="48.38815" lon="2.63741">
        <ele>113.57</ele>
        <time>2013-03-24T09:12:01Z</time>
      </trkpt>
      <trkpt lat="48.38786" lon="2.63734">
        <ele>111.65</ele>
        <time>2013-03-24T09:12:08Z</time>
      </trkpt>
      <trkpt lat="48.3877" lon="2.6373">
        <ele>109.73</ele>
        <time>2013-03-24T09:12:11Z</time>
      </trkpt>
      <trkpt lat="48.38751" lon="2.63723">
        <ele>105.4</ele>
        <time>2013-03-24T09:12:14Z</time>
      </trkpt>
      <trkpt lat="48.38744" lon="2.63721">
        <ele>103.48</ele>
        <time>2013-03-24T09:12:15Z</time>
      </trkpt>
      <trkpt lat="48.38736" lon="2.6372">
        <ele>103.96</ele>
        <time>2013-03-24T09:12:16Z</time>
      </trkpt>
      <trkpt lat="48.38723" lon="2.6372">
        <ele>105.4</ele>
        <time>2013-03-24T09:12:18Z</time>
      </trkpt>
      <trkpt lat="48.38712" lon="2.6372">
        <ele>106.84</ele>
        <time>2013-03-24T09:12:20Z</time>
      </trkpt>
      <trkpt lat="48.38679" lon="2.63715">
        <ele>109.73</ele>
        <time>2013-03-24T09:12:27Z</time>
      </trkpt>
      <trkpt lat="48.38667" lon="2.63717">
        <ele>111.17</ele>
        <time>2013-03-24T09:12:37Z</time>
      </trkpt>
      <trkpt lat="48.38639" lon="2.63711">
        <ele>112.13</ele>
        <time>2013-03-24T09:12:50Z</time>
      </trkpt>
      <trkpt lat="48.38606" lon="2.63705">
        <ele>114.05</ele>
        <time>2013-03-24T09:13:03Z</time>
      </trkpt>
      <trkpt lat="48.38584" lon="2.63701">
        <ele>114.53</ele>
        <time>2013-03-24T09:13:13Z</time>
      </trkpt>
      <trkpt lat="48.38583" lon="2.637">
        <ele>114.53</ele>
        <time>2013-03-24T09:13:14Z</time>
      </trkpt>
      <trkpt lat="48.38581" lon="2.63692">
        <ele>114.53</ele>
        <time>2013-03-24T09:13:19Z</time>
      </trkpt>
      <trkpt lat="48.38579" lon="2.63646">
        <ele>115.5</ele>
        <time>2013-03-24T09:13:31Z</time>
      </trkpt>
      <trkpt lat="48.38581" lon="2.63598">
        <ele>116.46</ele>
        <time>2013-03-24T09:13:43Z</time>
      </trkpt>
      <trkpt lat="48.38575" lon="2.63522">
        <ele>117.42</ele>
        <time>2013-03-24T09:13:56Z</time>
      </trkpt>
      <trkpt lat="48.38571" lon="2.63448">
        <ele>117.42</ele>
        <time>2013-03-24T09:14:09Z</time>
      </trkpt>
      <trkpt lat="48.38566" lon="2.63382">
        <ele>117.9</ele>
        <time>2013-03-24T09:14:20Z</time>
      </trkpt>
      <trkpt lat="48.38556" lon="2.63299">
        <ele>117.42</ele>
        <time>2013-03-24T09:14:33Z</time>
      </trkpt>
      <trkpt lat="48.3855" lon="2.63206">
        <ele>117.42</ele>
        <time>2013-03-24T09:14:47Z</time>
      </trkpt>
      <trkpt lat="48.3855" lon="2.63113">
        <ele>117.42</ele>
        <time>2013-03-24T09:15:03Z</time>
      </trkpt>
      <trkpt lat="48.3855" lon="2.63103">
        <ele>117.42</ele>
        <time>2013-03-24T09:15:05Z</time>
      </trkpt>
      <trkpt lat="48.3855" lon="2.63098">
        <ele>117.42</ele>
        <time>2013-03-24T09:15:06Z</time>
      </trkpt>
      <trkpt lat="48.38549" lon="2.63093">
        <ele>117.42</ele>
        <time>2013-03-24T09:15:07Z</time>
      </trkpt>
      <trkpt lat="48.38548" lon="2.6309">
        <ele>117.9</ele>
        <time>2013-03-24T09:15:08Z</time>
      </trkpt>
      <trkpt lat="48.38545" lon="2.63087">
        <ele>117.9</ele>
        <time>2013-03-24T09:15:09Z</time>
      </trkpt>
      <trkpt lat="48.38542" lon="2.63084">
        <ele>117.9</ele>
        <time>2013-03-24T09:15:10Z</time>
      </trkpt>
      <trkpt lat="48.38522" lon="2.63049">
        <ele>117.9</ele>
        <time>2013-03-24T09:15:24Z</time>
      </trkpt>
      <trkpt lat="48.38523" lon="2.6304">
        <ele>117.9</ele>
        <time>2013-03-24T09:15:29Z</time>
      </trkpt>
      <trkpt lat="48.38524" lon="2.63025">
        <ele>118.38</ele>
        <time>2013-03-24T09:15:35Z</time>
      </trkpt>
      <trkpt lat="48.38524" lon="2.63022">
        <ele>118.38</ele>
        <time>2013-03-24T09:15:36Z</time>
      </trkpt>
      <trkpt lat="48.38524" lon="2.63019">
        <ele>118.38</ele>
        <time>2013-03-24T09:15:37Z</time>
      </trkpt>
      <trkpt lat="48.38524" lon="2.63016">
        <ele>118.38</ele>
        <time>2013-03-24T09:15:38Z</time>
      </trkpt>
      <trkpt lat="48.38523" lon="2.63012">
        <ele>118.38</ele>
        <time>2013-03-24T09:15:39Z</time>
      </trkpt>
      <trkpt lat="48.38523" lon="2.63008">
        <ele>118.38</ele>
        <time>2013-03-24T09:15:40Z</time>
      </trkpt>
      <trkpt lat="48.385" lon="2.62917">
        <ele>118.38</ele>
        <time>2013-03-24T09:15:56Z</time>
      </trkpt>
      <trkpt lat="48.38476" lon="2.62842">
        <ele>119.34</ele>
        <time>2013-03-24T09:16:10Z</time>
      </trkpt>
      <trkpt lat="48.38448" lon="2.62766">
        <ele>119.82</ele>
        <time>2013-03-24T09:16:25Z</time>
      </trkpt>
      <trkpt lat="48.38425" lon="2.62688">
        <ele>119.82</ele>
        <time>2013-03-24T09:16:39Z</time>
      </trkpt>
      <trkpt lat="48.38401" lon="2.62632">
        <ele>119.82</ele>
        <time>2013-03-24T09:16:50Z</time>
      </trkpt>
      <trkpt lat="48.38374" lon="2.62563">
        <ele>119.34</ele>
        <time>2013-03-24T09:17:04Z</time>
      </trkpt>
      <trkpt lat="48.3835" lon="2.62476">
        <ele>119.34</ele>
        <time>2013-03-24T09:17:18Z</time>
      </trkpt>
      <trkpt lat="48.38325" lon="2.62389">
        <ele>118.38</ele>
        <time>2013-03-24T09:17:31Z</time>
      </trkpt>
      <trkpt lat="48.38298" lon="2.62321">
        <ele>118.38</ele>
        <time>2013-03-24T09:17:43Z</time>
      </trkpt>
      <trkpt lat="48.38278" lon="2.62271">
        <ele>117.9</ele>
        <time>2013-03-24T09:17:54Z</time>
      </trkpt>
      <trkpt lat="48.38238" lon="2.62147">
        <ele>116.94</ele>
        <time>2013-03-24T09:18:09Z</time>
      </trkpt>
      <trkpt lat="48.38205" lon="2.62044">
        <ele>115.98</ele>
        <time>2013-03-24T09:18:25Z</time>
      </trkpt>
      <trkpt lat="48.3818" lon="2.61956">
        <ele>115.5</ele>
        <time>2013-03-24T09:18:40Z</time>
      </trkpt>
      <trkpt lat="48.3816" lon="2.61899">
        <ele>115.5</ele>
        <time>2013-03-24T09:18:52Z</time>
      </trkpt>
      <trkpt lat="48.38155" lon="2.6182">
        <ele>115.01</ele>
        <time>2013-03-24T09:19:05Z</time>
      </trkpt>
      <trkpt lat="48.3815" lon="2.61753">
        <ele>115.01</ele>
        <time>2013-03-24T09:19:17Z</time>
      </trkpt>
      <trkpt lat="48.3815" lon="2.61682">
        <ele>115.01</ele>
        <time>2013-03-24T09:19:30Z</time>
      </trkpt>
      <trkpt lat="48.38151" lon="2.61562">
        <ele>115.01</ele>
        <time>2013-03-24T09:19:46Z</time>
      </trkpt>
      <trkpt lat="48.38148" lon="2.6147">
        <ele>115.5</ele>
        <time>2013-03-24T09:20:00Z</time>
      </trkpt>
      <trkpt lat="48.38149" lon="2.614">
        <ele>115.98</ele>
        <time>2013-03-24T09:20:12Z</time>
      </trkpt>
      <trkpt lat="48.38143" lon="2.61311">
        <ele>115.98</ele>
        <time>2013-03-24T09:20:26Z</time>
      </trkpt>
      <trkpt lat="48.38144" lon="2.61252">
        <ele>116.94</ele>
        <time>2013-03-24T09:20:37Z</time>
      </trkpt>
      <trkpt lat="48.38141" lon="2.61172">
        <ele>117.42</ele>
        <time>2013-03-24T09:20:53Z</time>
      </trkpt>
      <trkpt lat="48.38133" lon="2.61098">
        <ele>116.94</ele>
        <time>2013-03-24T09:21:06Z</time>
      </trkpt>
      <trkpt lat="48.38099" lon="2.61047">
        <ele>116.94</ele>
        <time>2013-03-24T09:21:17Z</time>
      </trkpt>
      <trkpt lat="48.38056" lon="2.61004">
        <ele>117.42</ele>
        <time>2013-03-24T09:21:30Z</time>
      </trkpt>
      <trkpt lat="48.38015" lon="2.60954">
        <ele>116.94</ele>
        <time>2013-03-24T09:21:42Z</time>
      </trkpt>
      <trkpt lat="48.37976" lon="2.60902">
        <ele>116.94</ele>
        <time>2013-03-24T09:21:55Z</time>
      </trkpt>
      <trkpt lat="48.37926" lon="2.60845">
        <ele>116.94</ele>
        <time>2013-03-24T09:22:10Z</time>
      </trkpt>
      <trkpt lat="48.37872" lon="2.60789">
        <ele>116.94</ele>
        <time>2013-03-24T09:22:24Z</time>
      </trkpt>
      <trkpt lat="48.37852" lon="2.60757">
        <ele>116.46</ele>
        <time>2013-03-24T09:22:30Z</time>
      </trkpt>
      <trkpt lat="48.37844" lon="2.60746">
        <ele>116.46</ele>
        <time>2013-03-24T09:22:32Z</time>
      </trkpt>
      <trkpt lat="48.37784" lon="2.60664">
        <ele>115.98</ele>
        <time>2013-03-24T09:22:48Z</time>
      </trkpt>
      <trkpt lat="48.37733" lon="2.60598">
        <ele>115.5</ele>
        <time>2013-03-24T09:23:01Z</time>
      </trkpt>
      <trkpt lat="48.37688" lon="2.60542">
        <ele>114.53</ele>
        <time>2013-03-24T09:23:13Z</time>
      </trkpt>
      <trkpt lat="48.37635" lon="2.60475">
        <ele>114.05</ele>
        <time>2013-03-24T09:23:27Z</time>
      </trkpt>
      <trkpt lat="48.37591" lon="2.60429">
        <ele>113.57</ele>
        <time>2013-03-24T09:23:37Z</time>
      </trkpt>
      <trkpt lat="48.37584" lon="2.60419">
        <ele>113.57</ele>
        <time>2013-03-24T09:23:39Z</time>
      </trkpt>
      <trkpt lat="48.37543" lon="2.60363">
        <ele>113.57</ele>
        <time>2013-03-24T09:23:52Z</time>
      </trkpt>
      <trkpt lat="48.37542" lon="2.60357">
        <ele>113.57</ele>
        <time>2013-03-24T09:23:53Z</time>
      </trkpt>
      <trkpt lat="48.37541" lon="2.6035">
        <ele>113.57</ele>
        <time>2013-03-24T09:23:54Z</time>
      </trkpt>
      <trkpt lat="48.3754" lon="2.60335">
        <ele>114.05</ele>
        <time>2013-03-24T09:23:56Z</time>
      </trkpt>
      <trkpt lat="48.37539" lon="2.6021">
        <ele>115.5</ele>
        <time>2013-03-24T09:24:11Z</time>
      </trkpt>
      <trkpt lat="48.37538" lon="2.60079">
        <ele>115.5</ele>
        <time>2013-03-24T09:24:27Z</time>
      </trkpt>
      <trkpt lat="48.37533" lon="2.59968">
        <ele>115.5</ele>
        <time>2013-03-24T09:24:40Z</time>
      </trkpt>
      <trkpt lat="48.37534" lon="2.59922">
        <ele>116.46</ele>
        <time>2013-03-24T09:24:46Z</time>
      </trkpt>
      <trkpt lat="48.37533" lon="2.59908">
        <ele>116.94</ele>
        <time>2013-03-24T09:24:48Z</time>
      </trkpt>
      <trkpt lat="48.37534" lon="2.59902">
        <ele>117.42</ele>
        <time>2013-03-24T09:24:49Z</time>
      </trkpt>
      <trkpt lat="48.37534" lon="2.59895">
        <ele>117.9</ele>
        <time>2013-03-24T09:24:50Z</time>
      </trkpt>
      <trkpt lat="48.37533" lon="2.59875">
        <ele>117.9</ele>
        <time>2013-03-24T09:24:53Z</time>
      </trkpt>
      <trkpt lat="48.37534" lon="2.59841">
        <ele>118.86</ele>
        <time>2013-03-24T09:24:58Z</time>
      </trkpt>
      <trkpt lat="48.37534" lon="2.59834">
        <ele>118.38</ele>
        <time>2013-03-24T09:24:59Z</time>
      </trkpt>
      <trkpt lat="48.37533" lon="2.59827">
        <ele>118.86</ele>
        <time>2013-03-24T09:25:00Z</time>
      </trkpt>
      <trkpt lat="48.37534" lon="2.59791">
        <ele>119.34</ele>
        <time>2013-03-24T09:25:05Z</time>
      </trkpt>
      <trkpt lat="48.37534" lon="2.59778">
        <ele>118.86</ele>
        <time>2013-03-24T09:25:07Z</time>
      </trkpt>
      <trkpt lat="48.37534" lon="2.59771">
        <ele>118.86</ele>
        <time>2013-03-24T09:25:08Z</time>
      </trkpt>
      <trkpt lat="48.37533" lon="2.59764">
        <ele>119.34</ele>
        <time>2013-03-24T09:25:09Z</time>
      </trkpt>
      <trkpt lat="48.37533" lon="2.59688">
        <ele>118.86</ele>
        <time>2013-03-24T09:25:20Z</time>
      </trkpt>
      <trkpt lat="48.37534" lon="2.59646">
        <ele>118.86</ele>
        <time>2013-03-24T09:25:26Z</time>
      </trkpt>
      <trkpt lat="48.37533" lon="2.59596">
        <ele>118.86</ele>
        <time>2013-03-24T09:25:33Z</time>
      </trkpt>
      <trkpt lat="48.37533" lon="2.59589">
        <ele>118.86</ele>
        <time>2013-03-24T09:25:34Z</time>
      </trkpt>
      <trkpt lat="48.37538" lon="2.59492">
        <ele>120.3</ele>
        <time>2013-03-24T09:25:50Z</time>
      </trkpt>
      <trkpt lat="48.37542" lon="2.59471">
        <ele>120.3</ele>
        <time>2013-03-24T09:25:53Z</time>
      </trkpt>
      <trkpt lat="48.37571" lon="2.59423">
        <ele>118.86</ele>
        <time>2013-03-24T09:26:04Z</time>
      </trkpt>
      <trkpt lat="48.37617" lon="2.59382">
        <ele>117.9</ele>
        <time>2013-03-24T09:26:16Z</time>
      </trkpt>
      <trkpt lat="48.37659" lon="2.59339">
        <ele>117.42</ele>
        <time>2013-03-24T09:26:27Z</time>
      </trkpt>
      <trkpt lat="48.37714" lon="2.59303">
        <ele>116.94</ele>
        <time>2013-03-24T09:26:36Z</time>
      </trkpt>
      <trkpt lat="48.37718" lon="2.59299">
        <ele>116.94</ele>
        <time>2013-03-24T09:26:37Z</time>
      </trkpt>
      <trkpt lat="48.37723" lon="2.59296">
        <ele>116.94</ele>
        <time>2013-03-24T09:26:38Z</time>
      </trkpt>
      <trkpt lat="48.37775" lon="2.59263">
        <ele>116.46</ele>
        <time>2013-03-24T09:26:48Z</time>
      </trkpt>
      <trkpt lat="48.37779" lon="2.59259">
        <ele>116.46</ele>
        <time>2013-03-24T09:26:49Z</time>
      </trkpt>
      <trkpt lat="48.37802" lon="2.59243">
        <ele>115.5</ele>
        <time>2013-03-24T09:26:54Z</time>
      </trkpt>
      <trkpt lat="48.37829" lon="2.59225">
        <ele>115.01</ele>
        <time>2013-03-24T09:26:59Z</time>
      </trkpt>
      <trkpt lat="48.37913" lon="2.59164">
        <ele>113.57</ele>
        <time>2013-03-24T09:27:14Z</time>
      </trkpt>
      <trkpt lat="48.37978" lon="2.59107">
        <ele>111.17</ele>
        <time>2013-03-24T09:27:27Z</time>
      </trkpt>
      <trkpt lat="48.37989" lon="2.59103">
        <ele>110.21</ele>
        <time>2013-03-24T09:27:30Z</time>
      </trkpt>
      <trkpt lat="48.37992" lon="2.59106">
        <ele>110.21</ele>
        <time>2013-03-24T09:27:31Z</time>
      </trkpt>
      <trkpt lat="48.37995" lon="2.5911">
        <ele>110.69</ele>
        <time>2013-03-24T09:27:32Z</time>
      </trkpt>
      <trkpt lat="48.37996" lon="2.59116">
        <ele>110.69</ele>
        <time>2013-03-24T09:27:33Z</time>
      </trkpt>
      <trkpt lat="48.37998" lon="2.59122">
        <ele>110.69</ele>
        <time>2013-03-24T09:27:34Z</time>
      </trkpt>
      <trkpt lat="48.37998" lon="2.59127">
        <ele>110.69</ele>
        <time>2013-03-24T09:27:35Z</time>
      </trkpt>
      <trkpt lat="48.37999" lon="2.59133">
        <ele>111.17</ele>
        <time>2013-03-24T09:27:36Z</time>
      </trkpt>
      <trkpt lat="48.37999" lon="2.59139">
        <ele>111.17</ele>
        <time>2013-03-24T09:27:37Z</time>
      </trkpt>
      <trkpt lat="48.37998" lon="2.59144">
        <ele>111.17</ele>
        <time>2013-03-24T09:27:38Z</time>
      </trkpt>
      <trkpt lat="48.37999" lon="2.59204">
        <ele>111.17</ele>
        <time>2013-03-24T09:27:47Z</time>
      </trkpt>
      <trkpt lat="48.38001" lon="2.59272">
        <ele>113.09</ele>
        <time>2013-03-24T09:27:59Z</time>
      </trkpt>
      <trkpt lat="48.37996" lon="2.59346">
        <ele>113.09</ele>
        <time>2013-03-24T09:28:12Z</time>
      </trkpt>
      <trkpt lat="48.37994" lon="2.59423">
        <ele>113.57</ele>
        <time>2013-03-24T09:28:24Z</time>
      </trkpt>
      <trkpt lat="48.38006" lon="2.5952">
        <ele>114.05</ele>
        <time>2013-03-24T09:28:36Z</time>
      </trkpt>
      <trkpt lat="48.3801" lon="2.59598">
        <ele>113.57</ele>
        <time>2013-03-24T09:28:47Z</time>
      </trkpt>
      <trkpt lat="48.38018" lon="2.59607">
        <ele>113.09</ele>
        <time>2013-03-24T09:28:50Z</time>
      </trkpt>
      <trkpt lat="48.38031" lon="2.59614">
        <ele>113.57</ele>
        <time>2013-03-24T09:28:53Z</time>
      </trkpt>
      <trkpt lat="48.3804" lon="2.59619">
        <ele>113.57</ele>
        <time>2013-03-24T09:28:55Z</time>
      </trkpt>
      <trkpt lat="48.38079" lon="2.59617">
        <ele>114.05</ele>
        <time>2013-03-24T09:29:03Z</time>
      </trkpt>
      <trkpt lat="48.38083" lon="2.59613">
        <ele>114.05</ele>
        <time>2013-03-24T09:29:04Z</time>
      </trkpt>
      <trkpt lat="48.38118" lon="2.59571">
        <ele>114.05</ele>
        <time>2013-03-24T09:29:16Z</time>
      </trkpt>
      <trkpt lat="48.38156" lon="2.59511">
        <ele>115.01</ele>
        <time>2013-03-24T09:29:30Z</time>
      </trkpt>
      <trkpt lat="48.38201" lon="2.59451">
        <ele>115.01</ele>
        <time>2013-03-24T09:29:45Z</time>
      </trkpt>
      <trkpt lat="48.38238" lon="2.59406">
        <ele>115.01</ele>
        <time>2013-03-24T09:29:57Z</time>
      </trkpt>
      <trkpt lat="48.38296" lon="2.59317">
        <ele>114.05</ele>
        <time>2013-03-24T09:30:11Z</time>
      </trkpt>
      <trkpt lat="48.38351" lon="2.59239">
        <ele>112.13</ele>
        <time>2013-03-24T09:30:25Z</time>
      </trkpt>
      <trkpt lat="48.38375" lon="2.59204">
        <ele>108.77</ele>
        <time>2013-03-24T09:30:31Z</time>
      </trkpt>
      <trkpt lat="48.38398" lon="2.59174">
        <ele>104.92</ele>
        <time>2013-03-24T09:30:36Z</time>
      </trkpt>
      <trkpt lat="48.38407" lon="2.59169">
        <ele>104.44</ele>
        <time>2013-03-24T09:30:37Z</time>
      </trkpt>
      <trkpt lat="48.38413" lon="2.59166">
        <ele>103.96</ele>
        <time>2013-03-24T09:30:38Z</time>
      </trkpt>
      <trkpt lat="48.38429" lon="2.5916">
        <ele>102.52</ele>
        <time>2013-03-24T09:30:40Z</time>
      </trkpt>
      <trkpt lat="48.38455" lon="2.59144">
        <ele>100.6</ele>
        <time>2013-03-24T09:30:43Z</time>
      </trkpt>
      <trkpt lat="48.38462" lon="2.59136">
        <ele>100.11</ele>
        <time>2013-03-24T09:30:44Z</time>
      </trkpt>
      <trkpt lat="48.38468" lon="2.59127">
        <ele>99.15</ele>
        <time>2013-03-24T09:30:45Z</time>
      </trkpt>
      <trkpt lat="48.38478" lon="2.59107">
        <ele>97.23</ele>
        <time>2013-03-24T09:30:47Z</time>
      </trkpt>
      <trkpt lat="48.38488" lon="2.59077">
        <ele>95.31</ele>
        <time>2013-03-24T09:30:50Z</time>
      </trkpt>
      <trkpt lat="48.38492" lon="2.59058">
        <ele>92.9</ele>
        <time>2013-03-24T09:30:52Z</time>
      </trkpt>
      <trkpt lat="48.38494" lon="2.59036">
        <ele>91.46</ele>
        <time>2013-03-24T09:30:54Z</time>
      </trkpt>
      <trkpt lat="48.38493" lon="2.59025">
        <ele>90.98</ele>
        <time>2013-03-24T09:30:55Z</time>
      </trkpt>
      <trkpt lat="48.38463" lon="2.58938">
        <ele>90.5</ele>
        <time>2013-03-24T09:30:57Z</time>
      </trkpt>
      <trkpt lat="48.38422" lon="2.58843">
        <ele>87.14</ele>
        <time>2013-03-24T09:31:05Z</time>
      </trkpt>
      <trkpt lat="48.38383" lon="2.58791">
        <ele>84.73</ele>
        <time>2013-03-24T09:31:14Z</time>
      </trkpt>
      <trkpt lat="48.38373" lon="2.58778">
        <ele>83.77</ele>
        <time>2013-03-24T09:31:16Z</time>
      </trkpt>
      <trkpt lat="48.38369" lon="2.5877">
        <ele>83.77</ele>
        <time>2013-03-24T09:31:17Z</time>
      </trkpt>
      <trkpt lat="48.38375" lon="2.58766">
        <ele>83.77</ele>
        <time>2013-03-24T09:31:24Z</time>
      </trkpt>
      <trkpt lat="48.38378" lon="2.58767">
        <ele>84.25</ele>
        <time>2013-03-24T09:31:26Z</time>
      </trkpt>
      <trkpt lat="48.3838" lon="2.58768">
        <ele>84.73</ele>
        <time>2013-03-24T09:31:27Z</time>
      </trkpt>
      <trkpt lat="48.38384" lon="2.58769">
        <ele>84.73</ele>
        <time>2013-03-24T09:31:28Z</time>
      </trkpt>
      <trkpt lat="48.38409" lon="2.58769">
        <ele>86.18</ele>
        <time>2013-03-24T09:31:35Z</time>
      </trkpt>
      <trkpt lat="48.38411" lon="2.5877">
        <ele>86.18</ele>
        <time>2013-03-24T09:31:36Z</time>
      </trkpt>
      <trkpt lat="48.38414" lon="2.58771">
        <ele>86.18</ele>
        <time>2013-03-24T09:31:37Z</time>
      </trkpt>
      <trkpt lat="48.38417" lon="2.58772">
        <ele>86.66</ele>
        <time>2013-03-24T09:31:38Z</time>
      </trkpt>
      <trkpt lat="48.38419" lon="2.58774">
        <ele>86.18</ele>
        <time>2013-03-24T09:31:39Z</time>
      </trkpt>
      <trkpt lat="48.38457" lon="2.5881">
        <ele>87.62</ele>
        <time>2013-03-24T09:31:53Z</time>
      </trkpt>
      <trkpt lat="48.3853" lon="2.589">
        <ele>89.06</ele>
        <time>2013-03-24T09:32:06Z</time>
      </trkpt>
      <trkpt lat="48.38549" lon="2.5893">
        <ele>90.5</ele>
        <time>2013-03-24T09:32:16Z</time>
      </trkpt>
      <trkpt lat="48.3855" lon="2.58933">
        <ele>90.5</ele>
        <time>2013-03-24T09:32:17Z</time>
      </trkpt>
      <trkpt lat="48.3855" lon="2.58936">
        <ele>90.5</ele>
        <time>2013-03-24T09:32:18Z</time>
      </trkpt>
      <trkpt lat="48.38551" lon="2.5894">
        <ele>90.5</ele>
        <time>2013-03-24T09:32:19Z</time>
      </trkpt>
      <trkpt lat="48.38552" lon="2.58944">
        <ele>90.5</ele>
        <time>2013-03-24T09:32:20Z</time>
      </trkpt>
      <trkpt lat="48.3856" lon="2.58979">
        <ele>91.46</ele>
        <time>2013-03-24T09:32:32Z</time>
      </trkpt>
      <trkpt lat="48.3856" lon="2.58983">
        <ele>91.46</ele>
        <time>2013-03-24T09:32:33Z</time>
      </trkpt>
      <trkpt lat="48.3856" lon="2.59036">
        <ele>91.94</ele>
        <time>2013-03-24T09:32:45Z</time>
      </trkpt>
      <trkpt lat="48.38619" lon="2.59122">
        <ele>92.9</ele>
        <time>2013-03-24T09:32:58Z</time>
      </trkpt>
      <trkpt lat="48.38621" lon="2.59125">
        <ele>92.9</ele>
        <time>2013-03-24T09:33:00Z</time>
      </trkpt>
      <trkpt lat="48.38623" lon="2.59127">
        <ele>93.39</ele>
        <time>2013-03-24T09:33:01Z</time>
      </trkpt>
      <trkpt lat="48.38624" lon="2.59129">
        <ele>93.39</ele>
        <time>2013-03-24T09:33:02Z</time>
      </trkpt>
      <trkpt lat="48.38626" lon="2.59132">
        <ele>93.39</ele>
        <time>2013-03-24T09:33:03Z</time>
      </trkpt>
      <trkpt lat="48.38627" lon="2.59135">
        <ele>93.39</ele>
        <time>2013-03-24T09:33:04Z</time>
      </trkpt>
      <trkpt lat="48.38628" lon="2.59138">
        <ele>93.39</ele>
        <time>2013-03-24T09:33:05Z</time>
      </trkpt>
      <trkpt lat="48.3863" lon="2.59141">
        <ele>93.87</ele>
        <time>2013-03-24T09:33:06Z</time>
      </trkpt>
      <trkpt lat="48.38632" lon="2.59145">
        <ele>93.87</ele>
        <time>2013-03-24T09:33:07Z</time>
      </trkpt>
      <trkpt lat="48.38633" lon="2.59148">
        <ele>93.87</ele>
        <time>2013-03-24T09:33:08Z</time>
      </trkpt>
      <trkpt lat="48.38634" lon="2.5915">
        <ele>93.87</ele>
        <time>2013-03-24T09:33:09Z</time>
      </trkpt>
      <trkpt lat="48.38635" lon="2.59153">
        <ele>94.35</ele>
        <time>2013-03-24T09:33:10Z</time>
      </trkpt>
      <trkpt lat="48.38637" lon="2.59156">
        <ele>94.35</ele>
        <time>2013-03-24T09:33:11Z</time>
      </trkpt>
      <trkpt lat="48.38638" lon="2.59159">
        <ele>94.35</ele>
        <time>2013-03-24T09:33:12Z</time>
      </trkpt>
      <trkpt lat="48.3865" lon="2.59205">
        <ele>96.27</ele>
        <time>2013-03-24T09:33:24Z</time>
      </trkpt>
      <trkpt lat="48.38649" lon="2.5921">
        <ele>96.27</ele>
        <time>2013-03-24T09:33:25Z</time>
      </trkpt>
      <trkpt lat="48.38648" lon="2.59214">
        <ele>96.75</ele>
        <time>2013-03-24T09:33:26Z</time>
      </trkpt>
      <trkpt lat="48.38635" lon="2.59255">
        <ele>99.63</ele>
        <time>2013-03-24T09:33:39Z</time>
      </trkpt>
      <trkpt lat="48.38635" lon="2.59258">
        <ele>99.63</ele>
        <time>2013-03-24T09:33:40Z</time>
      </trkpt>
      <trkpt lat="48.38624" lon="2.59277">
        <ele>101.56</ele>
        <time>2013-03-24T09:33:48Z</time>
      </trkpt>
      <trkpt lat="48.38622" lon="2.59281">
        <ele>101.56</ele>
        <time>2013-03-24T09:33:49Z</time>
      </trkpt>
      <trkpt lat="48.38628" lon="2.59341">
        <ele>104.44</ele>
        <time>2013-03-24T09:34:04Z</time>
      </trkpt>
      <trkpt lat="48.38631" lon="2.59348">
        <ele>104.92</ele>
        <time>2013-03-24T09:34:07Z</time>
      </trkpt>
      <trkpt lat="48.38633" lon="2.59351">
        <ele>104.92</ele>
        <time>2013-03-24T09:34:08Z</time>
      </trkpt>
      <trkpt lat="48.38634" lon="2.59353">
        <ele>105.4</ele>
        <time>2013-03-24T09:34:09Z</time>
      </trkpt>
      <trkpt lat="48.38635" lon="2.59355">
        <ele>105.88</ele>
        <time>2013-03-24T09:34:10Z</time>
      </trkpt>
      <trkpt lat="48.38638" lon="2.59367">
        <ele>107.32</ele>
        <time>2013-03-24T09:34:16Z</time>
      </trkpt>
      <trkpt lat="48.38645" lon="2.5938">
        <ele>108.77</ele>
        <time>2013-03-24T09:34:23Z</time>
      </trkpt>
      <trkpt lat="48.38647" lon="2.59383">
        <ele>109.25</ele>
        <time>2013-03-24T09:34:25Z</time>
      </trkpt>
      <trkpt lat="48.38656" lon="2.59405">
        <ele>110.69</ele>
        <time>2013-03-24T09:34:36Z</time>
      </trkpt>
      <trkpt lat="48.38661" lon="2.59461">
        <ele>112.13</ele>
        <time>2013-03-24T09:34:53Z</time>
      </trkpt>
      <trkpt lat="48.38659" lon="2.59512">
        <ele>112.13</ele>
        <time>2013-03-24T09:35:05Z</time>
      </trkpt>
      <trkpt lat="48.38655" lon="2.59552">
        <ele>113.09</ele>
        <time>2013-03-24T09:35:14Z</time>
      </trkpt>
      <trkpt lat="48.38647" lon="2.59606">
        <ele>113.09</ele>
        <time>2013-03-24T09:35:28Z</time>
      </trkpt>
      <trkpt lat="48.38645" lon="2.59699">
        <ele>112.61</ele>
        <time>2013-03-24T09:35:44Z</time>
      </trkpt>
      <trkpt lat="48.38641" lon="2.59775">
        <ele>113.09</ele>
        <time>2013-03-24T09:35:57Z</time>
      </trkpt>
      <trkpt lat="48.38638" lon="2.59868">
        <ele>112.61</ele>
        <time>2013-03-24T09:36:10Z</time>
      </trkpt>
      <trkpt lat="48.38638" lon="2.59908">
        <ele>112.61</ele>
        <time>2013-03-24T09:36:16Z</time>
      </trkpt>
      <trkpt lat="48.38633" lon="2.59925">
        <ele>112.61</ele>
        <time>2013-03-24T09:36:27Z</time>
      </trkpt>
      <trkpt lat="48.38635" lon="2.59923">
        <ele>112.61</ele>
        <time>2013-03-24T09:36:45Z</time>
      </trkpt>
      <trkpt lat="48.38634" lon="2.59923">
        <ele>112.61</ele>
        <time>2013-03-24T09:36:47Z</time>
      </trkpt>
      <trkpt lat="48.38648" lon="2.59921">
        <ele>113.09</ele>
        <time>2013-03-24T09:36:54Z</time>
      </trkpt>
      <trkpt lat="48.38652" lon="2.59918">
        <ele>113.09</ele>
        <time>2013-03-24T09:36:55Z</time>
      </trkpt>
      <trkpt lat="48.38657" lon="2.59914">
        <ele>113.09</ele>
        <time>2013-03-24T09:36:56Z</time>
      </trkpt>
      <trkpt lat="48.38679" lon="2.59896">
        <ele>112.61</ele>
        <time>2013-03-24T09:37:02Z</time>
      </trkpt>
      <trkpt lat="48.38683" lon="2.59894">
        <ele>113.09</ele>
        <time>2013-03-24T09:37:03Z</time>
      </trkpt>
      <trkpt lat="48.38687" lon="2.59893">
        <ele>113.09</ele>
        <time>2013-03-24T09:37:04Z</time>
      </trkpt>
      <trkpt lat="48.38691" lon="2.59893">
        <ele>113.09</ele>
        <time>2013-03-24T09:37:05Z</time>
      </trkpt>
      <trkpt lat="48.38695" lon="2.59893">
        <ele>113.09</ele>
        <time>2013-03-24T09:37:06Z</time>
      </trkpt>
      <trkpt lat="48.38699" lon="2.59893">
        <ele>113.09</ele>
        <time>2013-03-24T09:37:07Z</time>
      </trkpt>
      <trkpt lat="48.38717" lon="2.599">
        <ele>115.01</ele>
        <time>2013-03-24T09:37:13Z</time>
      </trkpt>
      <trkpt lat="48.38753" lon="2.59895">
        <ele>115.5</ele>
        <time>2013-03-24T09:37:24Z</time>
      </trkpt>
      <trkpt lat="48.38791" lon="2.59837">
        <ele>115.01</ele>
        <time>2013-03-24T09:37:36Z</time>
      </trkpt>
      <trkpt lat="48.38803" lon="2.59807">
        <ele>114.53</ele>
        <time>2013-03-24T09:37:42Z</time>
      </trkpt>
      <trkpt lat="48.38808" lon="2.59804">
        <ele>114.53</ele>
        <time>2013-03-24T09:37:43Z</time>
      </trkpt>
      <trkpt lat="48.38812" lon="2.59802">
        <ele>114.05</ele>
        <time>2013-03-24T09:37:44Z</time>
      </trkpt>
      <trkpt lat="48.38822" lon="2.59802">
        <ele>114.53</ele>
        <time>2013-03-24T09:37:46Z</time>
      </trkpt>
      <trkpt lat="48.38839" lon="2.59802">
        <ele>113.57</ele>
        <time>2013-03-24T09:37:49Z</time>
      </trkpt>
      <trkpt lat="48.38854" lon="2.59797">
        <ele>113.57</ele>
        <time>2013-03-24T09:37:52Z</time>
      </trkpt>
      <trkpt lat="48.38858" lon="2.59795">
        <ele>113.57</ele>
        <time>2013-03-24T09:37:53Z</time>
      </trkpt>
      <trkpt lat="48.38874" lon="2.59787">
        <ele>113.57</ele>
        <time>2013-03-24T09:37:57Z</time>
      </trkpt>
      <trkpt lat="48.38878" lon="2.59786">
        <ele>113.09</ele>
        <time>2013-03-24T09:37:58Z</time>
      </trkpt>
      <trkpt lat="48.38882" lon="2.59786">
        <ele>113.57</ele>
        <time>2013-03-24T09:37:59Z</time>
      </trkpt>
      <trkpt lat="48.38933" lon="2.59791">
        <ele>115.98</ele>
        <time>2013-03-24T09:38:14Z</time>
      </trkpt>
      <trkpt lat="48.3898" lon="2.59802">
        <ele>115.98</ele>
        <time>2013-03-24T09:38:27Z</time>
      </trkpt>
      <trkpt lat="48.39037" lon="2.5981">
        <ele>116.46</ele>
        <time>2013-03-24T09:38:41Z</time>
      </trkpt>
      <trkpt lat="48.39076" lon="2.59814">
        <ele>115.98</ele>
        <time>2013-03-24T09:38:49Z</time>
      </trkpt>
      <trkpt lat="48.39146" lon="2.59832">
        <ele>113.57</ele>
        <time>2013-03-24T09:39:01Z</time>
      </trkpt>
      <trkpt lat="48.39151" lon="2.59832">
        <ele>113.09</ele>
        <time>2013-03-24T09:39:02Z</time>
      </trkpt>
      <trkpt lat="48.39161" lon="2.59834">
        <ele>113.09</ele>
        <time>2013-03-24T09:39:04Z</time>
      </trkpt>
      <trkpt lat="48.39166" lon="2.59836">
        <ele>113.09</ele>
        <time>2013-03-24T09:39:05Z</time>
      </trkpt>
      <trkpt lat="48.3917" lon="2.59835">
        <ele>112.61</ele>
        <time>2013-03-24T09:39:06Z</time>
      </trkpt>
      <trkpt lat="48.39173" lon="2.59835">
        <ele>112.61</ele>
        <time>2013-03-24T09:39:07Z</time>
      </trkpt>
      <trkpt lat="48.39176" lon="2.59834">
        <ele>112.61</ele>
        <time>2013-03-24T09:39:08Z</time>
      </trkpt>
      <trkpt lat="48.3918" lon="2.59834">
        <ele>111.65</ele>
        <time>2013-03-24T09:39:09Z</time>
      </trkpt>
      <trkpt lat="48.39194" lon="2.59835">
        <ele>110.69</ele>
        <time>2013-03-24T09:39:12Z</time>
      </trkpt>
      <trkpt lat="48.39209" lon="2.59836">
        <ele>108.77</ele>
        <time>2013-03-24T09:39:15Z</time>
      </trkpt>
      <trkpt lat="48.3923" lon="2.59838">
        <ele>104.92</ele>
        <time>2013-03-24T09:39:19Z</time>
      </trkpt>
      <trkpt lat="48.39256" lon="2.5984">
        <ele>100.6</ele>
        <time>2013-03-24T09:39:22Z</time>
      </trkpt>
      <trkpt lat="48.39265" lon="2.59842">
        <ele>99.15</ele>
        <time>2013-03-24T09:39:23Z</time>
      </trkpt>
      <trkpt lat="48.39275" lon="2.59847">
        <ele>97.71</ele>
        <time>2013-03-24T09:39:24Z</time>
      </trkpt>
      <trkpt lat="48.39285" lon="2.59852">
        <ele>96.27</ele>
        <time>2013-03-24T09:39:25Z</time>
      </trkpt>
      <trkpt lat="48.39295" lon="2.59858">
        <ele>94.35</ele>
        <time>2013-03-24T09:39:26Z</time>
      </trkpt>
      <trkpt lat="48.39328" lon="2.59877">
        <ele>90.5</ele>
        <time>2013-03-24T09:39:29Z</time>
      </trkpt>
      <trkpt lat="48.39363" lon="2.59897">
        <ele>87.14</ele>
        <time>2013-03-24T09:39:32Z</time>
      </trkpt>
      <trkpt lat="48.39415" lon="2.5993">
        <ele>83.77</ele>
        <time>2013-03-24T09:39:37Z</time>
      </trkpt>
      <trkpt lat="48.3946" lon="2.59957">
        <ele>81.37</ele>
        <time>2013-03-24T09:39:42Z</time>
      </trkpt>
      <trkpt lat="48.39467" lon="2.5996">
        <ele>80.89</ele>
        <time>2013-03-24T09:39:43Z</time>
      </trkpt>
      <trkpt lat="48.39473" lon="2.59964">
        <ele>80.41</ele>
        <time>2013-03-24T09:39:44Z</time>
      </trkpt>
      <trkpt lat="48.39478" lon="2.59967">
        <ele>79.93</ele>
        <time>2013-03-24T09:39:45Z</time>
      </trkpt>
      <trkpt lat="48.39485" lon="2.59971">
        <ele>79.45</ele>
        <time>2013-03-24T09:39:46Z</time>
      </trkpt>
      <trkpt lat="48.39491" lon="2.59971">
        <ele>78.97</ele>
        <time>2013-03-24T09:39:47Z</time>
      </trkpt>
      <trkpt lat="48.39495" lon="2.59969">
        <ele>79.45</ele>
        <time>2013-03-24T09:39:48Z</time>
      </trkpt>
      <trkpt lat="48.39498" lon="2.59965">
        <ele>78.97</ele>
        <time>2013-03-24T09:39:49Z</time>
      </trkpt>
      <trkpt lat="48.395" lon="2.59961">
        <ele>78.97</ele>
        <time>2013-03-24T09:39:50Z</time>
      </trkpt>
      <trkpt lat="48.395" lon="2.59956">
        <ele>78.97</ele>
        <time>2013-03-24T09:39:51Z</time>
      </trkpt>
      <trkpt lat="48.39509" lon="2.59908">
        <ele>78.97</ele>
        <time>2013-03-24T09:39:59Z</time>
      </trkpt>
      <trkpt lat="48.39516" lon="2.59815">
        <ele>78.97</ele>
        <time>2013-03-24T09:40:12Z</time>
      </trkpt>
      <trkpt lat="48.39523" lon="2.59772">
        <ele>78.97</ele>
        <time>2013-03-24T09:40:19Z</time>
      </trkpt>
      <trkpt lat="48.39532" lon="2.59701">
        <ele>78.97</ele>
        <time>2013-03-24T09:40:29Z</time>
      </trkpt>
      <trkpt lat="48.39534" lon="2.59693">
        <ele>78.97</ele>
        <time>2013-03-24T09:40:30Z</time>
      </trkpt>
      <trkpt lat="48.39544" lon="2.59619">
        <ele>78</ele>
        <time>2013-03-24T09:40:40Z</time>
      </trkpt>
      <trkpt lat="48.39557" lon="2.5953">
        <ele>77.52</ele>
        <time>2013-03-24T09:40:52Z</time>
      </trkpt>
      <trkpt lat="48.39565" lon="2.59487">
        <ele>77.52</ele>
        <time>2013-03-24T09:40:58Z</time>
      </trkpt>
      <trkpt lat="48.39574" lon="2.59419">
        <ele>77.04</ele>
        <time>2013-03-24T09:41:07Z</time>
      </trkpt>
      <trkpt lat="48.39576" lon="2.59411">
        <ele>76.56</ele>
        <time>2013-03-24T09:41:08Z</time>
      </trkpt>
      <trkpt lat="48.3958" lon="2.5938">
        <ele>77.04</ele>
        <time>2013-03-24T09:41:12Z</time>
      </trkpt>
      <trkpt lat="48.39585" lon="2.59352">
        <ele>76.08</ele>
        <time>2013-03-24T09:41:16Z</time>
      </trkpt>
      <trkpt lat="48.39586" lon="2.59345">
        <ele>76.08</ele>
        <time>2013-03-24T09:41:17Z</time>
      </trkpt>
      <trkpt lat="48.39589" lon="2.59325">
        <ele>76.56</ele>
        <time>2013-03-24T09:41:20Z</time>
      </trkpt>
      <trkpt lat="48.3959" lon="2.59319">
        <ele>76.56</ele>
        <time>2013-03-24T09:41:21Z</time>
      </trkpt>
      <trkpt lat="48.39591" lon="2.59312">
        <ele>76.56</ele>
        <time>2013-03-24T09:41:22Z</time>
      </trkpt>
      <trkpt lat="48.39598" lon="2.59261">
        <ele>76.56</ele>
        <time>2013-03-24T09:41:29Z</time>
      </trkpt>
      <trkpt lat="48.396" lon="2.59253">
        <ele>76.56</ele>
        <time>2013-03-24T09:41:30Z</time>
      </trkpt>
      <trkpt lat="48.39604" lon="2.59224">
        <ele>76.56</ele>
        <time>2013-03-24T09:41:34Z</time>
      </trkpt>
      <trkpt lat="48.39614" lon="2.59181">
        <ele>76.56</ele>
        <time>2013-03-24T09:41:40Z</time>
      </trkpt>
      <trkpt lat="48.3962" lon="2.59111">
        <ele>75.12</ele>
        <time>2013-03-24T09:41:49Z</time>
      </trkpt>
      <trkpt lat="48.39621" lon="2.59096">
        <ele>75.12</ele>
        <time>2013-03-24T09:41:51Z</time>
      </trkpt>
      <trkpt lat="48.39623" lon="2.5908">
        <ele>74.64</ele>
        <time>2013-03-24T09:41:53Z</time>
      </trkpt>
      <trkpt lat="48.39623" lon="2.59072">
        <ele>75.12</ele>
        <time>2013-03-24T09:41:54Z</time>
      </trkpt>
      <trkpt lat="48.39626" lon="2.59041">
        <ele>74.64</ele>
        <time>2013-03-24T09:41:58Z</time>
      </trkpt>
      <trkpt lat="48.39626" lon="2.59034">
        <ele>74.64</ele>
        <time>2013-03-24T09:41:59Z</time>
      </trkpt>
      <trkpt lat="48.39627" lon="2.59026">
        <ele>74.64</ele>
        <time>2013-03-24T09:42:00Z</time>
      </trkpt>
      <trkpt lat="48.39628" lon="2.59018">
        <ele>74.64</ele>
        <time>2013-03-24T09:42:01Z</time>
      </trkpt>
      <trkpt lat="48.39628" lon="2.5901">
        <ele>74.16</ele>
        <time>2013-03-24T09:42:02Z</time>
      </trkpt>
      <trkpt lat="48.39631" lon="2.58983">
        <ele>74.64</ele>
        <time>2013-03-24T09:42:06Z</time>
      </trkpt>
      <trkpt lat="48.39634" lon="2.58956">
        <ele>74.64</ele>
        <time>2013-03-24T09:42:10Z</time>
      </trkpt>
      <trkpt lat="48.39635" lon="2.5895">
        <ele>74.64</ele>
        <time>2013-03-24T09:42:11Z</time>
      </trkpt>
      <trkpt lat="48.39636" lon="2.58943">
        <ele>74.16</ele>
        <time>2013-03-24T09:42:12Z</time>
      </trkpt>
      <trkpt lat="48.39649" lon="2.58884">
        <ele>74.16</ele>
        <time>2013-03-24T09:42:22Z</time>
      </trkpt>
      <trkpt lat="48.39654" lon="2.58875">
        <ele>74.64</ele>
        <time>2013-03-24T09:42:24Z</time>
      </trkpt>
      <trkpt lat="48.39656" lon="2.58873">
        <ele>75.12</ele>
        <time>2013-03-24T09:42:25Z</time>
      </trkpt>
      <trkpt lat="48.39659" lon="2.58871">
        <ele>75.12</ele>
        <time>2013-03-24T09:42:26Z</time>
      </trkpt>
      <trkpt lat="48.39661" lon="2.5887">
        <ele>75.6</ele>
        <time>2013-03-24T09:42:27Z</time>
      </trkpt>
      <trkpt lat="48.39663" lon="2.58868">
        <ele>75.6</ele>
        <time>2013-03-24T09:42:28Z</time>
      </trkpt>
      <trkpt lat="48.39666" lon="2.58867">
        <ele>75.6</ele>
        <time>2013-03-24T09:42:29Z</time>
      </trkpt>
      <trkpt lat="48.39668" lon="2.58867">
        <ele>76.08</ele>
        <time>2013-03-24T09:42:30Z</time>
      </trkpt>
      <trkpt lat="48.39696" lon="2.58853">
        <ele>78.97</ele>
        <time>2013-03-24T09:42:43Z</time>
      </trkpt>
      <trkpt lat="48.39721" lon="2.58847">
        <ele>81.85</ele>
        <time>2013-03-24T09:42:53Z</time>
      </trkpt>
      <trkpt lat="48.39745" lon="2.58858">
        <ele>84.25</ele>
        <time>2013-03-24T09:43:06Z</time>
      </trkpt>
      <trkpt lat="48.3977" lon="2.58875">
        <ele>87.14</ele>
        <time>2013-03-24T09:43:19Z</time>
      </trkpt>
      <trkpt lat="48.398" lon="2.58886">
        <ele>89.54</ele>
        <time>2013-03-24T09:43:32Z</time>
      </trkpt>
      <trkpt lat="48.39809" lon="2.58887">
        <ele>90.98</ele>
        <time>2013-03-24T09:43:38Z</time>
      </trkpt>
      <trkpt lat="48.39811" lon="2.58889">
        <ele>90.98</ele>
        <time>2013-03-24T09:43:39Z</time>
      </trkpt>
      <trkpt lat="48.39812" lon="2.58891">
        <ele>90.98</ele>
        <time>2013-03-24T09:43:40Z</time>
      </trkpt>
      <trkpt lat="48.39813" lon="2.58893">
        <ele>91.46</ele>
        <time>2013-03-24T09:43:41Z</time>
      </trkpt>
      <trkpt lat="48.39814" lon="2.58895">
        <ele>91.46</ele>
        <time>2013-03-24T09:43:42Z</time>
      </trkpt>
      <trkpt lat="48.3983" lon="2.58932">
        <ele>94.83</ele>
        <time>2013-03-24T09:43:56Z</time>
      </trkpt>
      <trkpt lat="48.39833" lon="2.58949">
        <ele>95.79</ele>
        <time>2013-03-24T09:44:02Z</time>
      </trkpt>
      <trkpt lat="48.39836" lon="2.58958">
        <ele>96.27</ele>
        <time>2013-03-24T09:44:05Z</time>
      </trkpt>
      <trkpt lat="48.39836" lon="2.5896">
        <ele>96.75</ele>
        <time>2013-03-24T09:44:06Z</time>
      </trkpt>
      <trkpt lat="48.39837" lon="2.58964">
        <ele>96.75</ele>
        <time>2013-03-24T09:44:07Z</time>
      </trkpt>
      <trkpt lat="48.39842" lon="2.58994">
        <ele>100.11</ele>
        <time>2013-03-24T09:44:20Z</time>
      </trkpt>
      <trkpt lat="48.39843" lon="2.58997">
        <ele>100.11</ele>
        <time>2013-03-24T09:44:21Z</time>
      </trkpt>
      <trkpt lat="48.39847" lon="2.59001">
        <ele>101.08</ele>
        <time>2013-03-24T09:44:23Z</time>
      </trkpt>
      <trkpt lat="48.39849" lon="2.59003">
        <ele>101.08</ele>
        <time>2013-03-24T09:44:24Z</time>
      </trkpt>
      <trkpt lat="48.39851" lon="2.59003">
        <ele>101.08</ele>
        <time>2013-03-24T09:44:25Z</time>
      </trkpt>
      <trkpt lat="48.39869" lon="2.58996">
        <ele>103.48</ele>
        <time>2013-03-24T09:44:38Z</time>
      </trkpt>
      <trkpt lat="48.39891" lon="2.58988">
        <ele>105.4</ele>
        <time>2013-03-24T09:44:52Z</time>
      </trkpt>
      <trkpt lat="48.39898" lon="2.58987">
        <ele>104.92</ele>
        <time>2013-03-24T09:45:11Z</time>
      </trkpt>
      <trkpt lat="48.399" lon="2.58989">
        <ele>105.4</ele>
        <time>2013-03-24T09:45:13Z</time>
      </trkpt>
      <trkpt lat="48.399" lon="2.58991">
        <ele>104.92</ele>
        <time>2013-03-24T09:45:14Z</time>
      </trkpt>
      <trkpt lat="48.3991" lon="2.59018">
        <ele>103</ele>
        <time>2013-03-24T09:45:20Z</time>
      </trkpt>
      <trkpt lat="48.39917" lon="2.59041">
        <ele>101.08</ele>
        <time>2013-03-24T09:45:23Z</time>
      </trkpt>
      <trkpt lat="48.3992" lon="2.59059">
        <ele>99.15</ele>
        <time>2013-03-24T09:45:25Z</time>
      </trkpt>
      <trkpt lat="48.39921" lon="2.59069">
        <ele>99.15</ele>
        <time>2013-03-24T09:45:26Z</time>
      </trkpt>
      <trkpt lat="48.39921" lon="2.59089">
        <ele>99.15</ele>
        <time>2013-03-24T09:45:28Z</time>
      </trkpt>
      <trkpt lat="48.39921" lon="2.59096">
        <ele>99.15</ele>
        <time>2013-03-24T09:45:29Z</time>
      </trkpt>
      <trkpt lat="48.39918" lon="2.5914">
        <ele>101.08</ele>
        <time>2013-03-24T09:45:39Z</time>
      </trkpt>
      <trkpt lat="48.39928" lon="2.5919">
        <ele>103.48</ele>
        <time>2013-03-24T09:45:51Z</time>
      </trkpt>
      <trkpt lat="48.39937" lon="2.59231">
        <ele>106.84</ele>
        <time>2013-03-24T09:46:03Z</time>
      </trkpt>
      <trkpt lat="48.3994" lon="2.5927">
        <ele>109.73</ele>
        <time>2013-03-24T09:46:15Z</time>
      </trkpt>
      <trkpt lat="48.39939" lon="2.59284">
        <ele>111.17</ele>
        <time>2013-03-24T09:46:21Z</time>
      </trkpt>
      <trkpt lat="48.39938" lon="2.59286">
        <ele>111.17</ele>
        <time>2013-03-24T09:46:22Z</time>
      </trkpt>
      <trkpt lat="48.39937" lon="2.59288">
        <ele>111.65</ele>
        <time>2013-03-24T09:46:23Z</time>
      </trkpt>
      <trkpt lat="48.39936" lon="2.5929">
        <ele>111.65</ele>
        <time>2013-03-24T09:46:24Z</time>
      </trkpt>
      <trkpt lat="48.39935" lon="2.59292">
        <ele>111.65</ele>
        <time>2013-03-24T09:46:25Z</time>
      </trkpt>
      <trkpt lat="48.39934" lon="2.59294">
        <ele>112.13</ele>
        <time>2013-03-24T09:46:26Z</time>
      </trkpt>
      <trkpt lat="48.39933" lon="2.59297">
        <ele>112.13</ele>
        <time>2013-03-24T09:46:27Z</time>
      </trkpt>
      <trkpt lat="48.39931" lon="2.59299">
        <ele>112.13</ele>
        <time>2013-03-24T09:46:28Z</time>
      </trkpt>
      <trkpt lat="48.39927" lon="2.59321">
        <ele>112.13</ele>
        <time>2013-03-24T09:46:34Z</time>
      </trkpt>
      <trkpt lat="48.39924" lon="2.59346">
        <ele>112.13</ele>
        <time>2013-03-24T09:46:41Z</time>
      </trkpt>
      <trkpt lat="48.39925" lon="2.59349">
        <ele>112.13</ele>
        <time>2013-03-24T09:46:42Z</time>
      </trkpt>
      <trkpt lat="48.39926" lon="2.59366">
        <ele>111.65</ele>
        <time>2013-03-24T09:46:46Z</time>
      </trkpt>
      <trkpt lat="48.39933" lon="2.59396">
        <ele>109.25</ele>
        <time>2013-03-24T09:46:53Z</time>
      </trkpt>
      <trkpt lat="48.39932" lon="2.59403">
        <ele>107.81</ele>
        <time>2013-03-24T09:46:54Z</time>
      </trkpt>
      <trkpt lat="48.3993" lon="2.59409">
        <ele>107.32</ele>
        <time>2013-03-24T09:46:55Z</time>
      </trkpt>
      <trkpt lat="48.39915" lon="2.59452">
        <ele>104.44</ele>
        <time>2013-03-24T09:47:02Z</time>
      </trkpt>
      <trkpt lat="48.39911" lon="2.59455">
        <ele>103.48</ele>
        <time>2013-03-24T09:47:03Z</time>
      </trkpt>
      <trkpt lat="48.39904" lon="2.5946">
        <ele>103</ele>
        <time>2013-03-24T09:47:05Z</time>
      </trkpt>
      <trkpt lat="48.39894" lon="2.59465">
        <ele>102.52</ele>
        <time>2013-03-24T09:47:06Z</time>
      </trkpt>
      <trkpt lat="48.39881" lon="2.59493">
        <ele>102.52</ele>
        <time>2013-03-24T09:47:10Z</time>
      </trkpt>
      <trkpt lat="48.39879" lon="2.59499">
        <ele>102.52</ele>
        <time>2013-03-24T09:47:11Z</time>
      </trkpt>
      <trkpt lat="48.39879" lon="2.59504">
        <ele>102.52</ele>
        <time>2013-03-24T09:47:12Z</time>
      </trkpt>
      <trkpt lat="48.39877" lon="2.59522">
        <ele>103</ele>
        <time>2013-03-24T09:47:17Z</time>
      </trkpt>
      <trkpt lat="48.39875" lon="2.59525">
        <ele>103</ele>
        <time>2013-03-24T09:47:18Z</time>
      </trkpt>
      <trkpt lat="48.39857" lon="2.59558">
        <ele>103.96</ele>
        <time>2013-03-24T09:47:29Z</time>
      </trkpt>
      <trkpt lat="48.39866" lon="2.5964">
        <ele>104.44</ele>
        <time>2013-03-24T09:47:41Z</time>
      </trkpt>
      <trkpt lat="48.39867" lon="2.59651">
        <ele>103.96</ele>
        <time>2013-03-24T09:47:42Z</time>
      </trkpt>
      <trkpt lat="48.39889" lon="2.59718">
        <ele>104.44</ele>
        <time>2013-03-24T09:47:43Z</time>
      </trkpt>
      <trkpt lat="48.39889" lon="2.59767">
        <ele>104.92</ele>
        <time>2013-03-24T09:47:54Z</time>
      </trkpt>
      <trkpt lat="48.39904" lon="2.59837">
        <ele>105.88</ele>
        <time>2013-03-24T09:48:08Z</time>
      </trkpt>
      <trkpt lat="48.3989" lon="2.59883">
        <ele>105.4</ele>
        <time>2013-03-24T09:48:17Z</time>
      </trkpt>
      <trkpt lat="48.39858" lon="2.59949">
        <ele>104.44</ele>
        <time>2013-03-24T09:48:29Z</time>
      </trkpt>
      <trkpt lat="48.39852" lon="2.59959">
        <ele>104.92</ele>
        <time>2013-03-24T09:48:31Z</time>
      </trkpt>
      <trkpt lat="48.3984" lon="2.59973">
        <ele>103.96</ele>
        <time>2013-03-24T09:48:34Z</time>
      </trkpt>
      <trkpt lat="48.39838" lon="2.59979">
        <ele>103.96</ele>
        <time>2013-03-24T09:48:35Z</time>
      </trkpt>
      <trkpt lat="48.39809" lon="2.60066">
        <ele>103</ele>
        <time>2013-03-24T09:48:50Z</time>
      </trkpt>
      <trkpt lat="48.39802" lon="2.60147">
        <ele>103</ele>
        <time>2013-03-24T09:49:00Z</time>
      </trkpt>
      <trkpt lat="48.39802" lon="2.60157">
        <ele>103</ele>
        <time>2013-03-24T09:49:01Z</time>
      </trkpt>
      <trkpt lat="48.39796" lon="2.60222">
        <ele>103</ele>
        <time>2013-03-24T09:49:10Z</time>
      </trkpt>
      <trkpt lat="48.39797" lon="2.60226">
        <ele>103</ele>
        <time>2013-03-24T09:49:11Z</time>
      </trkpt>
      <trkpt lat="48.39797" lon="2.60233">
        <ele>103.48</ele>
        <time>2013-03-24T09:49:12Z</time>
      </trkpt>
      <trkpt lat="48.39815" lon="2.60282">
        <ele>103.96</ele>
        <time>2013-03-24T09:49:24Z</time>
      </trkpt>
      <trkpt lat="48.39838" lon="2.60354">
        <ele>104.44</ele>
        <time>2013-03-24T09:49:38Z</time>
      </trkpt>
      <trkpt lat="48.39866" lon="2.60412">
        <ele>104.44</ele>
        <time>2013-03-24T09:49:49Z</time>
      </trkpt>
      <trkpt lat="48.39875" lon="2.60408">
        <ele>104.92</ele>
        <time>2013-03-24T09:49:52Z</time>
      </trkpt>
      <trkpt lat="48.3992" lon="2.60424">
        <ele>104.92</ele>
        <time>2013-03-24T09:50:04Z</time>
      </trkpt>
      <trkpt lat="48.39965" lon="2.60459">
        <ele>104.92</ele>
        <time>2013-03-24T09:50:16Z</time>
      </trkpt>
      <trkpt lat="48.39976" lon="2.60464">
        <ele>105.88</ele>
        <time>2013-03-24T09:50:28Z</time>
      </trkpt>
      <trkpt lat="48.39975" lon="2.60463">
        <ele>105.88</ele>
        <time>2013-03-24T09:50:29Z</time>
      </trkpt>
      <trkpt lat="48.3997" lon="2.60467">
        <ele>105.4</ele>
        <time>2013-03-24T09:50:36Z</time>
      </trkpt>
      <trkpt lat="48.39973" lon="2.60458">
        <ele>105.4</ele>
        <time>2013-03-24T09:50:40Z</time>
      </trkpt>
      <trkpt lat="48.39983" lon="2.60408">
        <ele>106.36</ele>
        <time>2013-03-24T09:50:52Z</time>
      </trkpt>
      <trkpt lat="48.39995" lon="2.60363">
        <ele>107.81</ele>
        <time>2013-03-24T09:51:05Z</time>
      </trkpt>
      <trkpt lat="48.40009" lon="2.60321">
        <ele>109.25</ele>
        <time>2013-03-24T09:51:18Z</time>
      </trkpt>
      <trkpt lat="48.40013" lon="2.60318">
        <ele>109.25</ele>
        <time>2013-03-24T09:51:20Z</time>
      </trkpt>
      <trkpt lat="48.40038" lon="2.60289">
        <ele>113.09</ele>
        <time>2013-03-24T09:51:34Z</time>
      </trkpt>
      <trkpt lat="48.40054" lon="2.60275">
        <ele>115.98</ele>
        <time>2013-03-24T09:51:44Z</time>
      </trkpt>
      <trkpt lat="48.40089" lon="2.60263">
        <ele>116.94</ele>
        <time>2013-03-24T09:51:58Z</time>
      </trkpt>
      <trkpt lat="48.40124" lon="2.60254">
        <ele>117.9</ele>
        <time>2013-03-24T09:52:12Z</time>
      </trkpt>
      <trkpt lat="48.40157" lon="2.60239">
        <ele>118.38</ele>
        <time>2013-03-24T09:52:25Z</time>
      </trkpt>
      <trkpt lat="48.40203" lon="2.60214">
        <ele>116.46</ele>
        <time>2013-03-24T09:52:38Z</time>
      </trkpt>
      <trkpt lat="48.40221" lon="2.60186">
        <ele>115.98</ele>
        <time>2013-03-24T09:52:47Z</time>
      </trkpt>
      <trkpt lat="48.40218" lon="2.60124">
        <ele>114.53</ele>
        <time>2013-03-24T09:52:58Z</time>
      </trkpt>
      <trkpt lat="48.4022" lon="2.60019">
        <ele>112.61</ele>
        <time>2013-03-24T09:53:12Z</time>
      </trkpt>
      <trkpt lat="48.40229" lon="2.59945">
        <ele>110.69</ele>
        <time>2013-03-24T09:53:21Z</time>
      </trkpt>
      <trkpt lat="48.40232" lon="2.5988">
        <ele>108.29</ele>
        <time>2013-03-24T09:53:29Z</time>
      </trkpt>
      <trkpt lat="48.40231" lon="2.5987">
        <ele>108.77</ele>
        <time>2013-03-24T09:53:30Z</time>
      </trkpt>
      <trkpt lat="48.40227" lon="2.59809">
        <ele>107.32</ele>
        <time>2013-03-24T09:53:37Z</time>
      </trkpt>
      <trkpt lat="48.40228" lon="2.59801">
        <ele>106.84</ele>
        <time>2013-03-24T09:53:38Z</time>
      </trkpt>
      <trkpt lat="48.40231" lon="2.59792">
        <ele>106.84</ele>
        <time>2013-03-24T09:53:39Z</time>
      </trkpt>
      <trkpt lat="48.40234" lon="2.59784">
        <ele>106.36</ele>
        <time>2013-03-24T09:53:40Z</time>
      </trkpt>
      <trkpt lat="48.40267" lon="2.59707">
        <ele>103</ele>
        <time>2013-03-24T09:53:50Z</time>
      </trkpt>
      <trkpt lat="48.40268" lon="2.59699">
        <ele>103</ele>
        <time>2013-03-24T09:53:51Z</time>
      </trkpt>
      <trkpt lat="48.40272" lon="2.5966">
        <ele>99.63</ele>
        <time>2013-03-24T09:53:55Z</time>
      </trkpt>
      <trkpt lat="48.40273" lon="2.59638">
        <ele>99.15</ele>
        <time>2013-03-24T09:53:57Z</time>
      </trkpt>
      <trkpt lat="48.40273" lon="2.59618">
        <ele>97.23</ele>
        <time>2013-03-24T09:53:59Z</time>
      </trkpt>
      <trkpt lat="48.40268" lon="2.59579">
        <ele>95.79</ele>
        <time>2013-03-24T09:54:03Z</time>
      </trkpt>
      <trkpt lat="48.40268" lon="2.59569">
        <ele>95.79</ele>
        <time>2013-03-24T09:54:04Z</time>
      </trkpt>
      <trkpt lat="48.40268" lon="2.59548">
        <ele>94.35</ele>
        <time>2013-03-24T09:54:06Z</time>
      </trkpt>
      <trkpt lat="48.40267" lon="2.59516">
        <ele>92.9</ele>
        <time>2013-03-24T09:54:09Z</time>
      </trkpt>
      <trkpt lat="48.40271" lon="2.59471">
        <ele>90.5</ele>
        <time>2013-03-24T09:54:13Z</time>
      </trkpt>
      <trkpt lat="48.40276" lon="2.59432">
        <ele>89.54</ele>
        <time>2013-03-24T09:54:16Z</time>
      </trkpt>
      <trkpt lat="48.40282" lon="2.59393">
        <ele>86.66</ele>
        <time>2013-03-24T09:54:19Z</time>
      </trkpt>
      <trkpt lat="48.4028" lon="2.59337">
        <ele>83.29</ele>
        <time>2013-03-24T09:54:24Z</time>
      </trkpt>
      <trkpt lat="48.40278" lon="2.59298">
        <ele>82.33</ele>
        <time>2013-03-24T09:54:27Z</time>
      </trkpt>
      <trkpt lat="48.40267" lon="2.59192">
        <ele>78.97</ele>
        <time>2013-03-24T09:54:36Z</time>
      </trkpt>
      <trkpt lat="48.40263" lon="2.59149">
        <ele>78</ele>
        <time>2013-03-24T09:54:40Z</time>
      </trkpt>
      <trkpt lat="48.40247" lon="2.59025">
        <ele>75.12</ele>
        <time>2013-03-24T09:54:50Z</time>
      </trkpt>
      <trkpt lat="48.40238" lon="2.58874">
        <ele>72.24</ele>
        <time>2013-03-24T09:55:03Z</time>
      </trkpt>
      <trkpt lat="48.40231" lon="2.58767">
        <ele>70.31</ele>
        <time>2013-03-24T09:55:14Z</time>
      </trkpt>
      <trkpt lat="48.40231" lon="2.58729">
        <ele>69.83</ele>
        <time>2013-03-24T09:55:18Z</time>
      </trkpt>
      <trkpt lat="48.40232" lon="2.5871">
        <ele>69.35</ele>
        <time>2013-03-24T09:55:20Z</time>
      </trkpt>
      <trkpt lat="48.40241" lon="2.58596">
        <ele>68.87</ele>
        <time>2013-03-24T09:55:33Z</time>
      </trkpt>
      <trkpt lat="48.4024" lon="2.58561">
        <ele>68.39</ele>
        <time>2013-03-24T09:55:38Z</time>
      </trkpt>
      <trkpt lat="48.40245" lon="2.58537">
        <ele>67.91</ele>
        <time>2013-03-24T09:55:41Z</time>
      </trkpt>
      <trkpt lat="48.40244" lon="2.58508">
        <ele>67.43</ele>
        <time>2013-03-24T09:55:45Z</time>
      </trkpt>
      <trkpt lat="48.40239" lon="2.5845">
        <ele>67.91</ele>
        <time>2013-03-24T09:55:52Z</time>
      </trkpt>
      <trkpt lat="48.40241" lon="2.58434">
        <ele>67.91</ele>
        <time>2013-03-24T09:55:54Z</time>
      </trkpt>
      <trkpt lat="48.40244" lon="2.58427">
        <ele>67.91</ele>
        <time>2013-03-24T09:55:55Z</time>
      </trkpt>
      <trkpt lat="48.4025" lon="2.58409">
        <ele>67.91</ele>
        <time>2013-03-24T09:55:58Z</time>
      </trkpt>
      <trkpt lat="48.40253" lon="2.58408">
        <ele>67.43</ele>
        <time>2013-03-24T09:55:59Z</time>
      </trkpt>
      <trkpt lat="48.40256" lon="2.58407">
        <ele>67.43</ele>
        <time>2013-03-24T09:56:00Z</time>
      </trkpt>
      <trkpt lat="48.4026" lon="2.58408">
        <ele>67.43</ele>
        <time>2013-03-24T09:56:01Z</time>
      </trkpt>
      <trkpt lat="48.40263" lon="2.5841">
        <ele>66.95</ele>
        <time>2013-03-24T09:56:02Z</time>
      </trkpt>
      <trkpt lat="48.40266" lon="2.58413">
        <ele>66.95</ele>
        <time>2013-03-24T09:56:03Z</time>
      </trkpt>
      <trkpt lat="48.40269" lon="2.58415">
        <ele>67.43</ele>
        <time>2013-03-24T09:56:04Z</time>
      </trkpt>
      <trkpt lat="48.40304" lon="2.58436">
        <ele>67.43</ele>
        <time>2013-03-24T09:56:15Z</time>
      </trkpt>
      <trkpt lat="48.40338" lon="2.58462">
        <ele>67.91</ele>
        <time>2013-03-24T09:56:27Z</time>
      </trkpt>
      <trkpt lat="48.40378" lon="2.58493">
        <ele>67.91</ele>
        <time>2013-03-24T09:56:37Z</time>
      </trkpt>
      <trkpt lat="48.40413" lon="2.58513">
        <ele>67.91</ele>
        <time>2013-03-24T09:56:44Z</time>
      </trkpt>
      <trkpt lat="48.40419" lon="2.58516">
        <ele>68.39</ele>
        <time>2013-03-24T09:56:45Z</time>
      </trkpt>
      <trkpt lat="48.40424" lon="2.58517">
        <ele>68.39</ele>
        <time>2013-03-24T09:56:46Z</time>
      </trkpt>
      <trkpt lat="48.40485" lon="2.58538">
        <ele>68.39</ele>
        <time>2013-03-24T09:56:59Z</time>
      </trkpt>
      <trkpt lat="48.40503" lon="2.58557">
        <ele>68.87</ele>
        <time>2013-03-24T09:57:04Z</time>
      </trkpt>
      <trkpt lat="48.40505" lon="2.58584">
        <ele>69.35</ele>
        <time>2013-03-24T09:57:10Z</time>
      </trkpt>
      <trkpt lat="48.40496" lon="2.58637">
        <ele>70.31</ele>
        <time>2013-03-24T09:57:19Z</time>
      </trkpt>
      <trkpt lat="48.40507" lon="2.58698">
        <ele>72.72</ele>
        <time>2013-03-24T09:57:31Z</time>
      </trkpt>
      <trkpt lat="48.40499" lon="2.58727">
        <ele>72.72</ele>
        <time>2013-03-24T09:57:37Z</time>
      </trkpt>
      <trkpt lat="48.40487" lon="2.58787">
        <ele>74.16</ele>
        <time>2013-03-24T09:57:49Z</time>
      </trkpt>
      <trkpt lat="48.40483" lon="2.58833">
        <ele>75.12</ele>
        <time>2013-03-24T09:57:58Z</time>
      </trkpt>
      <trkpt lat="48.40486" lon="2.58889">
        <ele>76.56</ele>
        <time>2013-03-24T09:58:09Z</time>
      </trkpt>
      <trkpt lat="48.40484" lon="2.58913">
        <ele>77.04</ele>
        <time>2013-03-24T09:58:15Z</time>
      </trkpt>
      <trkpt lat="48.40483" lon="2.58916">
        <ele>77.52</ele>
        <time>2013-03-24T09:58:16Z</time>
      </trkpt>
      <trkpt lat="48.40485" lon="2.58919">
        <ele>77.52</ele>
        <time>2013-03-24T09:58:17Z</time>
      </trkpt>
      <trkpt lat="48.40484" lon="2.58927">
        <ele>77.52</ele>
        <time>2013-03-24T09:58:18Z</time>
      </trkpt>
      <trkpt lat="48.4049" lon="2.58938">
        <ele>79.45</ele>
        <time>2013-03-24T09:58:25Z</time>
      </trkpt>
      <trkpt lat="48.40492" lon="2.58939">
        <ele>79.45</ele>
        <time>2013-03-24T09:58:26Z</time>
      </trkpt>
      <trkpt lat="48.40497" lon="2.58943">
        <ele>79.45</ele>
        <time>2013-03-24T09:58:28Z</time>
      </trkpt>
      <trkpt lat="48.40533" lon="2.58976">
        <ele>81.37</ele>
        <time>2013-03-24T09:58:43Z</time>
      </trkpt>
      <trkpt lat="48.40543" lon="2.58995">
        <ele>82.33</ele>
        <time>2013-03-24T09:58:49Z</time>
      </trkpt>
      <trkpt lat="48.40548" lon="2.59001">
        <ele>83.29</ele>
        <time>2013-03-24T09:58:52Z</time>
      </trkpt>
      <trkpt lat="48.4055" lon="2.59003">
        <ele>83.29</ele>
        <time>2013-03-24T09:58:53Z</time>
      </trkpt>
      <trkpt lat="48.40556" lon="2.59008">
        <ele>83.77</ele>
        <time>2013-03-24T09:58:56Z</time>
      </trkpt>
      <trkpt lat="48.40558" lon="2.59008">
        <ele>84.25</ele>
        <time>2013-03-24T09:58:57Z</time>
      </trkpt>
      <trkpt lat="48.4056" lon="2.59009">
        <ele>84.73</ele>
        <time>2013-03-24T09:58:58Z</time>
      </trkpt>
      <trkpt lat="48.40567" lon="2.59006">
        <ele>85.21</ele>
        <time>2013-03-24T09:59:03Z</time>
      </trkpt>
      <trkpt lat="48.4057" lon="2.59004">
        <ele>85.21</ele>
        <time>2013-03-24T09:59:05Z</time>
      </trkpt>
      <trkpt lat="48.40583" lon="2.59005">
        <ele>87.62</ele>
        <time>2013-03-24T09:59:16Z</time>
      </trkpt>
      <trkpt lat="48.40614" lon="2.59014">
        <ele>90.98</ele>
        <time>2013-03-24T09:59:29Z</time>
      </trkpt>
      <trkpt lat="48.40633" lon="2.59034">
        <ele>92.9</ele>
        <time>2013-03-24T09:59:43Z</time>
      </trkpt>
      <trkpt lat="48.40639" lon="2.5906">
        <ele>95.79</ele>
        <time>2013-03-24T09:59:58Z</time>
      </trkpt>
      <trkpt lat="48.40638" lon="2.59067">
        <ele>96.27</ele>
        <time>2013-03-24T10:00:01Z</time>
      </trkpt>
      <trkpt lat="48.4063" lon="2.59104">
        <ele>98.19</ele>
        <time>2013-03-24T10:00:17Z</time>
      </trkpt>
      <trkpt lat="48.40625" lon="2.59134">
        <ele>101.08</ele>
        <time>2013-03-24T10:00:32Z</time>
      </trkpt>
      <trkpt lat="48.4062" lon="2.59175">
        <ele>103.96</ele>
        <time>2013-03-24T10:00:47Z</time>
      </trkpt>
      <trkpt lat="48.40626" lon="2.59188">
        <ele>104.92</ele>
        <time>2013-03-24T10:00:54Z</time>
      </trkpt>
      <trkpt lat="48.40639" lon="2.59201">
        <ele>107.32</ele>
        <time>2013-03-24T10:01:06Z</time>
      </trkpt>
      <trkpt lat="48.4064" lon="2.59202">
        <ele>107.81</ele>
        <time>2013-03-24T10:01:07Z</time>
      </trkpt>
      <trkpt lat="48.40655" lon="2.59206">
        <ele>109.25</ele>
        <time>2013-03-24T10:01:20Z</time>
      </trkpt>
      <trkpt lat="48.40667" lon="2.59224">
        <ele>107.32</ele>
        <time>2013-03-24T10:01:29Z</time>
      </trkpt>
      <trkpt lat="48.40669" lon="2.59225">
        <ele>106.36</ele>
        <time>2013-03-24T10:01:30Z</time>
      </trkpt>
      <trkpt lat="48.40673" lon="2.59224">
        <ele>105.88</ele>
        <time>2013-03-24T10:01:32Z</time>
      </trkpt>
      <trkpt lat="48.40675" lon="2.59222">
        <ele>105.4</ele>
        <time>2013-03-24T10:01:33Z</time>
      </trkpt>
      <trkpt lat="48.40683" lon="2.59211">
        <ele>103</ele>
        <time>2013-03-24T10:01:36Z</time>
      </trkpt>
      <trkpt lat="48.40687" lon="2.59206">
        <ele>101.56</ele>
        <time>2013-03-24T10:01:37Z</time>
      </trkpt>
      <trkpt lat="48.40692" lon="2.59201">
        <ele>101.56</ele>
        <time>2013-03-24T10:01:38Z</time>
      </trkpt>
      <trkpt lat="48.40696" lon="2.59198">
        <ele>100.6</ele>
        <time>2013-03-24T10:01:39Z</time>
      </trkpt>
      <trkpt lat="48.40701" lon="2.59197">
        <ele>100.11</ele>
        <time>2013-03-24T10:01:40Z</time>
      </trkpt>
      <trkpt lat="48.40706" lon="2.59199">
        <ele>99.63</ele>
        <time>2013-03-24T10:01:41Z</time>
      </trkpt>
      <trkpt lat="48.40718" lon="2.59213">
        <ele>96.27</ele>
        <time>2013-03-24T10:01:44Z</time>
      </trkpt>
      <trkpt lat="48.40726" lon="2.59226">
        <ele>93.39</ele>
        <time>2013-03-24T10:01:46Z</time>
      </trkpt>
      <trkpt lat="48.40728" lon="2.59233">
        <ele>93.39</ele>
        <time>2013-03-24T10:01:47Z</time>
      </trkpt>
      <trkpt lat="48.4073" lon="2.59243">
        <ele>91.94</ele>
        <time>2013-03-24T10:01:48Z</time>
      </trkpt>
      <trkpt lat="48.40734" lon="2.59251">
        <ele>90.98</ele>
        <time>2013-03-24T10:01:49Z</time>
      </trkpt>
      <trkpt lat="48.4074" lon="2.59259">
        <ele>89.06</ele>
        <time>2013-03-24T10:01:50Z</time>
      </trkpt>
      <trkpt lat="48.40747" lon="2.59265">
        <ele>86.18</ele>
        <time>2013-03-24T10:01:51Z</time>
      </trkpt>
      <trkpt lat="48.40754" lon="2.59271">
        <ele>85.21</ele>
        <time>2013-03-24T10:01:52Z</time>
      </trkpt>
      <trkpt lat="48.40769" lon="2.59281">
        <ele>82.81</ele>
        <time>2013-03-24T10:01:54Z</time>
      </trkpt>
      <trkpt lat="48.40777" lon="2.59281">
        <ele>80.89</ele>
        <time>2013-03-24T10:01:55Z</time>
      </trkpt>
      <trkpt lat="48.40786" lon="2.59278">
        <ele>79.93</ele>
        <time>2013-03-24T10:01:56Z</time>
      </trkpt>
      <trkpt lat="48.40805" lon="2.59269">
        <ele>76.08</ele>
        <time>2013-03-24T10:01:58Z</time>
      </trkpt>
      <trkpt lat="48.40837" lon="2.59254">
        <ele>74.16</ele>
        <time>2013-03-24T10:02:01Z</time>
      </trkpt>
      <trkpt lat="48.4087" lon="2.59233">
        <ele>72.24</ele>
        <time>2013-03-24T10:02:04Z</time>
      </trkpt>
      <trkpt lat="48.40882" lon="2.59226">
        <ele>70.79</ele>
        <time>2013-03-24T10:02:05Z</time>
      </trkpt>
      <trkpt lat="48.40904" lon="2.59212">
        <ele>68.87</ele>
        <time>2013-03-24T10:02:07Z</time>
      </trkpt>
      <trkpt lat="48.40914" lon="2.59207">
        <ele>67.43</ele>
        <time>2013-03-24T10:02:08Z</time>
      </trkpt>
      <trkpt lat="48.40925" lon="2.59204">
        <ele>67.43</ele>
        <time>2013-03-24T10:02:09Z</time>
      </trkpt>
      <trkpt lat="48.40947" lon="2.59196">
        <ele>70.79</ele>
        <time>2013-03-24T10:02:11Z</time>
      </trkpt>
      <trkpt lat="48.40968" lon="2.59187">
        <ele>71.27</ele>
        <time>2013-03-24T10:02:13Z</time>
      </trkpt>
      <trkpt lat="48.40975" lon="2.59183">
        <ele>68.87</ele>
        <time>2013-03-24T10:02:14Z</time>
      </trkpt>
      <trkpt lat="48.40979" lon="2.5918">
        <ele>68.87</ele>
        <time>2013-03-24T10:02:15Z</time>
      </trkpt>
      <trkpt lat="48.4099" lon="2.59184">
        <ele>69.35</ele>
        <time>2013-03-24T10:02:22Z</time>
      </trkpt>
      <trkpt lat="48.4099" lon="2.59187">
        <ele>69.35</ele>
        <time>2013-03-24T10:02:43Z</time>
      </trkpt>
      <trkpt lat="48.40985" lon="2.59199">
        <ele>70.31</ele>
        <time>2013-03-24T10:03:04Z</time>
      </trkpt>
      <trkpt lat="48.40984" lon="2.59201">
        <ele>70.31</ele>
        <time>2013-03-24T10:03:29Z</time>
      </trkpt>
      <trkpt lat="48.40983" lon="2.59204">
        <ele>70.79</ele>
        <time>2013-03-24T10:03:42Z</time>
      </trkpt>
      <trkpt lat="48.40982" lon="2.59206">
        <ele>71.27</ele>
        <time>2013-03-24T10:03:43Z</time>
      </trkpt>
      <trkpt lat="48.40982" lon="2.59207">
        <ele>70.79</ele>
        <time>2013-03-24T10:03:44Z</time>
      </trkpt>
      <trkpt lat="48.40974" lon="2.59249">
        <ele>70.31</ele>
        <time>2013-03-24T10:03:58Z</time>
      </trkpt>
      <trkpt lat="48.40972" lon="2.59267">
        <ele>70.31</ele>
        <time>2013-03-24T10:04:05Z</time>
      </trkpt>
      <trkpt lat="48.40965" lon="2.59323">
        <ele>71.27</ele>
        <time>2013-03-24T10:04:20Z</time>
      </trkpt>
      <trkpt lat="48.40953" lon="2.59399">
        <ele>70.79</ele>
        <time>2013-03-24T10:04:34Z</time>
      </trkpt>
      <trkpt lat="48.40953" lon="2.59445">
        <ele>70.31</ele>
        <time>2013-03-24T10:04:40Z</time>
      </trkpt>
      <trkpt lat="48.40956" lon="2.59537">
        <ele>70.31</ele>
        <time>2013-03-24T10:04:54Z</time>
      </trkpt>
      <trkpt lat="48.40973" lon="2.59601">
        <ele>70.79</ele>
        <time>2013-03-24T10:05:05Z</time>
      </trkpt>
      <trkpt lat="48.40982" lon="2.59618">
        <ele>71.27</ele>
        <time>2013-03-24T10:05:08Z</time>
      </trkpt>
      <trkpt lat="48.41036" lon="2.59703">
        <ele>71.27</ele>
        <time>2013-03-24T10:05:23Z</time>
      </trkpt>
      <trkpt lat="48.41082" lon="2.59779">
        <ele>71.27</ele>
        <time>2013-03-24T10:05:37Z</time>
      </trkpt>
      <trkpt lat="48.41105" lon="2.59842">
        <ele>71.27</ele>
        <time>2013-03-24T10:05:48Z</time>
      </trkpt>
      <trkpt lat="48.41126" lon="2.59881">
        <ele>71.76</ele>
        <time>2013-03-24T10:05:59Z</time>
      </trkpt>
      <trkpt lat="48.4116" lon="2.59936">
        <ele>71.76</ele>
        <time>2013-03-24T10:06:12Z</time>
      </trkpt>
      <trkpt lat="48.41192" lon="2.59992">
        <ele>71.76</ele>
        <time>2013-03-24T10:06:23Z</time>
      </trkpt>
      <trkpt lat="48.4122" lon="2.60043">
        <ele>72.24</ele>
        <time>2013-03-24T10:06:34Z</time>
      </trkpt>
      <trkpt lat="48.4126" lon="2.60112">
        <ele>72.72</ele>
        <time>2013-03-24T10:06:47Z</time>
      </trkpt>
      <trkpt lat="48.41293" lon="2.60172">
        <ele>72.72</ele>
        <time>2013-03-24T10:06:59Z</time>
      </trkpt>
      <trkpt lat="48.41334" lon="2.60244">
        <ele>73.68</ele>
        <time>2013-03-24T10:07:13Z</time>
      </trkpt>
      <trkpt lat="48.41367" lon="2.60306">
        <ele>73.68</ele>
        <time>2013-03-24T10:07:27Z</time>
      </trkpt>
      <trkpt lat="48.41388" lon="2.60355">
        <ele>73.68</ele>
        <time>2013-03-24T10:07:38Z</time>
      </trkpt>
      <trkpt lat="48.41376" lon="2.60409">
        <ele>74.16</ele>
        <time>2013-03-24T10:07:49Z</time>
      </trkpt>
      <trkpt lat="48.41358" lon="2.60476">
        <ele>74.16</ele>
        <time>2013-03-24T10:08:01Z</time>
      </trkpt>
      <trkpt lat="48.41344" lon="2.60548">
        <ele>74.64</ele>
        <time>2013-03-24T10:08:14Z</time>
      </trkpt>
      <trkpt lat="48.41325" lon="2.60613">
        <ele>75.12</ele>
        <time>2013-03-24T10:08:26Z</time>
      </trkpt>
      <trkpt lat="48.41314" lon="2.60695">
        <ele>75.6</ele>
        <time>2013-03-24T10:08:39Z</time>
      </trkpt>
      <trkpt lat="48.413" lon="2.60779">
        <ele>76.08</ele>
        <time>2013-03-24T10:08:52Z</time>
      </trkpt>
      <trkpt lat="48.41287" lon="2.60834">
        <ele>76.08</ele>
        <time>2013-03-24T10:09:03Z</time>
      </trkpt>
      <trkpt lat="48.41284" lon="2.60863">
        <ele>76.56</ele>
        <time>2013-03-24T10:09:11Z</time>
      </trkpt>
      <trkpt lat="48.41277" lon="2.60871">
        <ele>76.08</ele>
        <time>2013-03-24T10:09:24Z</time>
      </trkpt>
      <trkpt lat="48.41275" lon="2.60869">
        <ele>76.08</ele>
        <time>2013-03-24T10:09:44Z</time>
      </trkpt>
      <trkpt lat="48.41271" lon="2.6087">
        <ele>76.08</ele>
        <time>2013-03-24T10:09:58Z</time>
      </trkpt>
      <trkpt lat="48.41276" lon="2.60876">
        <ele>76.08</ele>
        <time>2013-03-24T10:10:14Z</time>
      </trkpt>
      <trkpt lat="48.41273" lon="2.60876">
        <ele>76.08</ele>
        <time>2013-03-24T10:10:32Z</time>
      </trkpt>
      <trkpt lat="48.41272" lon="2.60878">
        <ele>76.08</ele>
        <time>2013-03-24T10:10:49Z</time>
      </trkpt>
      <trkpt lat="48.41271" lon="2.60878">
        <ele>76.56</ele>
        <time>2013-03-24T10:11:05Z</time>
      </trkpt>
      <trkpt lat="48.4127" lon="2.60883">
        <ele>76.08</ele>
        <time>2013-03-24T10:11:20Z</time>
      </trkpt>
      <trkpt lat="48.41272" lon="2.60882">
        <ele>76.56</ele>
        <time>2013-03-24T10:11:34Z</time>
      </trkpt>
      <trkpt lat="48.41273" lon="2.60882">
        <ele>76.08</ele>
        <time>2013-03-24T10:11:49Z</time>
      </trkpt>
      <trkpt lat="48.41274" lon="2.60882">
        <ele>72.24</ele>
        <time>2013-03-24T10:11:51Z</time>
      </trkpt>
      <trkpt lat="48.41274" lon="2.60882">
        <ele>78</ele>
        <time>2013-03-24T10:11:52Z</time>
      </trkpt>
      <trkpt lat="48.41274" lon="2.60882">
        <ele>77.52</ele>
        <time>2013-03-24T10:11:55Z</time>
      </trkpt>
      <trkpt lat="48.41276" lon="2.60882">
        <ele>76.08</ele>
        <time>2013-03-24T10:11:56Z</time>
      </trkpt>
      <trkpt lat="48.41278" lon="2.60882">
        <ele>76.56</ele>
        <time>2013-03-24T10:11:57Z</time>
      </trkpt>
      <trkpt lat="48.41282" lon="2.60883">
        <ele>76.56</ele>
        <time>2013-03-24T10:12:11Z</time>
      </trkpt>
      <trkpt lat="48.41281" lon="2.60885">
        <ele>76.56</ele>
        <time>2013-03-24T10:12:27Z</time>
      </trkpt>
      <trkpt lat="48.41282" lon="2.60886">
        <ele>76.56</ele>
        <time>2013-03-24T10:12:45Z</time>
      </trkpt>
      <trkpt lat="48.41276" lon="2.60885">
        <ele>76.56</ele>
        <time>2013-03-24T10:13:01Z</time>
      </trkpt>
      <trkpt lat="48.41276" lon="2.60885">
        <ele>76.56</ele>
        <time>2013-03-24T10:13:24Z</time>
      </trkpt>
      <trkpt lat="48.41277" lon="2.60885">
        <ele>76.56</ele>
        <time>2013-03-24T10:13:42Z</time>
      </trkpt>
      <trkpt lat="48.41278" lon="2.60883">
        <ele>77.04</ele>
        <time>2013-03-24T10:13:55Z</time>
      </trkpt>
      <trkpt lat="48.4128" lon="2.60879">
        <ele>76.56</ele>
        <time>2013-03-24T10:14:08Z</time>
      </trkpt>
      <trkpt lat="48.41277" lon="2.60871">
        <ele>76.56</ele>
        <time>2013-03-24T10:14:20Z</time>
      </trkpt>
      <trkpt lat="48.41277" lon="2.60867">
        <ele>76.56</ele>
        <time>2013-03-24T10:14:41Z</time>
      </trkpt>
      <trkpt lat="48.41277" lon="2.60862">
        <ele>76.56</ele>
        <time>2013-03-24T10:15:02Z</time>
      </trkpt>
      <trkpt lat="48.41277" lon="2.60862">
        <ele>76.56</ele>
        <time>2013-03-24T10:15:19Z</time>
      </trkpt>
      <trkpt lat="48.41277" lon="2.60865">
        <ele>77.04</ele>
        <time>2013-03-24T10:15:39Z</time>
      </trkpt>
      <trkpt lat="48.41276" lon="2.60867">
        <ele>76.56</ele>
        <time>2013-03-24T10:15:55Z</time>
      </trkpt>
      <trkpt lat="48.41274" lon="2.60869">
        <ele>77.04</ele>
        <time>2013-03-24T10:16:15Z</time>
      </trkpt>
      <trkpt lat="48.41275" lon="2.60873">
        <ele>77.04</ele>
        <time>2013-03-24T10:16:29Z</time>
      </trkpt>
      <trkpt lat="48.41275" lon="2.60871">
        <ele>77.04</ele>
        <time>2013-03-24T10:16:42Z</time>
      </trkpt>
      <trkpt lat="48.41277" lon="2.60872">
        <ele>77.04</ele>
        <time>2013-03-24T10:17:01Z</time>
      </trkpt>
      <trkpt lat="48.41278" lon="2.60872">
        <ele>77.04</ele>
        <time>2013-03-24T10:17:21Z</time>
      </trkpt>
      <trkpt lat="48.41278" lon="2.60876">
        <ele>77.04</ele>
        <time>2013-03-24T10:17:34Z</time>
      </trkpt>
      <trkpt lat="48.41274" lon="2.60879">
        <ele>77.04</ele>
        <time>2013-03-24T10:17:48Z</time>
      </trkpt>
      <trkpt lat="48.41275" lon="2.60881">
        <ele>77.04</ele>
        <time>2013-03-24T10:18:03Z</time>
      </trkpt>
      <trkpt lat="48.41277" lon="2.60882">
        <ele>77.04</ele>
        <time>2013-03-24T10:18:16Z</time>
      </trkpt>
      <trkpt lat="48.41277" lon="2.60874">
        <ele>77.52</ele>
        <time>2013-03-24T10:18:28Z</time>
      </trkpt>
      <trkpt lat="48.41276" lon="2.60872">
        <ele>76.56</ele>
        <time>2013-03-24T10:18:38Z</time>
      </trkpt>
      <trkpt lat="48.41277" lon="2.60873">
        <ele>77.04</ele>
        <time>2013-03-24T10:18:40Z</time>
      </trkpt>
      <trkpt lat="48.41278" lon="2.60874">
        <ele>77.52</ele>
        <time>2013-03-24T10:18:41Z</time>
      </trkpt>
      <trkpt lat="48.4128" lon="2.60876">
        <ele>77.04</ele>
        <time>2013-03-24T10:18:42Z</time>
      </trkpt>
      <trkpt lat="48.41282" lon="2.60877">
        <ele>77.04</ele>
        <time>2013-03-24T10:18:43Z</time>
      </trkpt>
      <trkpt lat="48.41284" lon="2.60879">
        <ele>77.04</ele>
        <time>2013-03-24T10:18:44Z</time>
      </trkpt>
      <trkpt lat="48.41286" lon="2.60882">
        <ele>77.04</ele>
        <time>2013-03-24T10:18:45Z</time>
      </trkpt>
      <trkpt lat="48.41287" lon="2.60885">
        <ele>77.04</ele>
        <time>2013-03-24T10:18:46Z</time>
      </trkpt>
      <trkpt lat="48.41287" lon="2.60889">
        <ele>77.52</ele>
        <time>2013-03-24T10:18:47Z</time>
      </trkpt>
      <trkpt lat="48.41288" lon="2.60892">
        <ele>77.52</ele>
        <time>2013-03-24T10:18:48Z</time>
      </trkpt>
      <trkpt lat="48.41289" lon="2.60894">
        <ele>77.52</ele>
        <time>2013-03-24T10:18:49Z</time>
      </trkpt>
      <trkpt lat="48.4129" lon="2.60895">
        <ele>77.52</ele>
        <time>2013-03-24T10:18:50Z</time>
      </trkpt>
      <trkpt lat="48.41305" lon="2.60934">
        <ele>78.48</ele>
        <time>2013-03-24T10:19:03Z</time>
      </trkpt>
      <trkpt lat="48.41329" lon="2.61009">
        <ele>78.97</ele>
        <time>2013-03-24T10:19:17Z</time>
      </trkpt>
      <trkpt lat="48.41344" lon="2.61056">
        <ele>79.93</ele>
        <time>2013-03-24T10:19:28Z</time>
      </trkpt>
      <trkpt lat="48.41363" lon="2.6112">
        <ele>82.33</ele>
        <time>2013-03-24T10:19:43Z</time>
      </trkpt>
      <trkpt lat="48.41374" lon="2.61171">
        <ele>84.73</ele>
        <time>2013-03-24T10:19:58Z</time>
      </trkpt>
      <trkpt lat="48.41382" lon="2.61193">
        <ele>85.69</ele>
        <time>2013-03-24T10:20:05Z</time>
      </trkpt>
      <trkpt lat="48.41383" lon="2.61198">
        <ele>85.69</ele>
        <time>2013-03-24T10:20:06Z</time>
      </trkpt>
      <trkpt lat="48.41383" lon="2.61201">
        <ele>85.69</ele>
        <time>2013-03-24T10:20:07Z</time>
      </trkpt>
      <trkpt lat="48.41395" lon="2.61244">
        <ele>88.58</ele>
        <time>2013-03-24T10:20:22Z</time>
      </trkpt>
      <trkpt lat="48.41405" lon="2.61274">
        <ele>90.98</ele>
        <time>2013-03-24T10:20:35Z</time>
      </trkpt>
      <trkpt lat="48.41406" lon="2.61276">
        <ele>91.46</ele>
        <time>2013-03-24T10:20:36Z</time>
      </trkpt>
      <trkpt lat="48.41406" lon="2.61279">
        <ele>91.46</ele>
        <time>2013-03-24T10:20:37Z</time>
      </trkpt>
      <trkpt lat="48.41415" lon="2.61296">
        <ele>92.9</ele>
        <time>2013-03-24T10:20:46Z</time>
      </trkpt>
      <trkpt lat="48.41416" lon="2.61302">
        <ele>93.39</ele>
        <time>2013-03-24T10:20:49Z</time>
      </trkpt>
      <trkpt lat="48.41417" lon="2.61305">
        <ele>93.87</ele>
        <time>2013-03-24T10:20:50Z</time>
      </trkpt>
      <trkpt lat="48.41418" lon="2.61307">
        <ele>93.87</ele>
        <time>2013-03-24T10:20:51Z</time>
      </trkpt>
      <trkpt lat="48.41423" lon="2.61334">
        <ele>96.27</ele>
        <time>2013-03-24T10:21:03Z</time>
      </trkpt>
      <trkpt lat="48.41427" lon="2.61349">
        <ele>97.71</ele>
        <time>2013-03-24T10:21:10Z</time>
      </trkpt>
      <trkpt lat="48.41433" lon="2.61369">
        <ele>100.6</ele>
        <time>2013-03-24T10:21:22Z</time>
      </trkpt>
      <trkpt lat="48.41433" lon="2.61394">
        <ele>103.96</ele>
        <time>2013-03-24T10:21:35Z</time>
      </trkpt>
      <trkpt lat="48.41427" lon="2.61421">
        <ele>106.36</ele>
        <time>2013-03-24T10:21:49Z</time>
      </trkpt>
      <trkpt lat="48.41425" lon="2.61447">
        <ele>108.77</ele>
        <time>2013-03-24T10:22:03Z</time>
      </trkpt>
      <trkpt lat="48.41422" lon="2.61471">
        <ele>110.21</ele>
        <time>2013-03-24T10:22:14Z</time>
      </trkpt>
      <trkpt lat="48.41423" lon="2.61479">
        <ele>110.69</ele>
        <time>2013-03-24T10:22:17Z</time>
      </trkpt>
      <trkpt lat="48.41424" lon="2.61491">
        <ele>111.17</ele>
        <time>2013-03-24T10:22:22Z</time>
      </trkpt>
      <trkpt lat="48.41424" lon="2.61493">
        <ele>111.65</ele>
        <time>2013-03-24T10:22:23Z</time>
      </trkpt>
      <trkpt lat="48.41424" lon="2.61497">
        <ele>111.65</ele>
        <time>2013-03-24T10:22:24Z</time>
      </trkpt>
      <trkpt lat="48.41425" lon="2.615">
        <ele>112.13</ele>
        <time>2013-03-24T10:22:25Z</time>
      </trkpt>
      <trkpt lat="48.41425" lon="2.61504">
        <ele>112.13</ele>
        <time>2013-03-24T10:22:26Z</time>
      </trkpt>
      <trkpt lat="48.41427" lon="2.61532">
        <ele>113.57</ele>
        <time>2013-03-24T10:22:36Z</time>
      </trkpt>
      <trkpt lat="48.41427" lon="2.61534">
        <ele>113.57</ele>
        <time>2013-03-24T10:22:37Z</time>
      </trkpt>
      <trkpt lat="48.41437" lon="2.61572">
        <ele>115.01</ele>
        <time>2013-03-24T10:22:51Z</time>
      </trkpt>
      <trkpt lat="48.41438" lon="2.61577">
        <ele>115.5</ele>
        <time>2013-03-24T10:22:54Z</time>
      </trkpt>
      <trkpt lat="48.41441" lon="2.61582">
        <ele>115.01</ele>
        <time>2013-03-24T10:22:56Z</time>
      </trkpt>
      <trkpt lat="48.41442" lon="2.61585">
        <ele>115.5</ele>
        <time>2013-03-24T10:22:57Z</time>
      </trkpt>
      <trkpt lat="48.41443" lon="2.61588">
        <ele>115.5</ele>
        <time>2013-03-24T10:22:58Z</time>
      </trkpt>
      <trkpt lat="48.41445" lon="2.6159">
        <ele>115.5</ele>
        <time>2013-03-24T10:22:59Z</time>
      </trkpt>
      <trkpt lat="48.41446" lon="2.61592">
        <ele>115.5</ele>
        <time>2013-03-24T10:23:00Z</time>
      </trkpt>
      <trkpt lat="48.41448" lon="2.61594">
        <ele>115.5</ele>
        <time>2013-03-24T10:23:01Z</time>
      </trkpt>
      <trkpt lat="48.41449" lon="2.61596">
        <ele>115.5</ele>
        <time>2013-03-24T10:23:02Z</time>
      </trkpt>
      <trkpt lat="48.41467" lon="2.61624">
        <ele>115.01</ele>
        <time>2013-03-24T10:23:15Z</time>
      </trkpt>
      <trkpt lat="48.41468" lon="2.61626">
        <ele>114.53</ele>
        <time>2013-03-24T10:23:16Z</time>
      </trkpt>
      <trkpt lat="48.41469" lon="2.61628">
        <ele>114.53</ele>
        <time>2013-03-24T10:23:17Z</time>
      </trkpt>
      <trkpt lat="48.41492" lon="2.61692">
        <ele>112.13</ele>
        <time>2013-03-24T10:23:32Z</time>
      </trkpt>
      <trkpt lat="48.41523" lon="2.61761">
        <ele>110.69</ele>
        <time>2013-03-24T10:23:45Z</time>
      </trkpt>
      <trkpt lat="48.41546" lon="2.61811">
        <ele>108.29</ele>
        <time>2013-03-24T10:23:55Z</time>
      </trkpt>
      <trkpt lat="48.41559" lon="2.61844">
        <ele>104.92</ele>
        <time>2013-03-24T10:23:59Z</time>
      </trkpt>
      <trkpt lat="48.41578" lon="2.61883">
        <ele>102.52</ele>
        <time>2013-03-24T10:24:03Z</time>
      </trkpt>
      <trkpt lat="48.41605" lon="2.61927">
        <ele>98.19</ele>
        <time>2013-03-24T10:24:08Z</time>
      </trkpt>
      <trkpt lat="48.41627" lon="2.61955">
        <ele>95.31</ele>
        <time>2013-03-24T10:24:12Z</time>
      </trkpt>
      <trkpt lat="48.41631" lon="2.61958">
        <ele>95.31</ele>
        <time>2013-03-24T10:24:13Z</time>
      </trkpt>
      <trkpt lat="48.41636" lon="2.61962">
        <ele>94.83</ele>
        <time>2013-03-24T10:24:14Z</time>
      </trkpt>
      <trkpt lat="48.41643" lon="2.61962">
        <ele>94.83</ele>
        <time>2013-03-24T10:24:24Z</time>
      </trkpt>
      <trkpt lat="48.41642" lon="2.61963">
        <ele>94.83</ele>
        <time>2013-03-24T10:24:35Z</time>
      </trkpt>
      <trkpt lat="48.41643" lon="2.61965">
        <ele>94.83</ele>
        <time>2013-03-24T10:24:36Z</time>
      </trkpt>
      <trkpt lat="48.41645" lon="2.61967">
        <ele>94.83</ele>
        <time>2013-03-24T10:24:37Z</time>
      </trkpt>
      <trkpt lat="48.41646" lon="2.61968">
        <ele>94.83</ele>
        <time>2013-03-24T10:24:38Z</time>
      </trkpt>
      <trkpt lat="48.41647" lon="2.6197">
        <ele>94.83</ele>
        <time>2013-03-24T10:24:39Z</time>
      </trkpt>
      <trkpt lat="48.41649" lon="2.61972">
        <ele>94.83</ele>
        <time>2013-03-24T10:24:40Z</time>
      </trkpt>
      <trkpt lat="48.41675" lon="2.62001">
        <ele>93.39</ele>
        <time>2013-03-24T10:24:49Z</time>
      </trkpt>
      <trkpt lat="48.41719" lon="2.62058">
        <ele>90.98</ele>
        <time>2013-03-24T10:25:03Z</time>
      </trkpt>
      <trkpt lat="48.41752" lon="2.62109">
        <ele>90.5</ele>
        <time>2013-03-24T10:25:14Z</time>
      </trkpt>
      <trkpt lat="48.41756" lon="2.62113">
        <ele>88.1</ele>
        <time>2013-03-24T10:25:15Z</time>
      </trkpt>
      <trkpt lat="48.4176" lon="2.62117">
        <ele>91.94</ele>
        <time>2013-03-24T10:25:16Z</time>
      </trkpt>
      <trkpt lat="48.41764" lon="2.6212">
        <ele>90.02</ele>
        <time>2013-03-24T10:25:17Z</time>
      </trkpt>
      <trkpt lat="48.41769" lon="2.62125">
        <ele>90.02</ele>
        <time>2013-03-24T10:25:18Z</time>
      </trkpt>
      <trkpt lat="48.41838" lon="2.62187">
        <ele>88.1</ele>
        <time>2013-03-24T10:25:32Z</time>
      </trkpt>
      <trkpt lat="48.41869" lon="2.62217">
        <ele>87.62</ele>
        <time>2013-03-24T10:25:39Z</time>
      </trkpt>
      <trkpt lat="48.41894" lon="2.62241">
        <ele>87.14</ele>
        <time>2013-03-24T10:25:45Z</time>
      </trkpt>
      <trkpt lat="48.41898" lon="2.62245">
        <ele>87.14</ele>
        <time>2013-03-24T10:25:46Z</time>
      </trkpt>
      <trkpt lat="48.41933" lon="2.62271">
        <ele>86.66</ele>
        <time>2013-03-24T10:25:56Z</time>
      </trkpt>
      <trkpt lat="48.41951" lon="2.62276">
        <ele>86.66</ele>
        <time>2013-03-24T10:26:06Z</time>
      </trkpt>
      <trkpt lat="48.41953" lon="2.62275">
        <ele>86.66</ele>
        <time>2013-03-24T10:26:07Z</time>
      </trkpt>
      <trkpt lat="48.41954" lon="2.62274">
        <ele>86.66</ele>
        <time>2013-03-24T10:26:08Z</time>
      </trkpt>
      <trkpt lat="48.41955" lon="2.62272">
        <ele>86.18</ele>
        <time>2013-03-24T10:26:09Z</time>
      </trkpt>
      <trkpt lat="48.41957" lon="2.62271">
        <ele>86.18</ele>
        <time>2013-03-24T10:26:10Z</time>
      </trkpt>
      <trkpt lat="48.41959" lon="2.6227">
        <ele>86.18</ele>
        <time>2013-03-24T10:26:11Z</time>
      </trkpt>
      <trkpt lat="48.41961" lon="2.62269">
        <ele>86.18</ele>
        <time>2013-03-24T10:26:12Z</time>
      </trkpt>
      <trkpt lat="48.41963" lon="2.62267">
        <ele>86.18</ele>
        <time>2013-03-24T10:26:13Z</time>
      </trkpt>
      <trkpt lat="48.41965" lon="2.62266">
        <ele>86.18</ele>
        <time>2013-03-24T10:26:14Z</time>
      </trkpt>
      <trkpt lat="48.41967" lon="2.62264">
        <ele>86.18</ele>
        <time>2013-03-24T10:26:15Z</time>
      </trkpt>
      <trkpt lat="48.41968" lon="2.62263">
        <ele>86.18</ele>
        <time>2013-03-24T10:26:16Z</time>
      </trkpt>
      <trkpt lat="48.41969" lon="2.62262">
        <ele>86.66</ele>
        <time>2013-03-24T10:26:17Z</time>
      </trkpt>
      <trkpt lat="48.4197" lon="2.6226">
        <ele>86.18</ele>
        <time>2013-03-24T10:26:18Z</time>
      </trkpt>
      <trkpt lat="48.41971" lon="2.62258">
        <ele>86.66</ele>
        <time>2013-03-24T10:26:19Z</time>
      </trkpt>
      <trkpt lat="48.41973" lon="2.62255">
        <ele>86.18</ele>
        <time>2013-03-24T10:26:20Z</time>
      </trkpt>
      <trkpt lat="48.41975" lon="2.62253">
        <ele>86.18</ele>
        <time>2013-03-24T10:26:21Z</time>
      </trkpt>
      <trkpt lat="48.41978" lon="2.62251">
        <ele>86.18</ele>
        <time>2013-03-24T10:26:22Z</time>
      </trkpt>
      <trkpt lat="48.41981" lon="2.62249">
        <ele>85.69</ele>
        <time>2013-03-24T10:26:23Z</time>
      </trkpt>
      <trkpt lat="48.41984" lon="2.62247">
        <ele>86.18</ele>
        <time>2013-03-24T10:26:24Z</time>
      </trkpt>
      <trkpt lat="48.41989" lon="2.62244">
        <ele>85.69</ele>
        <time>2013-03-24T10:26:25Z</time>
      </trkpt>
      <trkpt lat="48.42052" lon="2.62217">
        <ele>85.21</ele>
        <time>2013-03-24T10:26:37Z</time>
      </trkpt>
      <trkpt lat="48.42107" lon="2.62187">
        <ele>86.18</ele>
        <time>2013-03-24T10:26:48Z</time>
      </trkpt>
      <trkpt lat="48.4216" lon="2.62156">
        <ele>87.14</ele>
        <time>2013-03-24T10:27:01Z</time>
      </trkpt>
      <trkpt lat="48.42204" lon="2.62128">
        <ele>89.06</ele>
        <time>2013-03-24T10:27:15Z</time>
      </trkpt>
      <trkpt lat="48.42241" lon="2.62101">
        <ele>90.02</ele>
        <time>2013-03-24T10:27:27Z</time>
      </trkpt>
      <trkpt lat="48.4225" lon="2.62095">
        <ele>90.02</ele>
        <time>2013-03-24T10:27:30Z</time>
      </trkpt>
      <trkpt lat="48.42261" lon="2.62093">
        <ele>90.02</ele>
        <time>2013-03-24T10:27:32Z</time>
      </trkpt>
      <trkpt lat="48.42263" lon="2.62091">
        <ele>90.02</ele>
        <time>2013-03-24T10:27:33Z</time>
      </trkpt>
      <trkpt lat="48.42306" lon="2.62069">
        <ele>91.46</ele>
        <time>2013-03-24T10:27:45Z</time>
      </trkpt>
      <trkpt lat="48.42342" lon="2.62034">
        <ele>91.46</ele>
        <time>2013-03-24T10:27:56Z</time>
      </trkpt>
      <trkpt lat="48.42381" lon="2.61997">
        <ele>92.42</ele>
        <time>2013-03-24T10:28:07Z</time>
      </trkpt>
      <trkpt lat="48.42388" lon="2.61983">
        <ele>91.94</ele>
        <time>2013-03-24T10:28:11Z</time>
      </trkpt>
      <trkpt lat="48.42391" lon="2.61981">
        <ele>92.42</ele>
        <time>2013-03-24T10:28:12Z</time>
      </trkpt>
      <trkpt lat="48.42438" lon="2.61936">
        <ele>92.9</ele>
        <time>2013-03-24T10:28:25Z</time>
      </trkpt>
      <trkpt lat="48.42478" lon="2.61895">
        <ele>94.35</ele>
        <time>2013-03-24T10:28:39Z</time>
      </trkpt>
      <trkpt lat="48.42513" lon="2.6186">
        <ele>97.23</ele>
        <time>2013-03-24T10:28:53Z</time>
      </trkpt>
      <trkpt lat="48.42544" lon="2.61827">
        <ele>99.63</ele>
        <time>2013-03-24T10:29:07Z</time>
      </trkpt>
      <trkpt lat="48.42572" lon="2.61796">
        <ele>101.56</ele>
        <time>2013-03-24T10:29:23Z</time>
      </trkpt>
      <trkpt lat="48.42596" lon="2.61769">
        <ele>103</ele>
        <time>2013-03-24T10:29:34Z</time>
      </trkpt>
      <trkpt lat="48.42621" lon="2.61736">
        <ele>103.96</ele>
        <time>2013-03-24T10:29:47Z</time>
      </trkpt>
      <trkpt lat="48.42637" lon="2.61691">
        <ele>104.44</ele>
        <time>2013-03-24T10:29:58Z</time>
      </trkpt>
      <trkpt lat="48.42654" lon="2.61636">
        <ele>104.92</ele>
        <time>2013-03-24T10:30:10Z</time>
      </trkpt>
      <trkpt lat="48.42664" lon="2.61609">
        <ele>104.92</ele>
        <time>2013-03-24T10:30:17Z</time>
      </trkpt>
      <trkpt lat="48.42665" lon="2.61604">
        <ele>104.92</ele>
        <time>2013-03-24T10:30:18Z</time>
      </trkpt>
      <trkpt lat="48.42666" lon="2.61598">
        <ele>104.44</ele>
        <time>2013-03-24T10:30:19Z</time>
      </trkpt>
      <trkpt lat="48.42668" lon="2.61591">
        <ele>104.92</ele>
        <time>2013-03-24T10:30:20Z</time>
      </trkpt>
      <trkpt lat="48.42668" lon="2.61582">
        <ele>104.44</ele>
        <time>2013-03-24T10:30:21Z</time>
      </trkpt>
      <trkpt lat="48.42668" lon="2.61574">
        <ele>104.44</ele>
        <time>2013-03-24T10:30:22Z</time>
      </trkpt>
      <trkpt lat="48.42669" lon="2.61567">
        <ele>103.96</ele>
        <time>2013-03-24T10:30:23Z</time>
      </trkpt>
      <trkpt lat="48.42678" lon="2.61487">
        <ele>104.44</ele>
        <time>2013-03-24T10:30:36Z</time>
      </trkpt>
      <trkpt lat="48.42685" lon="2.61395">
        <ele>104.92</ele>
        <time>2013-03-24T10:30:50Z</time>
      </trkpt>
      <trkpt lat="48.42692" lon="2.61345">
        <ele>104.92</ele>
        <time>2013-03-24T10:30:59Z</time>
      </trkpt>
      <trkpt lat="48.42708" lon="2.61317">
        <ele>106.36</ele>
        <time>2013-03-24T10:31:07Z</time>
      </trkpt>
      <trkpt lat="48.4271" lon="2.61312">
        <ele>106.36</ele>
        <time>2013-03-24T10:31:08Z</time>
      </trkpt>
      <trkpt lat="48.42711" lon="2.61308">
        <ele>106.36</ele>
        <time>2013-03-24T10:31:09Z</time>
      </trkpt>
      <trkpt lat="48.42727" lon="2.61259">
        <ele>108.29</ele>
        <time>2013-03-24T10:31:21Z</time>
      </trkpt>
      <trkpt lat="48.42733" lon="2.61241">
        <ele>109.73</ele>
        <time>2013-03-24T10:31:26Z</time>
      </trkpt>
      <trkpt lat="48.42734" lon="2.61239">
        <ele>110.21</ele>
        <time>2013-03-24T10:31:27Z</time>
      </trkpt>
      <trkpt lat="48.42735" lon="2.61236">
        <ele>110.21</ele>
        <time>2013-03-24T10:31:28Z</time>
      </trkpt>
      <trkpt lat="48.42735" lon="2.61234">
        <ele>110.69</ele>
        <time>2013-03-24T10:31:29Z</time>
      </trkpt>
      <trkpt lat="48.42736" lon="2.61231">
        <ele>110.69</ele>
        <time>2013-03-24T10:31:30Z</time>
      </trkpt>
      <trkpt lat="48.42737" lon="2.61229">
        <ele>110.69</ele>
        <time>2013-03-24T10:31:31Z</time>
      </trkpt>
      <trkpt lat="48.42738" lon="2.61226">
        <ele>111.17</ele>
        <time>2013-03-24T10:31:32Z</time>
      </trkpt>
      <trkpt lat="48.42739" lon="2.61223">
        <ele>111.17</ele>
        <time>2013-03-24T10:31:33Z</time>
      </trkpt>
      <trkpt lat="48.4274" lon="2.6122">
        <ele>111.17</ele>
        <time>2013-03-24T10:31:34Z</time>
      </trkpt>
      <trkpt lat="48.42746" lon="2.6118">
        <ele>114.05</ele>
        <time>2013-03-24T10:31:49Z</time>
      </trkpt>
      <trkpt lat="48.42752" lon="2.61137">
        <ele>115.01</ele>
        <time>2013-03-24T10:32:01Z</time>
      </trkpt>
      <trkpt lat="48.42758" lon="2.6109">
        <ele>115.5</ele>
        <time>2013-03-24T10:32:12Z</time>
      </trkpt>
      <trkpt lat="48.42758" lon="2.61086">
        <ele>115.5</ele>
        <time>2013-03-24T10:32:13Z</time>
      </trkpt>
      <trkpt lat="48.42758" lon="2.61082">
        <ele>115.5</ele>
        <time>2013-03-24T10:32:14Z</time>
      </trkpt>
      <trkpt lat="48.42759" lon="2.61079">
        <ele>115.5</ele>
        <time>2013-03-24T10:32:15Z</time>
      </trkpt>
      <trkpt lat="48.42759" lon="2.61076">
        <ele>115.5</ele>
        <time>2013-03-24T10:32:16Z</time>
      </trkpt>
      <trkpt lat="48.42759" lon="2.61025">
        <ele>117.42</ele>
        <time>2013-03-24T10:32:30Z</time>
      </trkpt>
      <trkpt lat="48.42764" lon="2.60967">
        <ele>120.3</ele>
        <time>2013-03-24T10:32:45Z</time>
      </trkpt>
      <trkpt lat="48.42781" lon="2.60945">
        <ele>122.22</ele>
        <time>2013-03-24T10:32:57Z</time>
      </trkpt>
      <trkpt lat="48.4279" lon="2.60922">
        <ele>122.22</ele>
        <time>2013-03-24T10:33:10Z</time>
      </trkpt>
      <trkpt lat="48.42791" lon="2.60915">
        <ele>122.22</ele>
        <time>2013-03-24T10:33:13Z</time>
      </trkpt>
      <trkpt lat="48.42792" lon="2.60911">
        <ele>122.22</ele>
        <time>2013-03-24T10:33:14Z</time>
      </trkpt>
      <trkpt lat="48.42797" lon="2.60892">
        <ele>122.22</ele>
        <time>2013-03-24T10:33:25Z</time>
      </trkpt>
      <trkpt lat="48.42797" lon="2.6089">
        <ele>122.22</ele>
        <time>2013-03-24T10:33:26Z</time>
      </trkpt>
      <trkpt lat="48.42798" lon="2.60887">
        <ele>122.22</ele>
        <time>2013-03-24T10:33:27Z</time>
      </trkpt>
      <trkpt lat="48.42799" lon="2.60885">
        <ele>122.22</ele>
        <time>2013-03-24T10:33:28Z</time>
      </trkpt>
      <trkpt lat="48.428" lon="2.60882">
        <ele>122.22</ele>
        <time>2013-03-24T10:33:29Z</time>
      </trkpt>
      <trkpt lat="48.42801" lon="2.60879">
        <ele>122.22</ele>
        <time>2013-03-24T10:33:30Z</time>
      </trkpt>
      <trkpt lat="48.42801" lon="2.60876">
        <ele>122.22</ele>
        <time>2013-03-24T10:33:31Z</time>
      </trkpt>
      <trkpt lat="48.42802" lon="2.60874">
        <ele>121.74</ele>
        <time>2013-03-24T10:33:32Z</time>
      </trkpt>
      <trkpt lat="48.42802" lon="2.60871">
        <ele>122.22</ele>
        <time>2013-03-24T10:33:33Z</time>
      </trkpt>
      <trkpt lat="48.42803" lon="2.60866">
        <ele>122.22</ele>
        <time>2013-03-24T10:33:35Z</time>
      </trkpt>
      <trkpt lat="48.42804" lon="2.60863">
        <ele>122.22</ele>
        <time>2013-03-24T10:33:36Z</time>
      </trkpt>
      <trkpt lat="48.42805" lon="2.60858">
        <ele>122.22</ele>
        <time>2013-03-24T10:33:38Z</time>
      </trkpt>
      <trkpt lat="48.42805" lon="2.60854">
        <ele>122.22</ele>
        <time>2013-03-24T10:33:39Z</time>
      </trkpt>
      <trkpt lat="48.42806" lon="2.6085">
        <ele>122.71</ele>
        <time>2013-03-24T10:33:40Z</time>
      </trkpt>
      <trkpt lat="48.42806" lon="2.60846">
        <ele>122.71</ele>
        <time>2013-03-24T10:33:41Z</time>
      </trkpt>
      <trkpt lat="48.42807" lon="2.60842">
        <ele>122.71</ele>
        <time>2013-03-24T10:33:42Z</time>
      </trkpt>
      <trkpt lat="48.42806" lon="2.60839">
        <ele>122.71</ele>
        <time>2013-03-24T10:33:43Z</time>
      </trkpt>
      <trkpt lat="48.42805" lon="2.60836">
        <ele>122.71</ele>
        <time>2013-03-24T10:33:44Z</time>
      </trkpt>
      <trkpt lat="48.42805" lon="2.60832">
        <ele>123.19</ele>
        <time>2013-03-24T10:33:45Z</time>
      </trkpt>
      <trkpt lat="48.42804" lon="2.60828">
        <ele>123.19</ele>
        <time>2013-03-24T10:33:46Z</time>
      </trkpt>
      <trkpt lat="48.42804" lon="2.60823">
        <ele>123.19</ele>
        <time>2013-03-24T10:33:47Z</time>
      </trkpt>
      <trkpt lat="48.42804" lon="2.60819">
        <ele>123.19</ele>
        <time>2013-03-24T10:33:48Z</time>
      </trkpt>
      <trkpt lat="48.42803" lon="2.60815">
        <ele>123.19</ele>
        <time>2013-03-24T10:33:49Z</time>
      </trkpt>
      <trkpt lat="48.42804" lon="2.60811">
        <ele>123.19</ele>
        <time>2013-03-24T10:33:50Z</time>
      </trkpt>
      <trkpt lat="48.42802" lon="2.6079">
        <ele>123.19</ele>
        <time>2013-03-24T10:33:56Z</time>
      </trkpt>
      <trkpt lat="48.42801" lon="2.60786">
        <ele>123.19</ele>
        <time>2013-03-24T10:33:57Z</time>
      </trkpt>
      <trkpt lat="48.42801" lon="2.60783">
        <ele>123.19</ele>
        <time>2013-03-24T10:33:58Z</time>
      </trkpt>
      <trkpt lat="48.42801" lon="2.60779">
        <ele>123.19</ele>
        <time>2013-03-24T10:33:59Z</time>
      </trkpt>
      <trkpt lat="48.42801" lon="2.60775">
        <ele>123.19</ele>
        <time>2013-03-24T10:34:00Z</time>
      </trkpt>
      <trkpt lat="48.42801" lon="2.60772">
        <ele>122.71</ele>
        <time>2013-03-24T10:34:01Z</time>
      </trkpt>
      <trkpt lat="48.42801" lon="2.60769">
        <ele>123.19</ele>
        <time>2013-03-24T10:34:02Z</time>
      </trkpt>
      <trkpt lat="48.42798" lon="2.60745">
        <ele>123.19</ele>
        <time>2013-03-24T10:34:11Z</time>
      </trkpt>
      <trkpt lat="48.42798" lon="2.60741">
        <ele>123.19</ele>
        <time>2013-03-24T10:34:12Z</time>
      </trkpt>
      <trkpt lat="48.42796" lon="2.60737">
        <ele>123.19</ele>
        <time>2013-03-24T10:34:13Z</time>
      </trkpt>
      <trkpt lat="48.42796" lon="2.60733">
        <ele>123.19</ele>
        <time>2013-03-24T10:34:14Z</time>
      </trkpt>
      <trkpt lat="48.42796" lon="2.60729">
        <ele>123.19</ele>
        <time>2013-03-24T10:34:15Z</time>
      </trkpt>
      <trkpt lat="48.42797" lon="2.60725">
        <ele>123.19</ele>
        <time>2013-03-24T10:34:16Z</time>
      </trkpt>
      <trkpt lat="48.42796" lon="2.6072">
        <ele>123.19</ele>
        <time>2013-03-24T10:34:17Z</time>
      </trkpt>
      <trkpt lat="48.42796" lon="2.60715">
        <ele>123.19</ele>
        <time>2013-03-24T10:34:18Z</time>
      </trkpt>
      <trkpt lat="48.42795" lon="2.6071">
        <ele>123.19</ele>
        <time>2013-03-24T10:34:19Z</time>
      </trkpt>
      <trkpt lat="48.42794" lon="2.60705">
        <ele>123.67</ele>
        <time>2013-03-24T10:34:20Z</time>
      </trkpt>
      <trkpt lat="48.42793" lon="2.60703">
        <ele>123.19</ele>
        <time>2013-03-24T10:34:21Z</time>
      </trkpt>
      <trkpt lat="48.42792" lon="2.607">
        <ele>123.19</ele>
        <time>2013-03-24T10:34:22Z</time>
      </trkpt>
      <trkpt lat="48.42791" lon="2.60696">
        <ele>123.19</ele>
        <time>2013-03-24T10:34:23Z</time>
      </trkpt>
      <trkpt lat="48.42789" lon="2.60662">
        <ele>122.71</ele>
        <time>2013-03-24T10:34:34Z</time>
      </trkpt>
      <trkpt lat="48.42788" lon="2.60659">
        <ele>122.71</ele>
        <time>2013-03-24T10:34:35Z</time>
      </trkpt>
      <trkpt lat="48.42788" lon="2.60652">
        <ele>122.71</ele>
        <time>2013-03-24T10:34:37Z</time>
      </trkpt>
      <trkpt lat="48.42788" lon="2.60648">
        <ele>122.71</ele>
        <time>2013-03-24T10:34:38Z</time>
      </trkpt>
      <trkpt lat="48.42787" lon="2.60645">
        <ele>122.71</ele>
        <time>2013-03-24T10:34:39Z</time>
      </trkpt>
      <trkpt lat="48.42787" lon="2.60642">
        <ele>122.71</ele>
        <time>2013-03-24T10:34:40Z</time>
      </trkpt>
      <trkpt lat="48.42786" lon="2.6064">
        <ele>122.71</ele>
        <time>2013-03-24T10:34:41Z</time>
      </trkpt>
      <trkpt lat="48.42778" lon="2.60598">
        <ele>122.22</ele>
        <time>2013-03-24T10:34:54Z</time>
      </trkpt>
      <trkpt lat="48.42775" lon="2.6055">
        <ele>121.26</ele>
        <time>2013-03-24T10:35:07Z</time>
      </trkpt>
      <trkpt lat="48.42779" lon="2.60538">
        <ele>120.78</ele>
        <time>2013-03-24T10:35:20Z</time>
      </trkpt>
      <trkpt lat="48.42779" lon="2.60536">
        <ele>120.78</ele>
        <time>2013-03-24T10:35:41Z</time>
      </trkpt>
      <trkpt lat="48.42781" lon="2.60537">
        <ele>121.26</ele>
        <time>2013-03-24T10:36:10Z</time>
      </trkpt>
      <trkpt lat="48.42788" lon="2.60516">
        <ele>120.78</ele>
        <time>2013-03-24T10:36:22Z</time>
      </trkpt>
      <trkpt lat="48.42789" lon="2.60512">
        <ele>121.26</ele>
        <time>2013-03-24T10:36:24Z</time>
      </trkpt>
      <trkpt lat="48.4279" lon="2.60509">
        <ele>121.26</ele>
        <time>2013-03-24T10:36:25Z</time>
      </trkpt>
      <trkpt lat="48.4279" lon="2.60506">
        <ele>120.78</ele>
        <time>2013-03-24T10:36:26Z</time>
      </trkpt>
      <trkpt lat="48.42798" lon="2.60471">
        <ele>119.82</ele>
        <time>2013-03-24T10:36:39Z</time>
      </trkpt>
      <trkpt lat="48.428" lon="2.60469">
        <ele>119.34</ele>
        <time>2013-03-24T10:36:40Z</time>
      </trkpt>
      <trkpt lat="48.42802" lon="2.60469">
        <ele>119.82</ele>
        <time>2013-03-24T10:36:41Z</time>
      </trkpt>
      <trkpt lat="48.42803" lon="2.6047">
        <ele>120.3</ele>
        <time>2013-03-24T10:36:42Z</time>
      </trkpt>
      <trkpt lat="48.42805" lon="2.60471">
        <ele>120.3</ele>
        <time>2013-03-24T10:36:43Z</time>
      </trkpt>
      <trkpt lat="48.4282" lon="2.60495">
        <ele>120.78</ele>
        <time>2013-03-24T10:36:55Z</time>
      </trkpt>
      <trkpt lat="48.42835" lon="2.60517">
        <ele>120.78</ele>
        <time>2013-03-24T10:37:08Z</time>
      </trkpt>
      <trkpt lat="48.42839" lon="2.6052">
        <ele>120.78</ele>
        <time>2013-03-24T10:37:10Z</time>
      </trkpt>
      <trkpt lat="48.4284" lon="2.60519">
        <ele>120.3</ele>
        <time>2013-03-24T10:37:11Z</time>
      </trkpt>
      <trkpt lat="48.42878" lon="2.60498">
        <ele>117.9</ele>
        <time>2013-03-24T10:37:25Z</time>
      </trkpt>
      <trkpt lat="48.42918" lon="2.60477">
        <ele>116.94</ele>
        <time>2013-03-24T10:37:37Z</time>
      </trkpt>
      <trkpt lat="48.42963" lon="2.60453">
        <ele>116.46</ele>
        <time>2013-03-24T10:37:48Z</time>
      </trkpt>
      <trkpt lat="48.43006" lon="2.60429">
        <ele>116.46</ele>
        <time>2013-03-24T10:38:01Z</time>
      </trkpt>
      <trkpt lat="48.43047" lon="2.60413">
        <ele>115.01</ele>
        <time>2013-03-24T10:38:15Z</time>
      </trkpt>
      <trkpt lat="48.43081" lon="2.60413">
        <ele>113.09</ele>
        <time>2013-03-24T10:38:23Z</time>
      </trkpt>
      <trkpt lat="48.4311" lon="2.60416">
        <ele>109.73</ele>
        <time>2013-03-24T10:38:30Z</time>
      </trkpt>
      <trkpt lat="48.43118" lon="2.60418">
        <ele>107.81</ele>
        <time>2013-03-24T10:38:32Z</time>
      </trkpt>
      <trkpt lat="48.43123" lon="2.6042">
        <ele>106.84</ele>
        <time>2013-03-24T10:38:33Z</time>
      </trkpt>
      <trkpt lat="48.43142" lon="2.60425">
        <ele>102.04</ele>
        <time>2013-03-24T10:38:36Z</time>
      </trkpt>
      <trkpt lat="48.43166" lon="2.6043">
        <ele>99.63</ele>
        <time>2013-03-24T10:38:39Z</time>
      </trkpt>
      <trkpt lat="48.43198" lon="2.60435">
        <ele>96.75</ele>
        <time>2013-03-24T10:38:43Z</time>
      </trkpt>
      <trkpt lat="48.43204" lon="2.60437">
        <ele>96.75</ele>
        <time>2013-03-24T10:38:44Z</time>
      </trkpt>
      <trkpt lat="48.43218" lon="2.60442">
        <ele>96.27</ele>
        <time>2013-03-24T10:38:47Z</time>
      </trkpt>
      <trkpt lat="48.43224" lon="2.60444">
        <ele>97.23</ele>
        <time>2013-03-24T10:38:50Z</time>
      </trkpt>
      <trkpt lat="48.43222" lon="2.60445">
        <ele>97.23</ele>
        <time>2013-03-24T10:38:51Z</time>
      </trkpt>
      <trkpt lat="48.4322" lon="2.60446">
        <ele>97.23</ele>
        <time>2013-03-24T10:38:52Z</time>
      </trkpt>
      <trkpt lat="48.43218" lon="2.60448">
        <ele>97.71</ele>
        <time>2013-03-24T10:38:53Z</time>
      </trkpt>
      <trkpt lat="48.43216" lon="2.60451">
        <ele>97.71</ele>
        <time>2013-03-24T10:38:54Z</time>
      </trkpt>
      <trkpt lat="48.43214" lon="2.60453">
        <ele>97.71</ele>
        <time>2013-03-24T10:38:55Z</time>
      </trkpt>
      <trkpt lat="48.43212" lon="2.60456">
        <ele>97.71</ele>
        <time>2013-03-24T10:38:56Z</time>
      </trkpt>
      <trkpt lat="48.43181" lon="2.60491">
        <ele>100.11</ele>
        <time>2013-03-24T10:39:09Z</time>
      </trkpt>
      <trkpt lat="48.43157" lon="2.60522">
        <ele>103</ele>
        <time>2013-03-24T10:39:21Z</time>
      </trkpt>
      <trkpt lat="48.43135" lon="2.60542">
        <ele>105.4</ele>
        <time>2013-03-24T10:39:31Z</time>
      </trkpt>
      <trkpt lat="48.43122" lon="2.60553">
        <ele>108.29</ele>
        <time>2013-03-24T10:39:39Z</time>
      </trkpt>
      <trkpt lat="48.43115" lon="2.60563">
        <ele>108.77</ele>
        <time>2013-03-24T10:39:44Z</time>
      </trkpt>
      <trkpt lat="48.43103" lon="2.60599">
        <ele>112.13</ele>
        <time>2013-03-24T10:39:58Z</time>
      </trkpt>
      <trkpt lat="48.43102" lon="2.60601">
        <ele>112.61</ele>
        <time>2013-03-24T10:39:59Z</time>
      </trkpt>
      <trkpt lat="48.43098" lon="2.60623">
        <ele>115.01</ele>
        <time>2013-03-24T10:40:10Z</time>
      </trkpt>
      <trkpt lat="48.43097" lon="2.60629">
        <ele>115.01</ele>
        <time>2013-03-24T10:40:12Z</time>
      </trkpt>
      <trkpt lat="48.43097" lon="2.60632">
        <ele>114.53</ele>
        <time>2013-03-24T10:40:13Z</time>
      </trkpt>
      <trkpt lat="48.43096" lon="2.60635">
        <ele>115.01</ele>
        <time>2013-03-24T10:40:14Z</time>
      </trkpt>
      <trkpt lat="48.43091" lon="2.60664">
        <ele>117.9</ele>
        <time>2013-03-24T10:40:29Z</time>
      </trkpt>
      <trkpt lat="48.43092" lon="2.60683">
        <ele>119.34</ele>
        <time>2013-03-24T10:40:39Z</time>
      </trkpt>
      <trkpt lat="48.43092" lon="2.60686">
        <ele>119.82</ele>
        <time>2013-03-24T10:40:40Z</time>
      </trkpt>
      <trkpt lat="48.43092" lon="2.60688">
        <ele>119.82</ele>
        <time>2013-03-24T10:40:41Z</time>
      </trkpt>
      <trkpt lat="48.43091" lon="2.60691">
        <ele>119.82</ele>
        <time>2013-03-24T10:40:42Z</time>
      </trkpt>
      <trkpt lat="48.43091" lon="2.60694">
        <ele>119.82</ele>
        <time>2013-03-24T10:40:43Z</time>
      </trkpt>
      <trkpt lat="48.43091" lon="2.60697">
        <ele>119.82</ele>
        <time>2013-03-24T10:40:44Z</time>
      </trkpt>
      <trkpt lat="48.43092" lon="2.60701">
        <ele>119.82</ele>
        <time>2013-03-24T10:40:45Z</time>
      </trkpt>
      <trkpt lat="48.43092" lon="2.60705">
        <ele>119.82</ele>
        <time>2013-03-24T10:40:46Z</time>
      </trkpt>
      <trkpt lat="48.43105" lon="2.60757">
        <ele>120.3</ele>
        <time>2013-03-24T10:40:59Z</time>
      </trkpt>
      <trkpt lat="48.43129" lon="2.60801">
        <ele>120.78</ele>
        <time>2013-03-24T10:41:09Z</time>
      </trkpt>
      <trkpt lat="48.43151" lon="2.60849">
        <ele>120.3</ele>
        <time>2013-03-24T10:41:19Z</time>
      </trkpt>
      <trkpt lat="48.43176" lon="2.60908">
        <ele>119.82</ele>
        <time>2013-03-24T10:41:29Z</time>
      </trkpt>
      <trkpt lat="48.43185" lon="2.60927">
        <ele>118.86</ele>
        <time>2013-03-24T10:41:32Z</time>
      </trkpt>
      <trkpt lat="48.43199" lon="2.60952">
        <ele>117.9</ele>
        <time>2013-03-24T10:41:36Z</time>
      </trkpt>
      <trkpt lat="48.43204" lon="2.60972">
        <ele>117.9</ele>
        <time>2013-03-24T10:41:39Z</time>
      </trkpt>
      <trkpt lat="48.43212" lon="2.6104">
        <ele>119.34</ele>
        <time>2013-03-24T10:41:52Z</time>
      </trkpt>
      <trkpt lat="48.43218" lon="2.61106">
        <ele>121.26</ele>
        <time>2013-03-24T10:42:05Z</time>
      </trkpt>
      <trkpt lat="48.43225" lon="2.61172">
        <ele>121.74</ele>
        <time>2013-03-24T10:42:17Z</time>
      </trkpt>
      <trkpt lat="48.43231" lon="2.61243">
        <ele>121.74</ele>
        <time>2013-03-24T10:42:30Z</time>
      </trkpt>
      <trkpt lat="48.43235" lon="2.61336">
        <ele>121.74</ele>
        <time>2013-03-24T10:42:44Z</time>
      </trkpt>
      <trkpt lat="48.4324" lon="2.61408">
        <ele>122.22</ele>
        <time>2013-03-24T10:42:56Z</time>
      </trkpt>
      <trkpt lat="48.43248" lon="2.61482">
        <ele>121.26</ele>
        <time>2013-03-24T10:43:08Z</time>
      </trkpt>
      <trkpt lat="48.43249" lon="2.61524">
        <ele>121.26</ele>
        <time>2013-03-24T10:43:14Z</time>
      </trkpt>
      <trkpt lat="48.4325" lon="2.61545">
        <ele>120.78</ele>
        <time>2013-03-24T10:43:17Z</time>
      </trkpt>
      <trkpt lat="48.43251" lon="2.61552">
        <ele>120.78</ele>
        <time>2013-03-24T10:43:18Z</time>
      </trkpt>
      <trkpt lat="48.43252" lon="2.61558">
        <ele>120.78</ele>
        <time>2013-03-24T10:43:19Z</time>
      </trkpt>
      <trkpt lat="48.43259" lon="2.6163">
        <ele>121.26</ele>
        <time>2013-03-24T10:43:30Z</time>
      </trkpt>
      <trkpt lat="48.43262" lon="2.61686">
        <ele>120.78</ele>
        <time>2013-03-24T10:43:39Z</time>
      </trkpt>
      <trkpt lat="48.43267" lon="2.6178">
        <ele>119.82</ele>
        <time>2013-03-24T10:43:52Z</time>
      </trkpt>
      <trkpt lat="48.43272" lon="2.61828">
        <ele>120.3</ele>
        <time>2013-03-24T10:44:00Z</time>
      </trkpt>
      <trkpt lat="48.43277" lon="2.61902">
        <ele>121.26</ele>
        <time>2013-03-24T10:44:13Z</time>
      </trkpt>
      <trkpt lat="48.43284" lon="2.61969">
        <ele>123.19</ele>
        <time>2013-03-24T10:44:28Z</time>
      </trkpt>
      <trkpt lat="48.43281" lon="2.62029">
        <ele>123.19</ele>
        <time>2013-03-24T10:44:40Z</time>
      </trkpt>
      <trkpt lat="48.43259" lon="2.6207">
        <ele>123.67</ele>
        <time>2013-03-24T10:44:51Z</time>
      </trkpt>
      <trkpt lat="48.43229" lon="2.62123">
        <ele>123.67</ele>
        <time>2013-03-24T10:45:04Z</time>
      </trkpt>
      <trkpt lat="48.43204" lon="2.62169">
        <ele>122.71</ele>
        <time>2013-03-24T10:45:15Z</time>
      </trkpt>
      <trkpt lat="48.43178" lon="2.62215">
        <ele>122.71</ele>
        <time>2013-03-24T10:45:28Z</time>
      </trkpt>
      <trkpt lat="48.43152" lon="2.6227">
        <ele>122.71</ele>
        <time>2013-03-24T10:45:40Z</time>
      </trkpt>
      <trkpt lat="48.43149" lon="2.62298">
        <ele>123.19</ele>
        <time>2013-03-24T10:45:52Z</time>
      </trkpt>
      <trkpt lat="48.43147" lon="2.62314">
        <ele>122.71</ele>
        <time>2013-03-24T10:45:59Z</time>
      </trkpt>
      <trkpt lat="48.43147" lon="2.62316">
        <ele>123.19</ele>
        <time>2013-03-24T10:46:00Z</time>
      </trkpt>
      <trkpt lat="48.43149" lon="2.6235">
        <ele>122.71</ele>
        <time>2013-03-24T10:46:13Z</time>
      </trkpt>
      <trkpt lat="48.43149" lon="2.62359">
        <ele>122.71</ele>
        <time>2013-03-24T10:46:16Z</time>
      </trkpt>
      <trkpt lat="48.43149" lon="2.62362">
        <ele>122.71</ele>
        <time>2013-03-24T10:46:17Z</time>
      </trkpt>
      <trkpt lat="48.4315" lon="2.62412">
        <ele>122.22</ele>
        <time>2013-03-24T10:46:31Z</time>
      </trkpt>
      <trkpt lat="48.43151" lon="2.6243">
        <ele>122.22</ele>
        <time>2013-03-24T10:46:35Z</time>
      </trkpt>
      <trkpt lat="48.43149" lon="2.62435">
        <ele>122.22</ele>
        <time>2013-03-24T10:46:36Z</time>
      </trkpt>
      <trkpt lat="48.43128" lon="2.62475">
        <ele>123.67</ele>
        <time>2013-03-24T10:46:48Z</time>
      </trkpt>
      <trkpt lat="48.43094" lon="2.62525">
        <ele>124.15</ele>
        <time>2013-03-24T10:47:01Z</time>
      </trkpt>
      <trkpt lat="48.43065" lon="2.62564">
        <ele>125.11</ele>
        <time>2013-03-24T10:47:12Z</time>
      </trkpt>
      <trkpt lat="48.43061" lon="2.62573">
        <ele>125.11</ele>
        <time>2013-03-24T10:47:14Z</time>
      </trkpt>
      <trkpt lat="48.43025" lon="2.62624">
        <ele>126.07</ele>
        <time>2013-03-24T10:47:28Z</time>
      </trkpt>
      <trkpt lat="48.42993" lon="2.62672">
        <ele>126.55</ele>
        <time>2013-03-24T10:47:41Z</time>
      </trkpt>
      <trkpt lat="48.42954" lon="2.6273">
        <ele>126.55</ele>
        <time>2013-03-24T10:47:53Z</time>
      </trkpt>
      <trkpt lat="48.42911" lon="2.62792">
        <ele>126.07</ele>
        <time>2013-03-24T10:48:06Z</time>
      </trkpt>
      <trkpt lat="48.42894" lon="2.62819">
        <ele>125.59</ele>
        <time>2013-03-24T10:48:11Z</time>
      </trkpt>
      <trkpt lat="48.4289" lon="2.62823">
        <ele>125.59</ele>
        <time>2013-03-24T10:48:12Z</time>
      </trkpt>
      <trkpt lat="48.4288" lon="2.62838">
        <ele>125.59</ele>
        <time>2013-03-24T10:48:15Z</time>
      </trkpt>
      <trkpt lat="48.42876" lon="2.62843">
        <ele>125.59</ele>
        <time>2013-03-24T10:48:16Z</time>
      </trkpt>
      <trkpt lat="48.42873" lon="2.62847">
        <ele>126.07</ele>
        <time>2013-03-24T10:48:17Z</time>
      </trkpt>
      <trkpt lat="48.42859" lon="2.62867">
        <ele>125.59</ele>
        <time>2013-03-24T10:48:21Z</time>
      </trkpt>
      <trkpt lat="48.42855" lon="2.62872">
        <ele>126.07</ele>
        <time>2013-03-24T10:48:22Z</time>
      </trkpt>
      <trkpt lat="48.42851" lon="2.62878">
        <ele>125.59</ele>
        <time>2013-03-24T10:48:23Z</time>
      </trkpt>
      <trkpt lat="48.42816" lon="2.62931">
        <ele>125.59</ele>
        <time>2013-03-24T10:48:35Z</time>
      </trkpt>
      <trkpt lat="48.42797" lon="2.62957">
        <ele>125.59</ele>
        <time>2013-03-24T10:48:46Z</time>
      </trkpt>
      <trkpt lat="48.42796" lon="2.62958">
        <ele>125.59</ele>
        <time>2013-03-24T10:49:07Z</time>
      </trkpt>
      <trkpt lat="48.42794" lon="2.62957">
        <ele>126.07</ele>
        <time>2013-03-24T10:49:29Z</time>
      </trkpt>
      <trkpt lat="48.42793" lon="2.62958">
        <ele>125.59</ele>
        <time>2013-03-24T10:49:45Z</time>
      </trkpt>
      <trkpt lat="48.42792" lon="2.62959">
        <ele>125.59</ele>
        <time>2013-03-24T10:50:13Z</time>
      </trkpt>
      <trkpt lat="48.42792" lon="2.6296">
        <ele>125.59</ele>
        <time>2013-03-24T10:50:37Z</time>
      </trkpt>
      <trkpt lat="48.42791" lon="2.6296">
        <ele>126.07</ele>
        <time>2013-03-24T10:51:09Z</time>
      </trkpt>
      <trkpt lat="48.4279" lon="2.62961">
        <ele>126.07</ele>
        <time>2013-03-24T10:51:34Z</time>
      </trkpt>
      <trkpt lat="48.4279" lon="2.62961">
        <ele>126.55</ele>
        <time>2013-03-24T10:52:04Z</time>
      </trkpt>
      <trkpt lat="48.42791" lon="2.62961">
        <ele>126.55</ele>
        <time>2013-03-24T10:52:41Z</time>
      </trkpt>
      <trkpt lat="48.42791" lon="2.62961">
        <ele>127.03</ele>
        <time>2013-03-24T10:53:11Z</time>
      </trkpt>
      <trkpt lat="48.42791" lon="2.62962">
        <ele>127.51</ele>
        <time>2013-03-24T10:53:37Z</time>
      </trkpt>
      <trkpt lat="48.42791" lon="2.62963">
        <ele>127.51</ele>
        <time>2013-03-24T10:54:13Z</time>
      </trkpt>
      <trkpt lat="48.42791" lon="2.62969">
        <ele>128.47</ele>
        <time>2013-03-24T10:54:17Z</time>
      </trkpt>
      <trkpt lat="48.4279" lon="2.62972">
        <ele>127.03</ele>
        <time>2013-03-24T10:54:18Z</time>
      </trkpt>
      <trkpt lat="48.4279" lon="2.62974">
        <ele>128.47</ele>
        <time>2013-03-24T10:54:19Z</time>
      </trkpt>
      <trkpt lat="48.42788" lon="2.63025">
        <ele>128.47</ele>
        <time>2013-03-24T10:54:31Z</time>
      </trkpt>
      <trkpt lat="48.42779" lon="2.63108">
        <ele>128.47</ele>
        <time>2013-03-24T10:54:43Z</time>
      </trkpt>
      <trkpt lat="48.42772" lon="2.6317">
        <ele>128.47</ele>
        <time>2013-03-24T10:54:51Z</time>
      </trkpt>
      <trkpt lat="48.4277" lon="2.63178">
        <ele>127.99</ele>
        <time>2013-03-24T10:54:52Z</time>
      </trkpt>
      <trkpt lat="48.42767" lon="2.63201">
        <ele>128.47</ele>
        <time>2013-03-24T10:54:55Z</time>
      </trkpt>
      <trkpt lat="48.42756" lon="2.63294">
        <ele>127.99</ele>
        <time>2013-03-24T10:55:07Z</time>
      </trkpt>
      <trkpt lat="48.42751" lon="2.63328">
        <ele>127.99</ele>
        <time>2013-03-24T10:55:11Z</time>
      </trkpt>
      <trkpt lat="48.4275" lon="2.63336">
        <ele>128.47</ele>
        <time>2013-03-24T10:55:12Z</time>
      </trkpt>
      <trkpt lat="48.42738" lon="2.6341">
        <ele>127.99</ele>
        <time>2013-03-24T10:55:21Z</time>
      </trkpt>
      <trkpt lat="48.42736" lon="2.63419">
        <ele>127.99</ele>
        <time>2013-03-24T10:55:22Z</time>
      </trkpt>
      <trkpt lat="48.42735" lon="2.63428">
        <ele>127.99</ele>
        <time>2013-03-24T10:55:23Z</time>
      </trkpt>
      <trkpt lat="48.42725" lon="2.63527">
        <ele>128.47</ele>
        <time>2013-03-24T10:55:35Z</time>
      </trkpt>
      <trkpt lat="48.4272" lon="2.63571">
        <ele>128.95</ele>
        <time>2013-03-24T10:55:40Z</time>
      </trkpt>
      <trkpt lat="48.42718" lon="2.63579">
        <ele>128.47</ele>
        <time>2013-03-24T10:55:41Z</time>
      </trkpt>
      <trkpt lat="48.42718" lon="2.63587">
        <ele>128.95</ele>
        <time>2013-03-24T10:55:42Z</time>
      </trkpt>
      <trkpt lat="48.42712" lon="2.63648">
        <ele>128.95</ele>
        <time>2013-03-24T10:55:50Z</time>
      </trkpt>
      <trkpt lat="48.42707" lon="2.63673">
        <ele>128.95</ele>
        <time>2013-03-24T10:55:53Z</time>
      </trkpt>
      <trkpt lat="48.42706" lon="2.63681">
        <ele>128.95</ele>
        <time>2013-03-24T10:55:54Z</time>
      </trkpt>
      <trkpt lat="48.42704" lon="2.63689">
        <ele>128.95</ele>
        <time>2013-03-24T10:55:55Z</time>
      </trkpt>
      <trkpt lat="48.42703" lon="2.63698">
        <ele>128.95</ele>
        <time>2013-03-24T10:55:56Z</time>
      </trkpt>
      <trkpt lat="48.42701" lon="2.63706">
        <ele>128.47</ele>
        <time>2013-03-24T10:55:57Z</time>
      </trkpt>
      <trkpt lat="48.427" lon="2.63715">
        <ele>128.95</ele>
        <time>2013-03-24T10:55:58Z</time>
      </trkpt>
      <trkpt lat="48.42682" lon="2.63812">
        <ele>128.47</ele>
        <time>2013-03-24T10:56:10Z</time>
      </trkpt>
      <trkpt lat="48.42671" lon="2.63891">
        <ele>128.95</ele>
        <time>2013-03-24T10:56:21Z</time>
      </trkpt>
      <trkpt lat="48.42665" lon="2.63941">
        <ele>128.95</ele>
        <time>2013-03-24T10:56:28Z</time>
      </trkpt>
      <trkpt lat="48.42664" lon="2.63948">
        <ele>128.95</ele>
        <time>2013-03-24T10:56:29Z</time>
      </trkpt>
      <trkpt lat="48.42655" lon="2.64023">
        <ele>129.43</ele>
        <time>2013-03-24T10:56:40Z</time>
      </trkpt>
      <trkpt lat="48.42649" lon="2.64104">
        <ele>129.92</ele>
        <time>2013-03-24T10:56:51Z</time>
      </trkpt>
      <trkpt lat="48.42648" lon="2.64124">
        <ele>129.92</ele>
        <time>2013-03-24T10:56:54Z</time>
      </trkpt>
      <trkpt lat="48.42646" lon="2.64132">
        <ele>129.92</ele>
        <time>2013-03-24T10:56:55Z</time>
      </trkpt>
      <trkpt lat="48.42641" lon="2.6417">
        <ele>129.92</ele>
        <time>2013-03-24T10:57:00Z</time>
      </trkpt>
      <trkpt lat="48.42635" lon="2.64206">
        <ele>129.92</ele>
        <time>2013-03-24T10:57:05Z</time>
      </trkpt>
      <trkpt lat="48.42622" lon="2.64292">
        <ele>129.92</ele>
        <time>2013-03-24T10:57:17Z</time>
      </trkpt>
      <trkpt lat="48.42612" lon="2.64387">
        <ele>129.92</ele>
        <time>2013-03-24T10:57:30Z</time>
      </trkpt>
      <trkpt lat="48.42607" lon="2.64429">
        <ele>129.43</ele>
        <time>2013-03-24T10:57:36Z</time>
      </trkpt>
      <trkpt lat="48.42606" lon="2.64437">
        <ele>129.43</ele>
        <time>2013-03-24T10:57:37Z</time>
      </trkpt>
      <trkpt lat="48.42605" lon="2.64446">
        <ele>128.47</ele>
        <time>2013-03-24T10:57:38Z</time>
      </trkpt>
      <trkpt lat="48.42603" lon="2.64455">
        <ele>128.47</ele>
        <time>2013-03-24T10:57:39Z</time>
      </trkpt>
      <trkpt lat="48.42595" lon="2.64509">
        <ele>126.07</ele>
        <time>2013-03-24T10:57:45Z</time>
      </trkpt>
      <trkpt lat="48.42595" lon="2.64516">
        <ele>125.59</ele>
        <time>2013-03-24T10:57:46Z</time>
      </trkpt>
      <trkpt lat="48.42594" lon="2.64524">
        <ele>125.59</ele>
        <time>2013-03-24T10:57:47Z</time>
      </trkpt>
      <trkpt lat="48.42592" lon="2.64532">
        <ele>125.11</ele>
        <time>2013-03-24T10:57:48Z</time>
      </trkpt>
      <trkpt lat="48.4259" lon="2.64541">
        <ele>124.63</ele>
        <time>2013-03-24T10:57:49Z</time>
      </trkpt>
      <trkpt lat="48.42588" lon="2.64551">
        <ele>123.67</ele>
        <time>2013-03-24T10:57:50Z</time>
      </trkpt>
      <trkpt lat="48.42575" lon="2.64639">
        <ele>119.82</ele>
        <time>2013-03-24T10:57:58Z</time>
      </trkpt>
      <trkpt lat="48.42567" lon="2.64699">
        <ele>117.9</ele>
        <time>2013-03-24T10:58:03Z</time>
      </trkpt>
      <trkpt lat="48.42566" lon="2.64708">
        <ele>117.42</ele>
        <time>2013-03-24T10:58:04Z</time>
      </trkpt>
      <trkpt lat="48.42564" lon="2.64717">
        <ele>117.42</ele>
        <time>2013-03-24T10:58:05Z</time>
      </trkpt>
      <trkpt lat="48.42562" lon="2.64724">
        <ele>116.94</ele>
        <time>2013-03-24T10:58:06Z</time>
      </trkpt>
      <trkpt lat="48.42561" lon="2.64732">
        <ele>116.46</ele>
        <time>2013-03-24T10:58:07Z</time>
      </trkpt>
      <trkpt lat="48.42559" lon="2.64738">
        <ele>115.98</ele>
        <time>2013-03-24T10:58:08Z</time>
      </trkpt>
      <trkpt lat="48.42557" lon="2.64739">
        <ele>115.98</ele>
        <time>2013-03-24T10:58:09Z</time>
      </trkpt>
      <trkpt lat="48.42556" lon="2.64738">
        <ele>115.5</ele>
        <time>2013-03-24T10:58:10Z</time>
      </trkpt>
      <trkpt lat="48.42555" lon="2.64735">
        <ele>115.5</ele>
        <time>2013-03-24T10:58:11Z</time>
      </trkpt>
      <trkpt lat="48.42553" lon="2.64734">
        <ele>115.01</ele>
        <time>2013-03-24T10:58:12Z</time>
      </trkpt>
      <trkpt lat="48.4254" lon="2.6468">
        <ele>113.09</ele>
        <time>2013-03-24T10:58:23Z</time>
      </trkpt>
      <trkpt lat="48.42537" lon="2.64671">
        <ele>112.61</ele>
        <time>2013-03-24T10:58:24Z</time>
      </trkpt>
      <trkpt lat="48.42533" lon="2.64664">
        <ele>112.61</ele>
        <time>2013-03-24T10:58:25Z</time>
      </trkpt>
      <trkpt lat="48.425" lon="2.64592">
        <ele>111.17</ele>
        <time>2013-03-24T10:58:38Z</time>
      </trkpt>
      <trkpt lat="48.42475" lon="2.64544">
        <ele>110.69</ele>
        <time>2013-03-24T10:58:50Z</time>
      </trkpt>
      <trkpt lat="48.42444" lon="2.64487">
        <ele>110.21</ele>
        <time>2013-03-24T10:59:01Z</time>
      </trkpt>
      <trkpt lat="48.42441" lon="2.64482">
        <ele>110.21</ele>
        <time>2013-03-24T10:59:02Z</time>
      </trkpt>
      <trkpt lat="48.42394" lon="2.64429">
        <ele>111.65</ele>
        <time>2013-03-24T10:59:14Z</time>
      </trkpt>
      <trkpt lat="48.42351" lon="2.6439">
        <ele>113.57</ele>
        <time>2013-03-24T10:59:26Z</time>
      </trkpt>
      <trkpt lat="48.42317" lon="2.64362">
        <ele>115.5</ele>
        <time>2013-03-24T10:59:39Z</time>
      </trkpt>
      <trkpt lat="48.42293" lon="2.64345">
        <ele>118.38</ele>
        <time>2013-03-24T10:59:52Z</time>
      </trkpt>
      <trkpt lat="48.42273" lon="2.64326">
        <ele>121.26</ele>
        <time>2013-03-24T11:00:06Z</time>
      </trkpt>
      <trkpt lat="48.42256" lon="2.64314">
        <ele>124.63</ele>
        <time>2013-03-24T11:00:20Z</time>
      </trkpt>
      <trkpt lat="48.4225" lon="2.64311">
        <ele>125.59</ele>
        <time>2013-03-24T11:00:25Z</time>
      </trkpt>
      <trkpt lat="48.42247" lon="2.64309">
        <ele>125.59</ele>
        <time>2013-03-24T11:00:27Z</time>
      </trkpt>
      <trkpt lat="48.42239" lon="2.64302">
        <ele>125.59</ele>
        <time>2013-03-24T11:00:32Z</time>
      </trkpt>
      <trkpt lat="48.42214" lon="2.6428">
        <ele>127.51</ele>
        <time>2013-03-24T11:00:47Z</time>
      </trkpt>
      <trkpt lat="48.42204" lon="2.64273">
        <ele>127.99</ele>
        <time>2013-03-24T11:00:53Z</time>
      </trkpt>
      <trkpt lat="48.42176" lon="2.64253">
        <ele>128.95</ele>
        <time>2013-03-24T11:01:06Z</time>
      </trkpt>
      <trkpt lat="48.42138" lon="2.64217">
        <ele>129.92</ele>
        <time>2013-03-24T11:01:20Z</time>
      </trkpt>
      <trkpt lat="48.42109" lon="2.64195">
        <ele>130.88</ele>
        <time>2013-03-24T11:01:32Z</time>
      </trkpt>
      <trkpt lat="48.42075" lon="2.64169">
        <ele>131.36</ele>
        <time>2013-03-24T11:01:45Z</time>
      </trkpt>
      <trkpt lat="48.42046" lon="2.64143">
        <ele>131.36</ele>
        <time>2013-03-24T11:01:56Z</time>
      </trkpt>
      <trkpt lat="48.42046" lon="2.6413">
        <ele>131.36</ele>
        <time>2013-03-24T11:02:02Z</time>
      </trkpt>
      <trkpt lat="48.4208" lon="2.64107">
        <ele>130.4</ele>
        <time>2013-03-24T11:02:16Z</time>
      </trkpt>
      <trkpt lat="48.4209" lon="2.64102">
        <ele>130.4</ele>
        <time>2013-03-24T11:02:18Z</time>
      </trkpt>
      <trkpt lat="48.42101" lon="2.64098">
        <ele>129.92</ele>
        <time>2013-03-24T11:02:20Z</time>
      </trkpt>
      <trkpt lat="48.42142" lon="2.64075">
        <ele>127.99</ele>
        <time>2013-03-24T11:02:29Z</time>
      </trkpt>
      <trkpt lat="48.42147" lon="2.64073">
        <ele>127.51</ele>
        <time>2013-03-24T11:02:30Z</time>
      </trkpt>
      <trkpt lat="48.42159" lon="2.64067">
        <ele>126.55</ele>
        <time>2013-03-24T11:02:32Z</time>
      </trkpt>
      <trkpt lat="48.42164" lon="2.64064">
        <ele>126.55</ele>
        <time>2013-03-24T11:02:33Z</time>
      </trkpt>
      <trkpt lat="48.4217" lon="2.64061">
        <ele>126.07</ele>
        <time>2013-03-24T11:02:34Z</time>
      </trkpt>
      <trkpt lat="48.42177" lon="2.64057">
        <ele>125.59</ele>
        <time>2013-03-24T11:02:35Z</time>
      </trkpt>
      <trkpt lat="48.42213" lon="2.64036">
        <ele>121.74</ele>
        <time>2013-03-24T11:02:40Z</time>
      </trkpt>
      <trkpt lat="48.4224" lon="2.64022">
        <ele>117.9</ele>
        <time>2013-03-24T11:02:43Z</time>
      </trkpt>
      <trkpt lat="48.42272" lon="2.64004">
        <ele>114.05</ele>
        <time>2013-03-24T11:02:46Z</time>
      </trkpt>
      <trkpt lat="48.42303" lon="2.63987">
        <ele>110.21</ele>
        <time>2013-03-24T11:02:49Z</time>
      </trkpt>
      <trkpt lat="48.42332" lon="2.63972">
        <ele>107.32</ele>
        <time>2013-03-24T11:02:52Z</time>
      </trkpt>
      <trkpt lat="48.42341" lon="2.63966">
        <ele>106.84</ele>
        <time>2013-03-24T11:02:53Z</time>
      </trkpt>
      <trkpt lat="48.42357" lon="2.63953">
        <ele>105.88</ele>
        <time>2013-03-24T11:02:55Z</time>
      </trkpt>
      <trkpt lat="48.42362" lon="2.63947">
        <ele>106.36</ele>
        <time>2013-03-24T11:02:56Z</time>
      </trkpt>
      <trkpt lat="48.42367" lon="2.63939">
        <ele>106.84</ele>
        <time>2013-03-24T11:02:57Z</time>
      </trkpt>
      <trkpt lat="48.42405" lon="2.63877">
        <ele>109.73</ele>
        <time>2013-03-24T11:03:09Z</time>
      </trkpt>
      <trkpt lat="48.42433" lon="2.63841">
        <ele>111.65</ele>
        <time>2013-03-24T11:03:22Z</time>
      </trkpt>
      <trkpt lat="48.42448" lon="2.63817">
        <ele>115.01</ele>
        <time>2013-03-24T11:03:34Z</time>
      </trkpt>
      <trkpt lat="48.42451" lon="2.63787">
        <ele>118.38</ele>
        <time>2013-03-24T11:03:49Z</time>
      </trkpt>
      <trkpt lat="48.42453" lon="2.63781">
        <ele>118.86</ele>
        <time>2013-03-24T11:03:52Z</time>
      </trkpt>
      <trkpt lat="48.42456" lon="2.63757">
        <ele>121.26</ele>
        <time>2013-03-24T11:04:02Z</time>
      </trkpt>
      <trkpt lat="48.42461" lon="2.63723">
        <ele>123.19</ele>
        <time>2013-03-24T11:04:17Z</time>
      </trkpt>
      <trkpt lat="48.42461" lon="2.63721">
        <ele>123.19</ele>
        <time>2013-03-24T11:04:18Z</time>
      </trkpt>
      <trkpt lat="48.42461" lon="2.63718">
        <ele>123.19</ele>
        <time>2013-03-24T11:04:19Z</time>
      </trkpt>
      <trkpt lat="48.42463" lon="2.63699">
        <ele>124.63</ele>
        <time>2013-03-24T11:04:27Z</time>
      </trkpt>
      <trkpt lat="48.42464" lon="2.63696">
        <ele>125.11</ele>
        <time>2013-03-24T11:04:28Z</time>
      </trkpt>
      <trkpt lat="48.42464" lon="2.63693">
        <ele>125.11</ele>
        <time>2013-03-24T11:04:29Z</time>
      </trkpt>
      <trkpt lat="48.42464" lon="2.6369">
        <ele>125.11</ele>
        <time>2013-03-24T11:04:30Z</time>
      </trkpt>
      <trkpt lat="48.42464" lon="2.63688">
        <ele>125.11</ele>
        <time>2013-03-24T11:04:31Z</time>
      </trkpt>
      <trkpt lat="48.42465" lon="2.63685">
        <ele>125.59</ele>
        <time>2013-03-24T11:04:32Z</time>
      </trkpt>
      <trkpt lat="48.42467" lon="2.63679">
        <ele>126.07</ele>
        <time>2013-03-24T11:04:36Z</time>
      </trkpt>
      <trkpt lat="48.42469" lon="2.63676">
        <ele>126.07</ele>
        <time>2013-03-24T11:04:38Z</time>
      </trkpt>
      <trkpt lat="48.42471" lon="2.63658">
        <ele>127.03</ele>
        <time>2013-03-24T11:04:45Z</time>
      </trkpt>
      <trkpt lat="48.42476" lon="2.6362">
        <ele>128.47</ele>
        <time>2013-03-24T11:04:58Z</time>
      </trkpt>
      <trkpt lat="48.42492" lon="2.63568">
        <ele>128.47</ele>
        <time>2013-03-24T11:05:14Z</time>
      </trkpt>
      <trkpt lat="48.42498" lon="2.63504">
        <ele>127.99</ele>
        <time>2013-03-24T11:05:25Z</time>
      </trkpt>
      <trkpt lat="48.42508" lon="2.63451">
        <ele>127.99</ele>
        <time>2013-03-24T11:05:36Z</time>
      </trkpt>
      <trkpt lat="48.4252" lon="2.63387">
        <ele>127.99</ele>
        <time>2013-03-24T11:05:48Z</time>
      </trkpt>
      <trkpt lat="48.4252" lon="2.6333">
        <ele>127.51</ele>
        <time>2013-03-24T11:05:59Z</time>
      </trkpt>
      <trkpt lat="48.42515" lon="2.63263">
        <ele>128.47</ele>
        <time>2013-03-24T11:06:10Z</time>
      </trkpt>
      <trkpt lat="48.42515" lon="2.63212">
        <ele>125.59</ele>
        <time>2013-03-24T11:06:21Z</time>
      </trkpt>
      <trkpt lat="48.42517" lon="2.63203">
        <ele>124.63</ele>
        <time>2013-03-24T11:06:23Z</time>
      </trkpt>
      <trkpt lat="48.42517" lon="2.63166">
        <ele>120.78</ele>
        <time>2013-03-24T11:06:28Z</time>
      </trkpt>
      <trkpt lat="48.42516" lon="2.63157">
        <ele>119.34</ele>
        <time>2013-03-24T11:06:29Z</time>
      </trkpt>
      <trkpt lat="48.42516" lon="2.6314">
        <ele>119.34</ele>
        <time>2013-03-24T11:06:31Z</time>
      </trkpt>
      <trkpt lat="48.42516" lon="2.63133">
        <ele>120.3</ele>
        <time>2013-03-24T11:06:32Z</time>
      </trkpt>
      <trkpt lat="48.42515" lon="2.63126">
        <ele>121.26</ele>
        <time>2013-03-24T11:06:33Z</time>
      </trkpt>
      <trkpt lat="48.42509" lon="2.6306">
        <ele>124.15</ele>
        <time>2013-03-24T11:06:46Z</time>
      </trkpt>
      <trkpt lat="48.425" lon="2.6302">
        <ele>124.63</ele>
        <time>2013-03-24T11:07:00Z</time>
      </trkpt>
      <trkpt lat="48.42493" lon="2.63015">
        <ele>124.63</ele>
        <time>2013-03-24T11:07:18Z</time>
      </trkpt>
      <trkpt lat="48.42492" lon="2.63014">
        <ele>125.11</ele>
        <time>2013-03-24T11:07:40Z</time>
      </trkpt>
      <trkpt lat="48.42493" lon="2.63016">
        <ele>125.11</ele>
        <time>2013-03-24T11:08:01Z</time>
      </trkpt>
      <trkpt lat="48.42492" lon="2.63016">
        <ele>125.59</ele>
        <time>2013-03-24T11:08:22Z</time>
      </trkpt>
      <trkpt lat="48.42492" lon="2.63016">
        <ele>125.59</ele>
        <time>2013-03-24T11:08:46Z</time>
      </trkpt>
      <trkpt lat="48.42493" lon="2.63013">
        <ele>125.59</ele>
        <time>2013-03-24T11:09:05Z</time>
      </trkpt>
      <trkpt lat="48.42493" lon="2.63012">
        <ele>125.59</ele>
        <time>2013-03-24T11:09:29Z</time>
      </trkpt>
      <trkpt lat="48.42492" lon="2.63012">
        <ele>125.59</ele>
        <time>2013-03-24T11:09:49Z</time>
      </trkpt>
      <trkpt lat="48.42491" lon="2.63012">
        <ele>125.59</ele>
        <time>2013-03-24T11:09:50Z</time>
      </trkpt>
      <trkpt lat="48.4249" lon="2.63013">
        <ele>125.11</ele>
        <time>2013-03-24T11:09:51Z</time>
      </trkpt>
      <trkpt lat="48.42465" lon="2.63017">
        <ele>122.22</ele>
        <time>2013-03-24T11:10:00Z</time>
      </trkpt>
      <trkpt lat="48.42451" lon="2.63016">
        <ele>119.82</ele>
        <time>2013-03-24T11:10:03Z</time>
      </trkpt>
      <trkpt lat="48.42425" lon="2.63018">
        <ele>116.46</ele>
        <time>2013-03-24T11:10:07Z</time>
      </trkpt>
      <trkpt lat="48.42399" lon="2.63018">
        <ele>112.61</ele>
        <time>2013-03-24T11:10:10Z</time>
      </trkpt>
      <trkpt lat="48.42378" lon="2.63018">
        <ele>109.25</ele>
        <time>2013-03-24T11:10:12Z</time>
      </trkpt>
      <trkpt lat="48.42366" lon="2.63018">
        <ele>109.25</ele>
        <time>2013-03-24T11:10:13Z</time>
      </trkpt>
      <trkpt lat="48.42344" lon="2.63021">
        <ele>106.36</ele>
        <time>2013-03-24T11:10:15Z</time>
      </trkpt>
      <trkpt lat="48.42324" lon="2.63024">
        <ele>105.4</ele>
        <time>2013-03-24T11:10:17Z</time>
      </trkpt>
      <trkpt lat="48.42284" lon="2.63033">
        <ele>101.56</ele>
        <time>2013-03-24T11:10:21Z</time>
      </trkpt>
      <trkpt lat="48.42271" lon="2.63036">
        <ele>101.08</ele>
        <time>2013-03-24T11:10:22Z</time>
      </trkpt>
      <trkpt lat="48.42238" lon="2.63036">
        <ele>100.11</ele>
        <time>2013-03-24T11:10:25Z</time>
      </trkpt>
      <trkpt lat="48.42229" lon="2.63036">
        <ele>100.11</ele>
        <time>2013-03-24T11:10:26Z</time>
      </trkpt>
      <trkpt lat="48.42222" lon="2.63034">
        <ele>100.6</ele>
        <time>2013-03-24T11:10:27Z</time>
      </trkpt>
      <trkpt lat="48.42156" lon="2.62995">
        <ele>100.11</ele>
        <time>2013-03-24T11:10:38Z</time>
      </trkpt>
      <trkpt lat="48.42099" lon="2.62954">
        <ele>101.56</ele>
        <time>2013-03-24T11:10:50Z</time>
      </trkpt>
      <trkpt lat="48.42051" lon="2.62919">
        <ele>103.48</ele>
        <time>2013-03-24T11:11:04Z</time>
      </trkpt>
      <trkpt lat="48.42011" lon="2.62885">
        <ele>105.88</ele>
        <time>2013-03-24T11:11:19Z</time>
      </trkpt>
      <trkpt lat="48.41989" lon="2.62872">
        <ele>108.77</ele>
        <time>2013-03-24T11:11:31Z</time>
      </trkpt>
      <trkpt lat="48.41981" lon="2.62865">
        <ele>110.21</ele>
        <time>2013-03-24T11:11:38Z</time>
      </trkpt>
      <trkpt lat="48.4198" lon="2.62864">
        <ele>110.69</ele>
        <time>2013-03-24T11:11:39Z</time>
      </trkpt>
      <trkpt lat="48.4196" lon="2.62851">
        <ele>113.57</ele>
        <time>2013-03-24T11:11:52Z</time>
      </trkpt>
      <trkpt lat="48.4195" lon="2.62878">
        <ele>116.46</ele>
        <time>2013-03-24T11:12:06Z</time>
      </trkpt>
      <trkpt lat="48.41949" lon="2.62881">
        <ele>116.46</ele>
        <time>2013-03-24T11:12:08Z</time>
      </trkpt>
      <trkpt lat="48.41948" lon="2.62883">
        <ele>116.94</ele>
        <time>2013-03-24T11:12:09Z</time>
      </trkpt>
      <trkpt lat="48.41947" lon="2.62884">
        <ele>117.42</ele>
        <time>2013-03-24T11:12:10Z</time>
      </trkpt>
      <trkpt lat="48.41933" lon="2.62904">
        <ele>119.82</ele>
        <time>2013-03-24T11:12:25Z</time>
      </trkpt>
      <trkpt lat="48.4193" lon="2.62905">
        <ele>120.78</ele>
        <time>2013-03-24T11:12:29Z</time>
      </trkpt>
      <trkpt lat="48.41919" lon="2.62915">
        <ele>121.74</ele>
        <time>2013-03-24T11:12:38Z</time>
      </trkpt>
      <trkpt lat="48.41906" lon="2.62917">
        <ele>124.15</ele>
        <time>2013-03-24T11:12:49Z</time>
      </trkpt>
      <trkpt lat="48.419" lon="2.62911">
        <ele>125.11</ele>
        <time>2013-03-24T11:12:55Z</time>
      </trkpt>
      <trkpt lat="48.41892" lon="2.62901">
        <ele>126.55</ele>
        <time>2013-03-24T11:13:04Z</time>
      </trkpt>
      <trkpt lat="48.41886" lon="2.6289">
        <ele>127.03</ele>
        <time>2013-03-24T11:13:10Z</time>
      </trkpt>
      <trkpt lat="48.41855" lon="2.6287">
        <ele>129.43</ele>
        <time>2013-03-24T11:13:26Z</time>
      </trkpt>
      <trkpt lat="48.41829" lon="2.62858">
        <ele>130.4</ele>
        <time>2013-03-24T11:13:39Z</time>
      </trkpt>
      <trkpt lat="48.41806" lon="2.62847">
        <ele>130.88</ele>
        <time>2013-03-24T11:13:52Z</time>
      </trkpt>
      <trkpt lat="48.41781" lon="2.62837">
        <ele>130.88</ele>
        <time>2013-03-24T11:14:06Z</time>
      </trkpt>
      <trkpt lat="48.41772" lon="2.62831">
        <ele>130.88</ele>
        <time>2013-03-24T11:14:13Z</time>
      </trkpt>
      <trkpt lat="48.41745" lon="2.62823">
        <ele>130.88</ele>
        <time>2013-03-24T11:14:25Z</time>
      </trkpt>
      <trkpt lat="48.41716" lon="2.62806">
        <ele>129.92</ele>
        <time>2013-03-24T11:14:34Z</time>
      </trkpt>
      <trkpt lat="48.41681" lon="2.62795">
        <ele>128.95</ele>
        <time>2013-03-24T11:14:41Z</time>
      </trkpt>
      <trkpt lat="48.41665" lon="2.6279">
        <ele>127.51</ele>
        <time>2013-03-24T11:14:44Z</time>
      </trkpt>
      <trkpt lat="48.41659" lon="2.62787">
        <ele>127.03</ele>
        <time>2013-03-24T11:14:45Z</time>
      </trkpt>
      <trkpt lat="48.41648" lon="2.62778">
        <ele>126.07</ele>
        <time>2013-03-24T11:14:47Z</time>
      </trkpt>
      <trkpt lat="48.41643" lon="2.62772">
        <ele>125.11</ele>
        <time>2013-03-24T11:14:48Z</time>
      </trkpt>
      <trkpt lat="48.41631" lon="2.62756">
        <ele>123.67</ele>
        <time>2013-03-24T11:14:50Z</time>
      </trkpt>
      <trkpt lat="48.41625" lon="2.62748">
        <ele>122.71</ele>
        <time>2013-03-24T11:14:51Z</time>
      </trkpt>
      <trkpt lat="48.41611" lon="2.62731">
        <ele>118.86</ele>
        <time>2013-03-24T11:14:53Z</time>
      </trkpt>
      <trkpt lat="48.41605" lon="2.62721">
        <ele>117.42</ele>
        <time>2013-03-24T11:14:54Z</time>
      </trkpt>
      <trkpt lat="48.41599" lon="2.62711">
        <ele>115.98</ele>
        <time>2013-03-24T11:14:55Z</time>
      </trkpt>
      <trkpt lat="48.41591" lon="2.62689">
        <ele>113.57</ele>
        <time>2013-03-24T11:14:57Z</time>
      </trkpt>
      <trkpt lat="48.41588" lon="2.62677">
        <ele>112.61</ele>
        <time>2013-03-24T11:14:58Z</time>
      </trkpt>
      <trkpt lat="48.41583" lon="2.62643">
        <ele>109.73</ele>
        <time>2013-03-24T11:15:01Z</time>
      </trkpt>
      <trkpt lat="48.41585" lon="2.62633">
        <ele>108.29</ele>
        <time>2013-03-24T11:15:02Z</time>
      </trkpt>
      <trkpt lat="48.41587" lon="2.62622">
        <ele>106.84</ele>
        <time>2013-03-24T11:15:03Z</time>
      </trkpt>
      <trkpt lat="48.4159" lon="2.6261">
        <ele>105.88</ele>
        <time>2013-03-24T11:15:04Z</time>
      </trkpt>
      <trkpt lat="48.41592" lon="2.62599">
        <ele>104.44</ele>
        <time>2013-03-24T11:15:05Z</time>
      </trkpt>
      <trkpt lat="48.41593" lon="2.62588">
        <ele>104.44</ele>
        <time>2013-03-24T11:15:06Z</time>
      </trkpt>
      <trkpt lat="48.41593" lon="2.62577">
        <ele>103.96</ele>
        <time>2013-03-24T11:15:07Z</time>
      </trkpt>
      <trkpt lat="48.41592" lon="2.62568">
        <ele>102.52</ele>
        <time>2013-03-24T11:15:08Z</time>
      </trkpt>
      <trkpt lat="48.41591" lon="2.62564">
        <ele>102.04</ele>
        <time>2013-03-24T11:15:09Z</time>
      </trkpt>
      <trkpt lat="48.41591" lon="2.62556">
        <ele>101.56</ele>
        <time>2013-03-24T11:15:17Z</time>
      </trkpt>
      <trkpt lat="48.41593" lon="2.62558">
        <ele>102.04</ele>
        <time>2013-03-24T11:15:18Z</time>
      </trkpt>
      <trkpt lat="48.41594" lon="2.6256">
        <ele>102.04</ele>
        <time>2013-03-24T11:15:20Z</time>
      </trkpt>
      <trkpt lat="48.416" lon="2.62529">
        <ele>100.6</ele>
        <time>2013-03-24T11:15:31Z</time>
      </trkpt>
      <trkpt lat="48.41604" lon="2.62509">
        <ele>100.11</ele>
        <time>2013-03-24T11:15:38Z</time>
      </trkpt>
      <trkpt lat="48.41605" lon="2.62507">
        <ele>100.11</ele>
        <time>2013-03-24T11:15:39Z</time>
      </trkpt>
      <trkpt lat="48.41606" lon="2.62502">
        <ele>99.63</ele>
        <time>2013-03-24T11:15:40Z</time>
      </trkpt>
      <trkpt lat="48.41615" lon="2.62491">
        <ele>99.15</ele>
        <time>2013-03-24T11:15:45Z</time>
      </trkpt>
      <trkpt lat="48.41617" lon="2.62489">
        <ele>99.15</ele>
        <time>2013-03-24T11:15:46Z</time>
      </trkpt>
      <trkpt lat="48.41652" lon="2.6246">
        <ele>98.67</ele>
        <time>2013-03-24T11:16:00Z</time>
      </trkpt>
      <trkpt lat="48.4169" lon="2.62439">
        <ele>97.23</ele>
        <time>2013-03-24T11:16:12Z</time>
      </trkpt>
      <trkpt lat="48.41728" lon="2.6242">
        <ele>96.75</ele>
        <time>2013-03-24T11:16:24Z</time>
      </trkpt>
      <trkpt lat="48.4177" lon="2.6239">
        <ele>95.79</ele>
        <time>2013-03-24T11:16:36Z</time>
      </trkpt>
      <trkpt lat="48.41814" lon="2.62364">
        <ele>95.79</ele>
        <time>2013-03-24T11:16:48Z</time>
      </trkpt>
      <trkpt lat="48.41858" lon="2.62336">
        <ele>95.31</ele>
        <time>2013-03-24T11:17:00Z</time>
      </trkpt>
      <trkpt lat="48.41916" lon="2.62301">
        <ele>93.39</ele>
        <time>2013-03-24T11:17:14Z</time>
      </trkpt>
      <trkpt lat="48.41938" lon="2.62289">
        <ele>92.42</ele>
        <time>2013-03-24T11:17:19Z</time>
      </trkpt>
      <trkpt lat="48.4194" lon="2.62285">
        <ele>91.94</ele>
        <time>2013-03-24T11:17:20Z</time>
      </trkpt>
      <trkpt lat="48.41942" lon="2.62282">
        <ele>91.94</ele>
        <time>2013-03-24T11:17:21Z</time>
      </trkpt>
      <trkpt lat="48.41942" lon="2.6228">
        <ele>91.94</ele>
        <time>2013-03-24T11:17:22Z</time>
      </trkpt>
      <trkpt lat="48.41941" lon="2.62278">
        <ele>91.94</ele>
        <time>2013-03-24T11:17:23Z</time>
      </trkpt>
      <trkpt lat="48.41907" lon="2.62249">
        <ele>92.42</ele>
        <time>2013-03-24T11:17:34Z</time>
      </trkpt>
      <trkpt lat="48.41862" lon="2.62205">
        <ele>92.42</ele>
        <time>2013-03-24T11:17:47Z</time>
      </trkpt>
      <trkpt lat="48.41819" lon="2.62162">
        <ele>92.9</ele>
        <time>2013-03-24T11:18:00Z</time>
      </trkpt>
      <trkpt lat="48.418" lon="2.62146">
        <ele>93.39</ele>
        <time>2013-03-24T11:18:07Z</time>
      </trkpt>
      <trkpt lat="48.41797" lon="2.62143">
        <ele>93.39</ele>
        <time>2013-03-24T11:18:08Z</time>
      </trkpt>
      <trkpt lat="48.41773" lon="2.6212">
        <ele>94.35</ele>
        <time>2013-03-24T11:18:19Z</time>
      </trkpt>
      <trkpt lat="48.41746" lon="2.62094">
        <ele>95.31</ele>
        <time>2013-03-24T11:18:30Z</time>
      </trkpt>
      <trkpt lat="48.41727" lon="2.62075">
        <ele>95.79</ele>
        <time>2013-03-24T11:18:38Z</time>
      </trkpt>
      <trkpt lat="48.417" lon="2.6206">
        <ele>96.27</ele>
        <time>2013-03-24T11:18:49Z</time>
      </trkpt>
      <trkpt lat="48.4168" lon="2.6204">
        <ele>97.23</ele>
        <time>2013-03-24T11:19:00Z</time>
      </trkpt>
      <trkpt lat="48.41649" lon="2.62011">
        <ele>99.15</ele>
        <time>2013-03-24T11:19:16Z</time>
      </trkpt>
      <trkpt lat="48.41624" lon="2.61991">
        <ele>101.56</ele>
        <time>2013-03-24T11:19:31Z</time>
      </trkpt>
      <trkpt lat="48.41619" lon="2.61989">
        <ele>101.56</ele>
        <time>2013-03-24T11:19:34Z</time>
      </trkpt>
      <trkpt lat="48.41616" lon="2.61996">
        <ele>102.04</ele>
        <time>2013-03-24T11:19:39Z</time>
      </trkpt>
      <trkpt lat="48.41616" lon="2.62">
        <ele>102.04</ele>
        <time>2013-03-24T11:19:41Z</time>
      </trkpt>
      <trkpt lat="48.41614" lon="2.62052">
        <ele>102.04</ele>
        <time>2013-03-24T11:19:58Z</time>
      </trkpt>
      <trkpt lat="48.41615" lon="2.62058">
        <ele>102.52</ele>
        <time>2013-03-24T11:20:00Z</time>
      </trkpt>
      <trkpt lat="48.41609" lon="2.62111">
        <ele>101.56</ele>
        <time>2013-03-24T11:20:16Z</time>
      </trkpt>
      <trkpt lat="48.41602" lon="2.62168">
        <ele>101.08</ele>
        <time>2013-03-24T11:20:30Z</time>
      </trkpt>
      <trkpt lat="48.41595" lon="2.62244">
        <ele>100.6</ele>
        <time>2013-03-24T11:20:46Z</time>
      </trkpt>
      <trkpt lat="48.4159" lon="2.62306">
        <ele>100.11</ele>
        <time>2013-03-24T11:21:00Z</time>
      </trkpt>
      <trkpt lat="48.41586" lon="2.62367">
        <ele>100.11</ele>
        <time>2013-03-24T11:21:12Z</time>
      </trkpt>
      <trkpt lat="48.41578" lon="2.6243">
        <ele>100.6</ele>
        <time>2013-03-24T11:21:25Z</time>
      </trkpt>
      <trkpt lat="48.41571" lon="2.62483">
        <ele>100.11</ele>
        <time>2013-03-24T11:21:39Z</time>
      </trkpt>
      <trkpt lat="48.41569" lon="2.62485">
        <ele>100.6</ele>
        <time>2013-03-24T11:21:40Z</time>
      </trkpt>
      <trkpt lat="48.41567" lon="2.62485">
        <ele>100.6</ele>
        <time>2013-03-24T11:21:41Z</time>
      </trkpt>
      <trkpt lat="48.41565" lon="2.62484">
        <ele>100.6</ele>
        <time>2013-03-24T11:21:42Z</time>
      </trkpt>
      <trkpt lat="48.41562" lon="2.62483">
        <ele>100.6</ele>
        <time>2013-03-24T11:21:43Z</time>
      </trkpt>
      <trkpt lat="48.4156" lon="2.62481">
        <ele>100.6</ele>
        <time>2013-03-24T11:21:44Z</time>
      </trkpt>
      <trkpt lat="48.41559" lon="2.62479">
        <ele>100.6</ele>
        <time>2013-03-24T11:21:45Z</time>
      </trkpt>
      <trkpt lat="48.41558" lon="2.62477">
        <ele>101.08</ele>
        <time>2013-03-24T11:21:46Z</time>
      </trkpt>
      <trkpt lat="48.41557" lon="2.62476">
        <ele>101.08</ele>
        <time>2013-03-24T11:21:47Z</time>
      </trkpt>
      <trkpt lat="48.41556" lon="2.62474">
        <ele>101.08</ele>
        <time>2013-03-24T11:21:48Z</time>
      </trkpt>
      <trkpt lat="48.4155" lon="2.62469">
        <ele>102.04</ele>
        <time>2013-03-24T11:21:52Z</time>
      </trkpt>
      <trkpt lat="48.41549" lon="2.62466">
        <ele>102.04</ele>
        <time>2013-03-24T11:21:53Z</time>
      </trkpt>
      <trkpt lat="48.41547" lon="2.62464">
        <ele>102.04</ele>
        <time>2013-03-24T11:21:54Z</time>
      </trkpt>
      <trkpt lat="48.41545" lon="2.62461">
        <ele>102.04</ele>
        <time>2013-03-24T11:21:55Z</time>
      </trkpt>
      <trkpt lat="48.41542" lon="2.62459">
        <ele>102.52</ele>
        <time>2013-03-24T11:21:56Z</time>
      </trkpt>
      <trkpt lat="48.4154" lon="2.62457">
        <ele>102.52</ele>
        <time>2013-03-24T11:21:57Z</time>
      </trkpt>
      <trkpt lat="48.41512" lon="2.62429">
        <ele>103.96</ele>
        <time>2013-03-24T11:22:09Z</time>
      </trkpt>
      <trkpt lat="48.4151" lon="2.6242">
        <ele>105.4</ele>
        <time>2013-03-24T11:22:21Z</time>
      </trkpt>
      <trkpt lat="48.4151" lon="2.6242">
        <ele>104.44</ele>
        <time>2013-03-24T11:22:23Z</time>
      </trkpt>
      <trkpt lat="48.41508" lon="2.6242">
        <ele>104.92</ele>
        <time>2013-03-24T11:22:35Z</time>
      </trkpt>
      <trkpt lat="48.41505" lon="2.6242">
        <ele>105.4</ele>
        <time>2013-03-24T11:22:37Z</time>
      </trkpt>
      <trkpt lat="48.41504" lon="2.62419">
        <ele>104.92</ele>
        <time>2013-03-24T11:22:38Z</time>
      </trkpt>
      <trkpt lat="48.41488" lon="2.62406">
        <ele>107.81</ele>
        <time>2013-03-24T11:22:51Z</time>
      </trkpt>
      <trkpt lat="48.41475" lon="2.62396">
        <ele>110.69</ele>
        <time>2013-03-24T11:23:04Z</time>
      </trkpt>
      <trkpt lat="48.41473" lon="2.62395">
        <ele>111.17</ele>
        <time>2013-03-24T11:23:06Z</time>
      </trkpt>
      <trkpt lat="48.41472" lon="2.62395">
        <ele>111.65</ele>
        <time>2013-03-24T11:23:07Z</time>
      </trkpt>
      <trkpt lat="48.41464" lon="2.62386">
        <ele>113.09</ele>
        <time>2013-03-24T11:23:16Z</time>
      </trkpt>
      <trkpt lat="48.41463" lon="2.62384">
        <ele>113.09</ele>
        <time>2013-03-24T11:23:17Z</time>
      </trkpt>
      <trkpt lat="48.4144" lon="2.62363">
        <ele>115.5</ele>
        <time>2013-03-24T11:23:31Z</time>
      </trkpt>
      <trkpt lat="48.41434" lon="2.62359">
        <ele>115.98</ele>
        <time>2013-03-24T11:23:36Z</time>
      </trkpt>
      <trkpt lat="48.41419" lon="2.62343">
        <ele>118.38</ele>
        <time>2013-03-24T11:23:47Z</time>
      </trkpt>
      <trkpt lat="48.41409" lon="2.62332">
        <ele>119.34</ele>
        <time>2013-03-24T11:23:55Z</time>
      </trkpt>
      <trkpt lat="48.41391" lon="2.62312">
        <ele>120.78</ele>
        <time>2013-03-24T11:24:09Z</time>
      </trkpt>
      <trkpt lat="48.41378" lon="2.62298">
        <ele>121.74</ele>
        <time>2013-03-24T11:24:17Z</time>
      </trkpt>
      <trkpt lat="48.4137" lon="2.62289">
        <ele>122.22</ele>
        <time>2013-03-24T11:24:23Z</time>
      </trkpt>
      <trkpt lat="48.41356" lon="2.62276">
        <ele>122.71</ele>
        <time>2013-03-24T11:24:32Z</time>
      </trkpt>
      <trkpt lat="48.41349" lon="2.62267">
        <ele>122.71</ele>
        <time>2013-03-24T11:24:36Z</time>
      </trkpt>
      <trkpt lat="48.41326" lon="2.62245">
        <ele>123.19</ele>
        <time>2013-03-24T11:24:49Z</time>
      </trkpt>
      <trkpt lat="48.41303" lon="2.62226">
        <ele>124.15</ele>
        <time>2013-03-24T11:25:01Z</time>
      </trkpt>
      <trkpt lat="48.41298" lon="2.62217">
        <ele>124.15</ele>
        <time>2013-03-24T11:25:05Z</time>
      </trkpt>
      <trkpt lat="48.41288" lon="2.62206">
        <ele>124.15</ele>
        <time>2013-03-24T11:25:11Z</time>
      </trkpt>
      <trkpt lat="48.41269" lon="2.62178">
        <ele>123.19</ele>
        <time>2013-03-24T11:25:23Z</time>
      </trkpt>
      <trkpt lat="48.41258" lon="2.6216">
        <ele>118.38</ele>
        <time>2013-03-24T11:25:27Z</time>
      </trkpt>
      <trkpt lat="48.41247" lon="2.62145">
        <ele>113.09</ele>
        <time>2013-03-24T11:25:29Z</time>
      </trkpt>
      <trkpt lat="48.41239" lon="2.62135">
        <ele>110.69</ele>
        <time>2013-03-24T11:25:30Z</time>
      </trkpt>
      <trkpt lat="48.41229" lon="2.62125">
        <ele>107.32</ele>
        <time>2013-03-24T11:25:31Z</time>
      </trkpt>
      <trkpt lat="48.41211" lon="2.62104">
        <ele>103.48</ele>
        <time>2013-03-24T11:25:33Z</time>
      </trkpt>
      <trkpt lat="48.41203" lon="2.62093">
        <ele>103</ele>
        <time>2013-03-24T11:25:34Z</time>
      </trkpt>
      <trkpt lat="48.41195" lon="2.62081">
        <ele>103.48</ele>
        <time>2013-03-24T11:25:35Z</time>
      </trkpt>
      <trkpt lat="48.41189" lon="2.62067">
        <ele>102.52</ele>
        <time>2013-03-24T11:25:36Z</time>
      </trkpt>
      <trkpt lat="48.41183" lon="2.62052">
        <ele>101.08</ele>
        <time>2013-03-24T11:25:37Z</time>
      </trkpt>
      <trkpt lat="48.41178" lon="2.62036">
        <ele>99.63</ele>
        <time>2013-03-24T11:25:38Z</time>
      </trkpt>
      <trkpt lat="48.41165" lon="2.61989">
        <ele>96.27</ele>
        <time>2013-03-24T11:25:41Z</time>
      </trkpt>
      <trkpt lat="48.41156" lon="2.61958">
        <ele>92.9</ele>
        <time>2013-03-24T11:25:43Z</time>
      </trkpt>
      <trkpt lat="48.41137" lon="2.61892">
        <ele>89.06</ele>
        <time>2013-03-24T11:25:47Z</time>
      </trkpt>
      <trkpt lat="48.41132" lon="2.61877">
        <ele>89.06</ele>
        <time>2013-03-24T11:25:48Z</time>
      </trkpt>
      <trkpt lat="48.41109" lon="2.61802">
        <ele>90.02</ele>
        <time>2013-03-24T11:25:54Z</time>
      </trkpt>
      <trkpt lat="48.41106" lon="2.61792">
        <ele>91.46</ele>
        <time>2013-03-24T11:25:56Z</time>
      </trkpt>
      <trkpt lat="48.41108" lon="2.61783">
        <ele>91.46</ele>
        <time>2013-03-24T11:26:06Z</time>
      </trkpt>
      <trkpt lat="48.41111" lon="2.61785">
        <ele>91.46</ele>
        <time>2013-03-24T11:26:31Z</time>
      </trkpt>
      <trkpt lat="48.41111" lon="2.61786">
        <ele>91.94</ele>
        <time>2013-03-24T11:26:51Z</time>
      </trkpt>
      <trkpt lat="48.41112" lon="2.61787">
        <ele>91.94</ele>
        <time>2013-03-24T11:26:53Z</time>
      </trkpt>
      <trkpt lat="48.41111" lon="2.61792">
        <ele>91.46</ele>
        <time>2013-03-24T11:26:59Z</time>
      </trkpt>
      <trkpt lat="48.4111" lon="2.61796">
        <ele>91.94</ele>
        <time>2013-03-24T11:27:00Z</time>
      </trkpt>
      <trkpt lat="48.41109" lon="2.61799">
        <ele>91.94</ele>
        <time>2013-03-24T11:27:01Z</time>
      </trkpt>
      <trkpt lat="48.41102" lon="2.61842">
        <ele>93.39</ele>
        <time>2013-03-24T11:27:16Z</time>
      </trkpt>
      <trkpt lat="48.41094" lon="2.6189">
        <ele>95.31</ele>
        <time>2013-03-24T11:27:30Z</time>
      </trkpt>
      <trkpt lat="48.41089" lon="2.61937">
        <ele>97.23</ele>
        <time>2013-03-24T11:27:44Z</time>
      </trkpt>
      <trkpt lat="48.41088" lon="2.6199">
        <ele>99.63</ele>
        <time>2013-03-24T11:27:58Z</time>
      </trkpt>
      <trkpt lat="48.41076" lon="2.62052">
        <ele>101.56</ele>
        <time>2013-03-24T11:28:11Z</time>
      </trkpt>
      <trkpt lat="48.41057" lon="2.62135">
        <ele>104.44</ele>
        <time>2013-03-24T11:28:25Z</time>
      </trkpt>
      <trkpt lat="48.41055" lon="2.62182">
        <ele>106.36</ele>
        <time>2013-03-24T11:28:37Z</time>
      </trkpt>
      <trkpt lat="48.41061" lon="2.62228">
        <ele>109.25</ele>
        <time>2013-03-24T11:28:51Z</time>
      </trkpt>
      <trkpt lat="48.4106" lon="2.62286">
        <ele>111.65</ele>
        <time>2013-03-24T11:29:07Z</time>
      </trkpt>
      <trkpt lat="48.41061" lon="2.62326">
        <ele>113.09</ele>
        <time>2013-03-24T11:29:19Z</time>
      </trkpt>
      <trkpt lat="48.41048" lon="2.62368">
        <ele>115.01</ele>
        <time>2013-03-24T11:29:31Z</time>
      </trkpt>
      <trkpt lat="48.41025" lon="2.62414">
        <ele>116.46</ele>
        <time>2013-03-24T11:29:43Z</time>
      </trkpt>
      <trkpt lat="48.41007" lon="2.62455">
        <ele>117.9</ele>
        <time>2013-03-24T11:29:56Z</time>
      </trkpt>
      <trkpt lat="48.40989" lon="2.62496">
        <ele>119.82</ele>
        <time>2013-03-24T11:30:08Z</time>
      </trkpt>
      <trkpt lat="48.40974" lon="2.62544">
        <ele>121.74</ele>
        <time>2013-03-24T11:30:21Z</time>
      </trkpt>
      <trkpt lat="48.40966" lon="2.62609">
        <ele>122.71</ele>
        <time>2013-03-24T11:30:35Z</time>
      </trkpt>
      <trkpt lat="48.40958" lon="2.62681">
        <ele>123.67</ele>
        <time>2013-03-24T11:30:50Z</time>
      </trkpt>
      <trkpt lat="48.40963" lon="2.62758">
        <ele>123.67</ele>
        <time>2013-03-24T11:31:04Z</time>
      </trkpt>
      <trkpt lat="48.40974" lon="2.62818">
        <ele>124.63</ele>
        <time>2013-03-24T11:31:16Z</time>
      </trkpt>
      <trkpt lat="48.40985" lon="2.62882">
        <ele>126.07</ele>
        <time>2013-03-24T11:31:30Z</time>
      </trkpt>
      <trkpt lat="48.40995" lon="2.62934">
        <ele>127.51</ele>
        <time>2013-03-24T11:31:42Z</time>
      </trkpt>
      <trkpt lat="48.4101" lon="2.62983">
        <ele>127.99</ele>
        <time>2013-03-24T11:31:55Z</time>
      </trkpt>
      <trkpt lat="48.41021" lon="2.6304">
        <ele>129.43</ele>
        <time>2013-03-24T11:32:10Z</time>
      </trkpt>
      <trkpt lat="48.41022" lon="2.63057">
        <ele>129.43</ele>
        <time>2013-03-24T11:32:15Z</time>
      </trkpt>
      <trkpt lat="48.41004" lon="2.63127">
        <ele>129.92</ele>
        <time>2013-03-24T11:32:30Z</time>
      </trkpt>
      <trkpt lat="48.4098" lon="2.6321">
        <ele>129.92</ele>
        <time>2013-03-24T11:32:44Z</time>
      </trkpt>
      <trkpt lat="48.40964" lon="2.63269">
        <ele>130.88</ele>
        <time>2013-03-24T11:32:57Z</time>
      </trkpt>
      <trkpt lat="48.40964" lon="2.63272">
        <ele>130.88</ele>
        <time>2013-03-24T11:32:58Z</time>
      </trkpt>
      <trkpt lat="48.40963" lon="2.63275">
        <ele>130.88</ele>
        <time>2013-03-24T11:32:59Z</time>
      </trkpt>
      <trkpt lat="48.40956" lon="2.63297">
        <ele>131.36</ele>
        <time>2013-03-24T11:33:11Z</time>
      </trkpt>
      <trkpt lat="48.40957" lon="2.63298">
        <ele>131.36</ele>
        <time>2013-03-24T11:33:34Z</time>
      </trkpt>
      <trkpt lat="48.40957" lon="2.63299">
        <ele>131.36</ele>
        <time>2013-03-24T11:34:01Z</time>
      </trkpt>
      <trkpt lat="48.40957" lon="2.633">
        <ele>130.88</ele>
        <time>2013-03-24T11:34:36Z</time>
      </trkpt>
      <trkpt lat="48.40957" lon="2.63301">
        <ele>130.88</ele>
        <time>2013-03-24T11:34:56Z</time>
      </trkpt>
      <trkpt lat="48.40956" lon="2.633">
        <ele>130.4</ele>
        <time>2013-03-24T11:35:26Z</time>
      </trkpt>
      <trkpt lat="48.40955" lon="2.63302">
        <ele>130.88</ele>
        <time>2013-03-24T11:35:41Z</time>
      </trkpt>
      <trkpt lat="48.40955" lon="2.63304">
        <ele>130.88</ele>
        <time>2013-03-24T11:35:42Z</time>
      </trkpt>
      <trkpt lat="48.40954" lon="2.63307">
        <ele>130.88</ele>
        <time>2013-03-24T11:35:43Z</time>
      </trkpt>
      <trkpt lat="48.40953" lon="2.6331">
        <ele>130.4</ele>
        <time>2013-03-24T11:35:44Z</time>
      </trkpt>
      <trkpt lat="48.40953" lon="2.63313">
        <ele>130.88</ele>
        <time>2013-03-24T11:35:45Z</time>
      </trkpt>
      <trkpt lat="48.40953" lon="2.63316">
        <ele>130.88</ele>
        <time>2013-03-24T11:35:46Z</time>
      </trkpt>
      <trkpt lat="48.40951" lon="2.63365">
        <ele>131.36</ele>
        <time>2013-03-24T11:35:59Z</time>
      </trkpt>
      <trkpt lat="48.40939" lon="2.63409">
        <ele>130.88</ele>
        <time>2013-03-24T11:36:05Z</time>
      </trkpt>
      <trkpt lat="48.40926" lon="2.63469">
        <ele>131.36</ele>
        <time>2013-03-24T11:36:16Z</time>
      </trkpt>
      <trkpt lat="48.40923" lon="2.6352">
        <ele>131.36</ele>
        <time>2013-03-24T11:36:29Z</time>
      </trkpt>
      <trkpt lat="48.40913" lon="2.63589">
        <ele>131.36</ele>
        <time>2013-03-24T11:36:43Z</time>
      </trkpt>
      <trkpt lat="48.40901" lon="2.63661">
        <ele>130.88</ele>
        <time>2013-03-24T11:36:56Z</time>
      </trkpt>
      <trkpt lat="48.40895" lon="2.63736">
        <ele>129.92</ele>
        <time>2013-03-24T11:37:10Z</time>
      </trkpt>
      <trkpt lat="48.40882" lon="2.63802">
        <ele>129.43</ele>
        <time>2013-03-24T11:37:24Z</time>
      </trkpt>
      <trkpt lat="48.40857" lon="2.63867">
        <ele>129.43</ele>
        <time>2013-03-24T11:37:35Z</time>
      </trkpt>
      <trkpt lat="48.40855" lon="2.63869">
        <ele>129.43</ele>
        <time>2013-03-24T11:37:36Z</time>
      </trkpt>
      <trkpt lat="48.40846" lon="2.63869">
        <ele>129.43</ele>
        <time>2013-03-24T11:37:41Z</time>
      </trkpt>
      <trkpt lat="48.40845" lon="2.63868">
        <ele>129.43</ele>
        <time>2013-03-24T11:37:42Z</time>
      </trkpt>
      <trkpt lat="48.40845" lon="2.63866">
        <ele>129.43</ele>
        <time>2013-03-24T11:37:43Z</time>
      </trkpt>
      <trkpt lat="48.40844" lon="2.63864">
        <ele>128.95</ele>
        <time>2013-03-24T11:37:44Z</time>
      </trkpt>
      <trkpt lat="48.40841" lon="2.63862">
        <ele>128.95</ele>
        <time>2013-03-24T11:37:46Z</time>
      </trkpt>
      <trkpt lat="48.40838" lon="2.6386">
        <ele>128.47</ele>
        <time>2013-03-24T11:38:01Z</time>
      </trkpt>
      <trkpt lat="48.40838" lon="2.63859">
        <ele>128.47</ele>
        <time>2013-03-24T11:38:31Z</time>
      </trkpt>
      <trkpt lat="48.40837" lon="2.63858">
        <ele>128.47</ele>
        <time>2013-03-24T11:38:55Z</time>
      </trkpt>
      <trkpt lat="48.40837" lon="2.63857">
        <ele>128.47</ele>
        <time>2013-03-24T11:39:19Z</time>
      </trkpt>
      <trkpt lat="48.40835" lon="2.63857">
        <ele>128.47</ele>
        <time>2013-03-24T11:39:30Z</time>
      </trkpt>
      <trkpt lat="48.40833" lon="2.63859">
        <ele>128.47</ele>
        <time>2013-03-24T11:39:31Z</time>
      </trkpt>
      <trkpt lat="48.40833" lon="2.63862">
        <ele>128.95</ele>
        <time>2013-03-24T11:39:32Z</time>
      </trkpt>
      <trkpt lat="48.40833" lon="2.63865">
        <ele>128.95</ele>
        <time>2013-03-24T11:39:33Z</time>
      </trkpt>
      <trkpt lat="48.40833" lon="2.63869">
        <ele>128.95</ele>
        <time>2013-03-24T11:39:34Z</time>
      </trkpt>
      <trkpt lat="48.40833" lon="2.63872">
        <ele>128.95</ele>
        <time>2013-03-24T11:39:35Z</time>
      </trkpt>
      <trkpt lat="48.40834" lon="2.63875">
        <ele>128.95</ele>
        <time>2013-03-24T11:39:36Z</time>
      </trkpt>
      <trkpt lat="48.40835" lon="2.63878">
        <ele>128.95</ele>
        <time>2013-03-24T11:39:37Z</time>
      </trkpt>
      <trkpt lat="48.40836" lon="2.63881">
        <ele>128.95</ele>
        <time>2013-03-24T11:39:38Z</time>
      </trkpt>
      <trkpt lat="48.40837" lon="2.63884">
        <ele>128.95</ele>
        <time>2013-03-24T11:39:39Z</time>
      </trkpt>
      <trkpt lat="48.40839" lon="2.63887">
        <ele>128.95</ele>
        <time>2013-03-24T11:39:40Z</time>
      </trkpt>
      <trkpt lat="48.40839" lon="2.6389">
        <ele>128.95</ele>
        <time>2013-03-24T11:39:41Z</time>
      </trkpt>
      <trkpt lat="48.4084" lon="2.63892">
        <ele>128.95</ele>
        <time>2013-03-24T11:39:42Z</time>
      </trkpt>
      <trkpt lat="48.4084" lon="2.63895">
        <ele>128.95</ele>
        <time>2013-03-24T11:39:43Z</time>
      </trkpt>
      <trkpt lat="48.4084" lon="2.63897">
        <ele>128.95</ele>
        <time>2013-03-24T11:39:44Z</time>
      </trkpt>
      <trkpt lat="48.40838" lon="2.63909">
        <ele>128.95</ele>
        <time>2013-03-24T11:39:55Z</time>
      </trkpt>
      <trkpt lat="48.40839" lon="2.63911">
        <ele>128.95</ele>
        <time>2013-03-24T11:39:59Z</time>
      </trkpt>
      <trkpt lat="48.40841" lon="2.63911">
        <ele>128.95</ele>
        <time>2013-03-24T11:40:00Z</time>
      </trkpt>
      <trkpt lat="48.40843" lon="2.63912">
        <ele>129.43</ele>
        <time>2013-03-24T11:40:01Z</time>
      </trkpt>
      <trkpt lat="48.40846" lon="2.63914">
        <ele>129.43</ele>
        <time>2013-03-24T11:40:02Z</time>
      </trkpt>
      <trkpt lat="48.40848" lon="2.63917">
        <ele>129.43</ele>
        <time>2013-03-24T11:40:03Z</time>
      </trkpt>
      <trkpt lat="48.40851" lon="2.63919">
        <ele>128.95</ele>
        <time>2013-03-24T11:40:04Z</time>
      </trkpt>
      <trkpt lat="48.40853" lon="2.63921">
        <ele>129.43</ele>
        <time>2013-03-24T11:40:05Z</time>
      </trkpt>
      <trkpt lat="48.40855" lon="2.63923">
        <ele>128.95</ele>
        <time>2013-03-24T11:40:06Z</time>
      </trkpt>
      <trkpt lat="48.40857" lon="2.63924">
        <ele>128.95</ele>
        <time>2013-03-24T11:40:07Z</time>
      </trkpt>
      <trkpt lat="48.40858" lon="2.63932">
        <ele>129.43</ele>
        <time>2013-03-24T11:40:13Z</time>
      </trkpt>
      <trkpt lat="48.40854" lon="2.63973">
        <ele>128.95</ele>
        <time>2013-03-24T11:40:26Z</time>
      </trkpt>
      <trkpt lat="48.40848" lon="2.64015">
        <ele>128.95</ele>
        <time>2013-03-24T11:40:36Z</time>
      </trkpt>
      <trkpt lat="48.4084" lon="2.64066">
        <ele>128.95</ele>
        <time>2013-03-24T11:40:48Z</time>
      </trkpt>
      <trkpt lat="48.40829" lon="2.64139">
        <ele>128.47</ele>
        <time>2013-03-24T11:41:01Z</time>
      </trkpt>
      <trkpt lat="48.40816" lon="2.64202">
        <ele>128.47</ele>
        <time>2013-03-24T11:41:11Z</time>
      </trkpt>
      <trkpt lat="48.40812" lon="2.64232">
        <ele>127.99</ele>
        <time>2013-03-24T11:41:16Z</time>
      </trkpt>
      <trkpt lat="48.40811" lon="2.64236">
        <ele>127.99</ele>
        <time>2013-03-24T11:41:17Z</time>
      </trkpt>
      <trkpt lat="48.40808" lon="2.64246">
        <ele>127.99</ele>
        <time>2013-03-24T11:41:18Z</time>
      </trkpt>
      <trkpt lat="48.40805" lon="2.64253">
        <ele>127.99</ele>
        <time>2013-03-24T11:41:19Z</time>
      </trkpt>
      <trkpt lat="48.40803" lon="2.6426">
        <ele>127.51</ele>
        <time>2013-03-24T11:41:20Z</time>
      </trkpt>
      <trkpt lat="48.40802" lon="2.64266">
        <ele>127.03</ele>
        <time>2013-03-24T11:41:21Z</time>
      </trkpt>
      <trkpt lat="48.40802" lon="2.64272">
        <ele>127.03</ele>
        <time>2013-03-24T11:41:22Z</time>
      </trkpt>
      <trkpt lat="48.40805" lon="2.64328">
        <ele>127.99</ele>
        <time>2013-03-24T11:41:33Z</time>
      </trkpt>
      <trkpt lat="48.40817" lon="2.64362">
        <ele>127.99</ele>
        <time>2013-03-24T11:41:40Z</time>
      </trkpt>
      <trkpt lat="48.40817" lon="2.6437">
        <ele>127.99</ele>
        <time>2013-03-24T11:41:41Z</time>
      </trkpt>
      <trkpt lat="48.40834" lon="2.64438">
        <ele>127.99</ele>
        <time>2013-03-24T11:41:55Z</time>
      </trkpt>
      <trkpt lat="48.40842" lon="2.64517">
        <ele>127.99</ele>
        <time>2013-03-24T11:42:07Z</time>
      </trkpt>
      <trkpt lat="48.40866" lon="2.64587">
        <ele>127.51</ele>
        <time>2013-03-24T11:42:22Z</time>
      </trkpt>
      <trkpt lat="48.40876" lon="2.64663">
        <ele>127.99</ele>
        <time>2013-03-24T11:42:34Z</time>
      </trkpt>
      <trkpt lat="48.40879" lon="2.64762">
        <ele>128.47</ele>
        <time>2013-03-24T11:42:47Z</time>
      </trkpt>
      <trkpt lat="48.40898" lon="2.64815">
        <ele>128.47</ele>
        <time>2013-03-24T11:42:59Z</time>
      </trkpt>
      <trkpt lat="48.40924" lon="2.64877">
        <ele>128.95</ele>
        <time>2013-03-24T11:43:10Z</time>
      </trkpt>
      <trkpt lat="48.40955" lon="2.64957">
        <ele>128.47</ele>
        <time>2013-03-24T11:43:23Z</time>
      </trkpt>
      <trkpt lat="48.40966" lon="2.64995">
        <ele>128.47</ele>
        <time>2013-03-24T11:43:29Z</time>
      </trkpt>
      <trkpt lat="48.40974" lon="2.6502">
        <ele>127.99</ele>
        <time>2013-03-24T11:43:33Z</time>
      </trkpt>
      <trkpt lat="48.40976" lon="2.65026">
        <ele>127.99</ele>
        <time>2013-03-24T11:43:34Z</time>
      </trkpt>
      <trkpt lat="48.4099" lon="2.65058">
        <ele>127.51</ele>
        <time>2013-03-24T11:43:40Z</time>
      </trkpt>
      <trkpt lat="48.41007" lon="2.65117">
        <ele>127.99</ele>
        <time>2013-03-24T11:43:49Z</time>
      </trkpt>
      <trkpt lat="48.4104" lon="2.65217">
        <ele>127.03</ele>
        <time>2013-03-24T11:44:04Z</time>
      </trkpt>
      <trkpt lat="48.41061" lon="2.65283">
        <ele>127.03</ele>
        <time>2013-03-24T11:44:15Z</time>
      </trkpt>
      <trkpt lat="48.4107" lon="2.65307">
        <ele>127.03</ele>
        <time>2013-03-24T11:44:19Z</time>
      </trkpt>
      <trkpt lat="48.41072" lon="2.65313">
        <ele>127.51</ele>
        <time>2013-03-24T11:44:20Z</time>
      </trkpt>
      <trkpt lat="48.41096" lon="2.65393">
        <ele>127.51</ele>
        <time>2013-03-24T11:44:33Z</time>
      </trkpt>
      <trkpt lat="48.41104" lon="2.65417">
        <ele>127.03</ele>
        <time>2013-03-24T11:44:37Z</time>
      </trkpt>
      <trkpt lat="48.41107" lon="2.65422">
        <ele>127.03</ele>
        <time>2013-03-24T11:44:38Z</time>
      </trkpt>
      <trkpt lat="48.41109" lon="2.65428">
        <ele>127.03</ele>
        <time>2013-03-24T11:44:39Z</time>
      </trkpt>
      <trkpt lat="48.41138" lon="2.65517">
        <ele>126.55</ele>
        <time>2013-03-24T11:44:52Z</time>
      </trkpt>
      <trkpt lat="48.41145" lon="2.65579">
        <ele>125.59</ele>
        <time>2013-03-24T11:45:03Z</time>
      </trkpt>
      <trkpt lat="48.41143" lon="2.65584">
        <ele>125.59</ele>
        <time>2013-03-24T11:45:04Z</time>
      </trkpt>
      <trkpt lat="48.41141" lon="2.65587">
        <ele>125.59</ele>
        <time>2013-03-24T11:45:05Z</time>
      </trkpt>
      <trkpt lat="48.41137" lon="2.65591">
        <ele>125.59</ele>
        <time>2013-03-24T11:45:06Z</time>
      </trkpt>
      <trkpt lat="48.41134" lon="2.65593">
        <ele>125.59</ele>
        <time>2013-03-24T11:45:07Z</time>
      </trkpt>
      <trkpt lat="48.41132" lon="2.65594">
        <ele>126.07</ele>
        <time>2013-03-24T11:45:08Z</time>
      </trkpt>
      <trkpt lat="48.4113" lon="2.65593">
        <ele>126.07</ele>
        <time>2013-03-24T11:45:09Z</time>
      </trkpt>
      <trkpt lat="48.41127" lon="2.65592">
        <ele>126.07</ele>
        <time>2013-03-24T11:45:10Z</time>
      </trkpt>
      <trkpt lat="48.41085" lon="2.65576">
        <ele>126.55</ele>
        <time>2013-03-24T11:45:22Z</time>
      </trkpt>
      <trkpt lat="48.41077" lon="2.65572">
        <ele>126.55</ele>
        <time>2013-03-24T11:45:24Z</time>
      </trkpt>
      <trkpt lat="48.41073" lon="2.6557">
        <ele>126.55</ele>
        <time>2013-03-24T11:45:25Z</time>
      </trkpt>
      <trkpt lat="48.41012" lon="2.65546">
        <ele>127.03</ele>
        <time>2013-03-24T11:45:39Z</time>
      </trkpt>
      <trkpt lat="48.40953" lon="2.65523">
        <ele>127.99</ele>
        <time>2013-03-24T11:45:54Z</time>
      </trkpt>
      <trkpt lat="48.40912" lon="2.65506">
        <ele>128.47</ele>
        <time>2013-03-24T11:46:06Z</time>
      </trkpt>
      <trkpt lat="48.40863" lon="2.65489">
        <ele>128.47</ele>
        <time>2013-03-24T11:46:19Z</time>
      </trkpt>
      <trkpt lat="48.40816" lon="2.65478">
        <ele>127.99</ele>
        <time>2013-03-24T11:46:32Z</time>
      </trkpt>
      <trkpt lat="48.40815" lon="2.65481">
        <ele>127.99</ele>
        <time>2013-03-24T11:46:33Z</time>
      </trkpt>
      <trkpt lat="48.40809" lon="2.65512">
        <ele>127.03</ele>
        <time>2013-03-24T11:46:43Z</time>
      </trkpt>
      <trkpt lat="48.40813" lon="2.65561">
        <ele>127.03</ele>
        <time>2013-03-24T11:46:55Z</time>
      </trkpt>
      <trkpt lat="48.40828" lon="2.6561">
        <ele>126.55</ele>
        <time>2013-03-24T11:47:07Z</time>
      </trkpt>
      <trkpt lat="48.40839" lon="2.65704">
        <ele>126.55</ele>
        <time>2013-03-24T11:47:21Z</time>
      </trkpt>
      <trkpt lat="48.40843" lon="2.65754">
        <ele>126.07</ele>
        <time>2013-03-24T11:47:29Z</time>
      </trkpt>
      <trkpt lat="48.40848" lon="2.65838">
        <ele>126.07</ele>
        <time>2013-03-24T11:47:41Z</time>
      </trkpt>
      <trkpt lat="48.40859" lon="2.65921">
        <ele>126.07</ele>
        <time>2013-03-24T11:47:54Z</time>
      </trkpt>
      <trkpt lat="48.4087" lon="2.66052">
        <ele>125.59</ele>
        <time>2013-03-24T11:48:09Z</time>
      </trkpt>
      <trkpt lat="48.40883" lon="2.66137">
        <ele>126.07</ele>
        <time>2013-03-24T11:48:20Z</time>
      </trkpt>
      <trkpt lat="48.40891" lon="2.66251">
        <ele>125.11</ele>
        <time>2013-03-24T11:48:35Z</time>
      </trkpt>
      <trkpt lat="48.40895" lon="2.66299">
        <ele>124.63</ele>
        <time>2013-03-24T11:48:41Z</time>
      </trkpt>
      <trkpt lat="48.40914" lon="2.66404">
        <ele>123.19</ele>
        <time>2013-03-24T11:48:54Z</time>
      </trkpt>
      <trkpt lat="48.40925" lon="2.66501">
        <ele>121.74</ele>
        <time>2013-03-24T11:49:06Z</time>
      </trkpt>
      <trkpt lat="48.40926" lon="2.66509">
        <ele>121.74</ele>
        <time>2013-03-24T11:49:07Z</time>
      </trkpt>
      <trkpt lat="48.40926" lon="2.66517">
        <ele>121.26</ele>
        <time>2013-03-24T11:49:08Z</time>
      </trkpt>
      <trkpt lat="48.40945" lon="2.66655">
        <ele>119.34</ele>
        <time>2013-03-24T11:49:24Z</time>
      </trkpt>
      <trkpt lat="48.40947" lon="2.66679">
        <ele>118.86</ele>
        <time>2013-03-24T11:49:27Z</time>
      </trkpt>
      <trkpt lat="48.40958" lon="2.6675">
        <ele>115.5</ele>
        <time>2013-03-24T11:49:36Z</time>
      </trkpt>
      <trkpt lat="48.40959" lon="2.66762">
        <ele>115.5</ele>
        <time>2013-03-24T11:49:37Z</time>
      </trkpt>
      <trkpt lat="48.40967" lon="2.66833">
        <ele>113.09</ele>
        <time>2013-03-24T11:49:43Z</time>
      </trkpt>
      <trkpt lat="48.40972" lon="2.66867">
        <ele>111.65</ele>
        <time>2013-03-24T11:49:46Z</time>
      </trkpt>
      <trkpt lat="48.40989" lon="2.67004">
        <ele>108.29</ele>
        <time>2013-03-24T11:49:59Z</time>
      </trkpt>
      <trkpt lat="48.40994" lon="2.67039">
        <ele>104.92</ele>
        <time>2013-03-24T11:50:02Z</time>
      </trkpt>
      <trkpt lat="48.41001" lon="2.67094">
        <ele>101.08</ele>
        <time>2013-03-24T11:50:06Z</time>
      </trkpt>
      <trkpt lat="48.41009" lon="2.67165">
        <ele>97.71</ele>
        <time>2013-03-24T11:50:11Z</time>
      </trkpt>
      <trkpt lat="48.41011" lon="2.6718">
        <ele>98.19</ele>
        <time>2013-03-24T11:50:12Z</time>
      </trkpt>
      <trkpt lat="48.41022" lon="2.67262">
        <ele>94.83</ele>
        <time>2013-03-24T11:50:18Z</time>
      </trkpt>
      <trkpt lat="48.4103" lon="2.67328">
        <ele>90.98</ele>
        <time>2013-03-24T11:50:23Z</time>
      </trkpt>
      <trkpt lat="48.4103" lon="2.67338">
        <ele>91.46</ele>
        <time>2013-03-24T11:50:24Z</time>
      </trkpt>
      <trkpt lat="48.41031" lon="2.67348">
        <ele>90.02</ele>
        <time>2013-03-24T11:50:25Z</time>
      </trkpt>
      <trkpt lat="48.4103" lon="2.67356">
        <ele>89.54</ele>
        <time>2013-03-24T11:50:26Z</time>
      </trkpt>
      <trkpt lat="48.41028" lon="2.67364">
        <ele>89.54</ele>
        <time>2013-03-24T11:50:27Z</time>
      </trkpt>
      <trkpt lat="48.41026" lon="2.67369">
        <ele>89.06</ele>
        <time>2013-03-24T11:50:28Z</time>
      </trkpt>
      <trkpt lat="48.41023" lon="2.67372">
        <ele>89.54</ele>
        <time>2013-03-24T11:50:29Z</time>
      </trkpt>
      <trkpt lat="48.41019" lon="2.67374">
        <ele>89.54</ele>
        <time>2013-03-24T11:50:30Z</time>
      </trkpt>
      <trkpt lat="48.41017" lon="2.67374">
        <ele>90.02</ele>
        <time>2013-03-24T11:50:31Z</time>
      </trkpt>
      <trkpt lat="48.41013" lon="2.67374">
        <ele>90.02</ele>
        <time>2013-03-24T11:50:41Z</time>
      </trkpt>
      <trkpt lat="48.41009" lon="2.67373">
        <ele>90.5</ele>
        <time>2013-03-24T11:50:52Z</time>
      </trkpt>
      <trkpt lat="48.41008" lon="2.67374">
        <ele>90.98</ele>
        <time>2013-03-24T11:50:54Z</time>
      </trkpt>
      <trkpt lat="48.41007" lon="2.67375">
        <ele>90.98</ele>
        <time>2013-03-24T11:50:55Z</time>
      </trkpt>
      <trkpt lat="48.41005" lon="2.67376">
        <ele>91.46</ele>
        <time>2013-03-24T11:50:56Z</time>
      </trkpt>
      <trkpt lat="48.41004" lon="2.67377">
        <ele>91.46</ele>
        <time>2013-03-24T11:50:57Z</time>
      </trkpt>
      <trkpt lat="48.41002" lon="2.67378">
        <ele>91.46</ele>
        <time>2013-03-24T11:50:58Z</time>
      </trkpt>
      <trkpt lat="48.41" lon="2.6738">
        <ele>91.46</ele>
        <time>2013-03-24T11:50:59Z</time>
      </trkpt>
      <trkpt lat="48.40968" lon="2.67404">
        <ele>94.83</ele>
        <time>2013-03-24T11:51:12Z</time>
      </trkpt>
      <trkpt lat="48.40938" lon="2.67425">
        <ele>92.9</ele>
        <time>2013-03-24T11:51:23Z</time>
      </trkpt>
      <trkpt lat="48.40933" lon="2.67427">
        <ele>92.9</ele>
        <time>2013-03-24T11:51:24Z</time>
      </trkpt>
      <trkpt lat="48.40887" lon="2.67446">
        <ele>91.46</ele>
        <time>2013-03-24T11:51:31Z</time>
      </trkpt>
      <trkpt lat="48.4088" lon="2.67447">
        <ele>91.46</ele>
        <time>2013-03-24T11:51:32Z</time>
      </trkpt>
      <trkpt lat="48.40792" lon="2.67463">
        <ele>89.06</ele>
        <time>2013-03-24T11:51:44Z</time>
      </trkpt>
      <trkpt lat="48.40743" lon="2.67467">
        <ele>88.58</ele>
        <time>2013-03-24T11:51:52Z</time>
      </trkpt>
      <trkpt lat="48.40737" lon="2.67467">
        <ele>87.62</ele>
        <time>2013-03-24T11:51:53Z</time>
      </trkpt>
      <trkpt lat="48.4072" lon="2.67467">
        <ele>86.18</ele>
        <time>2013-03-24T11:51:56Z</time>
      </trkpt>
      <trkpt lat="48.40713" lon="2.67469">
        <ele>85.21</ele>
        <time>2013-03-24T11:51:57Z</time>
      </trkpt>
      <trkpt lat="48.40705" lon="2.67472">
        <ele>84.73</ele>
        <time>2013-03-24T11:51:58Z</time>
      </trkpt>
      <trkpt lat="48.40699" lon="2.67478">
        <ele>84.25</ele>
        <time>2013-03-24T11:51:59Z</time>
      </trkpt>
      <trkpt lat="48.40692" lon="2.67484">
        <ele>84.25</ele>
        <time>2013-03-24T11:52:00Z</time>
      </trkpt>
      <trkpt lat="48.40686" lon="2.67492">
        <ele>84.25</ele>
        <time>2013-03-24T11:52:01Z</time>
      </trkpt>
      <trkpt lat="48.40669" lon="2.67514">
        <ele>81.85</ele>
        <time>2013-03-24T11:52:04Z</time>
      </trkpt>
      <trkpt lat="48.40664" lon="2.67523">
        <ele>81.85</ele>
        <time>2013-03-24T11:52:05Z</time>
      </trkpt>
      <trkpt lat="48.40654" lon="2.67545">
        <ele>80.89</ele>
        <time>2013-03-24T11:52:07Z</time>
      </trkpt>
      <trkpt lat="48.40612" lon="2.67599">
        <ele>79.45</ele>
        <time>2013-03-24T11:52:15Z</time>
      </trkpt>
      <trkpt lat="48.40608" lon="2.67605">
        <ele>79.45</ele>
        <time>2013-03-24T11:52:16Z</time>
      </trkpt>
      <trkpt lat="48.40586" lon="2.67634">
        <ele>79.45</ele>
        <time>2013-03-24T11:52:21Z</time>
      </trkpt>
      <trkpt lat="48.40579" lon="2.67646">
        <ele>79.45</ele>
        <time>2013-03-24T11:52:23Z</time>
      </trkpt>
      <trkpt lat="48.40575" lon="2.6765">
        <ele>79.45</ele>
        <time>2013-03-24T11:52:24Z</time>
      </trkpt>
      <trkpt lat="48.40562" lon="2.67666">
        <ele>78.97</ele>
        <time>2013-03-24T11:52:27Z</time>
      </trkpt>
      <trkpt lat="48.40559" lon="2.6767">
        <ele>78.97</ele>
        <time>2013-03-24T11:52:28Z</time>
      </trkpt>
      <trkpt lat="48.40537" lon="2.67728">
        <ele>78.48</ele>
        <time>2013-03-24T11:52:42Z</time>
      </trkpt>
      <trkpt lat="48.40532" lon="2.6777">
        <ele>78.97</ele>
        <time>2013-03-24T11:52:53Z</time>
      </trkpt>
      <trkpt lat="48.40525" lon="2.67817">
        <ele>78.97</ele>
        <time>2013-03-24T11:53:04Z</time>
      </trkpt>
      <trkpt lat="48.40519" lon="2.67871">
        <ele>78.48</ele>
        <time>2013-03-24T11:53:14Z</time>
      </trkpt>
      <trkpt lat="48.40503" lon="2.67973">
        <ele>78.48</ele>
        <time>2013-03-24T11:53:31Z</time>
      </trkpt>
      <trkpt lat="48.40494" lon="2.68046">
        <ele>78</ele>
        <time>2013-03-24T11:53:45Z</time>
      </trkpt>
      <trkpt lat="48.40479" lon="2.68144">
        <ele>77.52</ele>
        <time>2013-03-24T11:54:01Z</time>
      </trkpt>
      <trkpt lat="48.4047" lon="2.68199">
        <ele>77.52</ele>
        <time>2013-03-24T11:54:10Z</time>
      </trkpt>
      <trkpt lat="48.40469" lon="2.68205">
        <ele>77.52</ele>
        <time>2013-03-24T11:54:11Z</time>
      </trkpt>
      <trkpt lat="48.40468" lon="2.68212">
        <ele>77.52</ele>
        <time>2013-03-24T11:54:12Z</time>
      </trkpt>
      <trkpt lat="48.40461" lon="2.68262">
        <ele>77.52</ele>
        <time>2013-03-24T11:54:22Z</time>
      </trkpt>
      <trkpt lat="48.40457" lon="2.68312">
        <ele>77.04</ele>
        <time>2013-03-24T11:54:36Z</time>
      </trkpt>
      <trkpt lat="48.40455" lon="2.68318">
        <ele>77.04</ele>
        <time>2013-03-24T11:54:40Z</time>
      </trkpt>
      <trkpt lat="48.40453" lon="2.6832">
        <ele>77.04</ele>
        <time>2013-03-24T11:54:41Z</time>
      </trkpt>
      <trkpt lat="48.40451" lon="2.68321">
        <ele>77.04</ele>
        <time>2013-03-24T11:54:42Z</time>
      </trkpt>
      <trkpt lat="48.40447" lon="2.68323">
        <ele>77.04</ele>
        <time>2013-03-24T11:54:45Z</time>
      </trkpt>
      <trkpt lat="48.40446" lon="2.68323">
        <ele>77.04</ele>
        <time>2013-03-24T11:54:46Z</time>
      </trkpt>
      <trkpt lat="48.40424" lon="2.68313">
        <ele>77.04</ele>
        <time>2013-03-24T11:54:59Z</time>
      </trkpt>
      <trkpt lat="48.40414" lon="2.68307">
        <ele>76.56</ele>
        <time>2013-03-24T11:55:12Z</time>
      </trkpt>
      <trkpt lat="48.40404" lon="2.68305">
        <ele>76.56</ele>
        <time>2013-03-24T11:55:24Z</time>
      </trkpt>
      <trkpt lat="48.40404" lon="2.68314">
        <ele>77.04</ele>
        <time>2013-03-24T11:55:34Z</time>
      </trkpt>
      <trkpt lat="48.40405" lon="2.68309">
        <ele>77.04</ele>
        <time>2013-03-24T11:55:41Z</time>
      </trkpt>
      <trkpt lat="48.40405" lon="2.68308">
        <ele>77.52</ele>
        <time>2013-03-24T11:55:42Z</time>
      </trkpt>
      <trkpt lat="48.40407" lon="2.683">
        <ele>77.04</ele>
        <time>2013-03-24T11:55:53Z</time>
      </trkpt>
      <trkpt lat="48.40406" lon="2.683">
        <ele>76.08</ele>
        <time>2013-03-24T11:56:07Z</time>
      </trkpt>
    </trkseg>
  </trk>
</gpx>